<?xml version='1.0' encoding='UTF-8'?><gpx version="1.1" creator="JPX - https://github.com/jenetics/jpx" xmlns="http://www.topografix.com/GPX/1/1"><trk><trkseg><trkpt lat="42.7773404" lon="12.4116351"><ele>300.0</ele><time>2026-04-18T11:49:42.99Z</time></trkpt><trkpt lat="42.777395" lon="12.4115891"><ele>300.0</ele><time>2026-04-18T11:49:45.97Z</time></trkpt><trkpt lat="42.7774524" lon="12.4115138"><ele>300.0</ele><time>2026-04-18T11:49:51.972Z</time></trkpt><trkpt lat="42.7777121" lon="12.4113505"><ele>300.0</ele><time>2026-04-18T11:49:54.969Z</time></trkpt><trkpt lat="42.7777735" lon="12.4115677"><ele>306.0</ele><time>2026-04-18T11:49:56.984Z</time></trkpt><trkpt lat="42.7778102" lon="12.4117435"><ele>312.0</ele><time>2026-04-18T11:49:58.987Z</time></trkpt><trkpt lat="42.7778823" lon="12.4118202"><ele>318.0</ele><time>2026-04-18T11:50:00.978Z</time></trkpt><trkpt lat="42.7779658" lon="12.411726"><ele>324.0</ele><time>2026-04-18T11:50:03.923Z</time></trkpt><trkpt lat="42.7780098" lon="12.4115007"><ele>324.0</ele><time>2026-04-18T11:50:04.968Z</time></trkpt><trkpt lat="42.7780703" lon="12.411437"><ele>324.0</ele><time>2026-04-18T11:50:06.847Z</time></trkpt><trkpt lat="42.778245" lon="12.4114714"><ele>324.0</ele><time>2026-04-18T11:50:08.987Z</time></trkpt><trkpt lat="42.7783958" lon="12.4115205"><ele>324.0</ele><time>2026-04-18T11:50:10.981Z</time></trkpt><trkpt lat="42.7784996" lon="12.4114978"><ele>326.6666666666667</ele><time>2026-04-18T11:50:12.966Z</time></trkpt><trkpt lat="42.7785526" lon="12.411354"><ele>329.3333333333333</ele><time>2026-04-18T11:50:13.973Z</time></trkpt><trkpt lat="42.7785828" lon="12.4112753"><ele>332.0</ele><time>2026-04-18T11:50:14.974Z</time></trkpt><trkpt lat="42.7785746" lon="12.4111753"><ele>334.66666666666663</ele><time>2026-04-18T11:50:15.976Z</time></trkpt><trkpt lat="42.778607" lon="12.4110911"><ele>337.3333333333333</ele><time>2026-04-18T11:50:17.977Z</time></trkpt><trkpt lat="42.7786662" lon="12.4111524"><ele>340.0</ele><time>2026-04-18T11:50:19.982Z</time></trkpt><trkpt lat="42.7786398" lon="12.4113193"><ele>340.0</ele><time>2026-04-18T11:50:21.996Z</time></trkpt><trkpt lat="42.7786293" lon="12.4114049"><ele>340.0</ele><time>2026-04-18T11:50:22.964Z</time></trkpt><trkpt lat="42.7786018" lon="12.4115397"><ele>340.0</ele><time>2026-04-18T11:50:23.97Z</time></trkpt><trkpt lat="42.7785378" lon="12.4118213"><ele>340.0</ele><time>2026-04-18T11:50:25.977Z</time></trkpt><trkpt lat="42.7785005" lon="12.4120343"><ele>335.0</ele><time>2026-04-18T11:50:27.923Z</time></trkpt><trkpt lat="42.7784711" lon="12.4123921"><ele>330.0</ele><time>2026-04-18T11:50:28.981Z</time></trkpt><trkpt lat="42.7784549" lon="12.4125751"><ele>325.0</ele><time>2026-04-18T11:50:29.982Z</time></trkpt><trkpt lat="42.7784415" lon="12.4127638"><ele>325.0</ele><time>2026-04-18T11:50:30.973Z</time></trkpt><trkpt lat="42.7784306" lon="12.4129421"><ele>325.0</ele><time>2026-04-18T11:50:31.987Z</time></trkpt><trkpt lat="42.7784186" lon="12.413099"><ele>325.0</ele><time>2026-04-18T11:50:32.983Z</time></trkpt><trkpt lat="42.7784089" lon="12.4132407"><ele>325.0</ele><time>2026-04-18T11:50:33.983Z</time></trkpt><trkpt lat="42.7783992" lon="12.413393"><ele>325.0</ele><time>2026-04-18T11:50:34.985Z</time></trkpt><trkpt lat="42.7783963" lon="12.4135455"><ele>325.0</ele><time>2026-04-18T11:50:35.973Z</time></trkpt><trkpt lat="42.7784082" lon="12.4137013"><ele>325.0</ele><time>2026-04-18T11:50:36.968Z</time></trkpt><trkpt lat="42.778449" lon="12.4138418"><ele>325.0</ele><time>2026-04-18T11:50:37.971Z</time></trkpt><trkpt lat="42.7785081" lon="12.4139569"><ele>325.0</ele><time>2026-04-18T11:50:38.99Z</time></trkpt><trkpt lat="42.7785822" lon="12.4140464"><ele>326.0</ele><time>2026-04-18T11:50:39.965Z</time></trkpt><trkpt lat="42.7786547" lon="12.4141308"><ele>327.0</ele><time>2026-04-18T11:50:41.002Z</time></trkpt><trkpt lat="42.778714" lon="12.4141964"><ele>328.0</ele><time>2026-04-18T11:50:41.992Z</time></trkpt><trkpt lat="42.7787588" lon="12.4142577"><ele>329.0</ele><time>2026-04-18T11:50:42.982Z</time></trkpt><trkpt lat="42.7788007" lon="12.4143588"><ele>330.0</ele><time>2026-04-18T11:50:44.993Z</time></trkpt><trkpt lat="42.7788349" lon="12.4144758"><ele>331.0</ele><time>2026-04-18T11:50:47.977Z</time></trkpt><trkpt lat="42.7788086" lon="12.4146434"><ele>330.16666666666663</ele><time>2026-04-18T11:50:49.981Z</time></trkpt><trkpt lat="42.7787768" lon="12.4147312"><ele>329.3333333333333</ele><time>2026-04-18T11:50:50.974Z</time></trkpt><trkpt lat="42.7787375" lon="12.4148279"><ele>328.5</ele><time>2026-04-18T11:50:51.979Z</time></trkpt><trkpt lat="42.7786972" lon="12.4149269"><ele>327.6666666666667</ele><time>2026-04-18T11:50:52.991Z</time></trkpt><trkpt lat="42.778651" lon="12.4150223"><ele>326.83333333333337</ele><time>2026-04-18T11:50:54.005Z</time></trkpt><trkpt lat="42.7786066" lon="12.4151283"><ele>326.0</ele><time>2026-04-18T11:50:54.966Z</time></trkpt><trkpt lat="42.7785615" lon="12.4152404"><ele>326.20000000000005</ele><time>2026-04-18T11:50:55.972Z</time></trkpt><trkpt lat="42.7785155" lon="12.4153452"><ele>326.40000000000003</ele><time>2026-04-18T11:50:56.98Z</time></trkpt><trkpt lat="42.7784616" lon="12.4154527"><ele>326.6</ele><time>2026-04-18T11:50:57.97Z</time></trkpt><trkpt lat="42.7784129" lon="12.4155543"><ele>326.8</ele><time>2026-04-18T11:50:58.97Z</time></trkpt><trkpt lat="42.7783619" lon="12.4156683"><ele>327.0</ele><time>2026-04-18T11:50:59.971Z</time></trkpt><trkpt lat="42.7783083" lon="12.415788"><ele>327.20000000000005</ele><time>2026-04-18T11:51:00.967Z</time></trkpt><trkpt lat="42.7782572" lon="12.4159068"><ele>327.4</ele><time>2026-04-18T11:51:01.971Z</time></trkpt><trkpt lat="42.778207" lon="12.4160226"><ele>327.6</ele><time>2026-04-18T11:51:02.988Z</time></trkpt><trkpt lat="42.7781615" lon="12.4161354"><ele>327.79999999999995</ele><time>2026-04-18T11:51:03.981Z</time></trkpt><trkpt lat="42.7781093" lon="12.4162505"><ele>328.0</ele><time>2026-04-18T11:51:04.971Z</time></trkpt><trkpt lat="42.7780532" lon="12.4163828"><ele>326.4</ele><time>2026-04-18T11:51:05.982Z</time></trkpt><trkpt lat="42.7779918" lon="12.4165049"><ele>324.79999999999995</ele><time>2026-04-18T11:51:06.967Z</time></trkpt><trkpt lat="42.7779237" lon="12.4166206"><ele>323.2</ele><time>2026-04-18T11:51:07.973Z</time></trkpt><trkpt lat="42.777841" lon="12.4167164"><ele>321.6</ele><time>2026-04-18T11:51:08.997Z</time></trkpt><trkpt lat="42.777745" lon="12.4167931"><ele>320.0</ele><time>2026-04-18T11:51:09.986Z</time></trkpt><trkpt lat="42.7776447" lon="12.4168539"><ele>319.4</ele><time>2026-04-18T11:51:10.967Z</time></trkpt><trkpt lat="42.7775411" lon="12.4168909"><ele>318.8</ele><time>2026-04-18T11:51:11.978Z</time></trkpt><trkpt lat="42.7774415" lon="12.4169108"><ele>318.2</ele><time>2026-04-18T11:51:13Z</time></trkpt><trkpt lat="42.777336" lon="12.4169273"><ele>317.6</ele><time>2026-04-18T11:51:13.98Z</time></trkpt><trkpt lat="42.7772311" lon="12.4169472"><ele>317.0</ele><time>2026-04-18T11:51:14.985Z</time></trkpt><trkpt lat="42.7771365" lon="12.4169664"><ele>317.0</ele><time>2026-04-18T11:51:15.995Z</time></trkpt><trkpt lat="42.7770431" lon="12.4169833"><ele>317.0</ele><time>2026-04-18T11:51:16.996Z</time></trkpt><trkpt lat="42.77696" lon="12.4170119"><ele>317.0</ele><time>2026-04-18T11:51:17.99Z</time></trkpt><trkpt lat="42.7768824" lon="12.4170604"><ele>317.0</ele><time>2026-04-18T11:51:18.983Z</time></trkpt><trkpt lat="42.7768113" lon="12.4171427"><ele>317.0</ele><time>2026-04-18T11:51:19.979Z</time></trkpt><trkpt lat="42.7767636" lon="12.4172505"><ele>315.0</ele><time>2026-04-18T11:51:20.994Z</time></trkpt><trkpt lat="42.7767452" lon="12.4173692"><ele>313.0</ele><time>2026-04-18T11:51:21.974Z</time></trkpt><trkpt lat="42.7767475" lon="12.417509"><ele>311.0</ele><time>2026-04-18T11:51:22.972Z</time></trkpt><trkpt lat="42.7767589" lon="12.4176484"><ele>309.0</ele><time>2026-04-18T11:51:23.982Z</time></trkpt><trkpt lat="42.7767823" lon="12.4177887"><ele>307.0</ele><time>2026-04-18T11:51:24.978Z</time></trkpt><trkpt lat="42.7768014" lon="12.4179229"><ele>307.3333333333333</ele><time>2026-04-18T11:51:25.972Z</time></trkpt><trkpt lat="42.7768252" lon="12.4180435"><ele>307.66666666666663</ele><time>2026-04-18T11:51:27Z</time></trkpt><trkpt lat="42.7768475" lon="12.4181485"><ele>308.0</ele><time>2026-04-18T11:51:27.982Z</time></trkpt><trkpt lat="42.7768648" lon="12.4182468"><ele>308.3333333333333</ele><time>2026-04-18T11:51:28.988Z</time></trkpt><trkpt lat="42.7768854" lon="12.4183386"><ele>308.6666666666667</ele><time>2026-04-18T11:51:29.984Z</time></trkpt><trkpt lat="42.7769079" lon="12.4184229"><ele>309.0</ele><time>2026-04-18T11:51:30.984Z</time></trkpt><trkpt lat="42.7769456" lon="12.418551"><ele>309.0</ele><time>2026-04-18T11:51:32.971Z</time></trkpt><trkpt lat="42.7769675" lon="12.4186523"><ele>309.0</ele><time>2026-04-18T11:51:34.968Z</time></trkpt><trkpt lat="42.7769086" lon="12.4186909"><ele>309.0</ele><time>2026-04-18T11:51:37.976Z</time></trkpt><trkpt lat="42.7768371" lon="12.4186682"><ele>309.0</ele><time>2026-04-18T11:51:39.996Z</time></trkpt><trkpt lat="42.7767776" lon="12.418618"><ele>309.0</ele><time>2026-04-18T11:51:41.972Z</time></trkpt><trkpt lat="42.7767605" lon="12.4185153"><ele>309.0</ele><time>2026-04-18T11:51:43.999Z</time></trkpt><trkpt lat="42.776742" lon="12.4183787"><ele>308.6666666666667</ele><time>2026-04-18T11:51:45.985Z</time></trkpt><trkpt lat="42.7767241" lon="12.4182337"><ele>308.3333333333333</ele><time>2026-04-18T11:51:47.987Z</time></trkpt><trkpt lat="42.7767052" lon="12.4180781"><ele>308.0</ele><time>2026-04-18T11:51:49.969Z</time></trkpt><trkpt lat="42.7766917" lon="12.4179901"><ele>307.66666666666663</ele><time>2026-04-18T11:51:50.986Z</time></trkpt><trkpt lat="42.7766774" lon="12.4178935"><ele>307.3333333333333</ele><time>2026-04-18T11:51:51.99Z</time></trkpt><trkpt lat="42.776668" lon="12.4178046"><ele>307.0</ele><time>2026-04-18T11:51:53.003Z</time></trkpt><trkpt lat="42.7766589" lon="12.4176534"><ele>307.0</ele><time>2026-04-18T11:51:54.985Z</time></trkpt><trkpt lat="42.7766551" lon="12.417505"><ele>307.0</ele><time>2026-04-18T11:51:56.979Z</time></trkpt><trkpt lat="42.7766618" lon="12.4173503"><ele>307.0</ele><time>2026-04-18T11:51:58.988Z</time></trkpt><trkpt lat="42.7766939" lon="12.4171928"><ele>307.0</ele><time>2026-04-18T11:52:00.983Z</time></trkpt><trkpt lat="42.7767311" lon="12.4170559"><ele>305.6</ele><time>2026-04-18T11:52:03.014Z</time></trkpt><trkpt lat="42.7767693" lon="12.4169148"><ele>304.2</ele><time>2026-04-18T11:52:04.982Z</time></trkpt><trkpt lat="42.7768258" lon="12.416788"><ele>302.8</ele><time>2026-04-18T11:52:06.969Z</time></trkpt><trkpt lat="42.7768876" lon="12.4167022"><ele>301.4</ele><time>2026-04-18T11:52:08.978Z</time></trkpt><trkpt lat="42.7769333" lon="12.4166179"><ele>300.0</ele><time>2026-04-18T11:52:10.976Z</time></trkpt><trkpt lat="42.7769871" lon="12.416534"><ele>302.1666666666667</ele><time>2026-04-18T11:52:13.005Z</time></trkpt><trkpt lat="42.7770494" lon="12.416435"><ele>304.3333333333333</ele><time>2026-04-18T11:52:14.987Z</time></trkpt><trkpt lat="42.7770961" lon="12.4163761"><ele>306.5</ele><time>2026-04-18T11:52:16.978Z</time></trkpt><trkpt lat="42.777084" lon="12.4162903"><ele>308.66666666666663</ele><time>2026-04-18T11:52:19.994Z</time></trkpt><trkpt lat="42.7770219" lon="12.4162091"><ele>310.8333333333333</ele><time>2026-04-18T11:52:21.968Z</time></trkpt><trkpt lat="42.7769814" lon="12.4160946"><ele>313.0</ele><time>2026-04-18T11:52:23.978Z</time></trkpt><trkpt lat="42.7769722" lon="12.4159827"><ele>313.0</ele><time>2026-04-18T11:52:25.973Z</time></trkpt><trkpt lat="42.7770046" lon="12.4158815"><ele>313.0</ele><time>2026-04-18T11:52:27.976Z</time></trkpt><trkpt lat="42.7770779" lon="12.4157888"><ele>313.0</ele><time>2026-04-18T11:52:29.984Z</time></trkpt><trkpt lat="42.7771719" lon="12.4157067"><ele>313.0</ele><time>2026-04-18T11:52:31.979Z</time></trkpt><trkpt lat="42.7772095" lon="12.4156062"><ele>313.0</ele><time>2026-04-18T11:52:33.976Z</time></trkpt><trkpt lat="42.7772421" lon="12.4154917"><ele>310.8</ele><time>2026-04-18T11:52:35.984Z</time></trkpt><trkpt lat="42.777261" lon="12.4153709"><ele>308.6</ele><time>2026-04-18T11:52:37.974Z</time></trkpt><trkpt lat="42.7772873" lon="12.41524"><ele>306.4</ele><time>2026-04-18T11:52:39.988Z</time></trkpt><trkpt lat="42.7773198" lon="12.4150913"><ele>304.2</ele><time>2026-04-18T11:52:41.968Z</time></trkpt><trkpt lat="42.7773503" lon="12.4149493"><ele>302.0</ele><time>2026-04-18T11:52:43.964Z</time></trkpt><trkpt lat="42.7773749" lon="12.4148037"><ele>300.2</ele><time>2026-04-18T11:52:45.967Z</time></trkpt><trkpt lat="42.7773972" lon="12.414652"><ele>298.4</ele><time>2026-04-18T11:52:47.978Z</time></trkpt><trkpt lat="42.777396" lon="12.4144912"><ele>296.6</ele><time>2026-04-18T11:52:49.981Z</time></trkpt><trkpt lat="42.7773934" lon="12.414357"><ele>294.8</ele><time>2026-04-18T11:52:51.974Z</time></trkpt><trkpt lat="42.7773506" lon="12.4142645"><ele>293.0</ele><time>2026-04-18T11:52:53.983Z</time></trkpt><trkpt lat="42.7772939" lon="12.4141588"><ele>293.0</ele><time>2026-04-18T11:52:55.988Z</time></trkpt><trkpt lat="42.7772655" lon="12.4140262"><ele>293.0</ele><time>2026-04-18T11:52:57.975Z</time></trkpt><trkpt lat="42.7772339" lon="12.4138739"><ele>293.0</ele><time>2026-04-18T11:52:59.995Z</time></trkpt><trkpt lat="42.7772032" lon="12.4137816"><ele>293.0</ele><time>2026-04-18T11:53:01.99Z</time></trkpt><trkpt lat="42.7771363" lon="12.4138027"><ele>293.0</ele><time>2026-04-18T11:53:05.996Z</time></trkpt><trkpt lat="42.7771004" lon="12.4138893"><ele>293.0</ele><time>2026-04-18T11:53:08.984Z</time></trkpt><trkpt lat="42.777077" lon="12.4139968"><ele>293.0</ele><time>2026-04-18T11:53:10.987Z</time></trkpt><trkpt lat="42.7770376" lon="12.414107"><ele>293.0</ele><time>2026-04-18T11:53:12.992Z</time></trkpt><trkpt lat="42.7769949" lon="12.4142149"><ele>293.0</ele><time>2026-04-18T11:53:14.965Z</time></trkpt><trkpt lat="42.7769133" lon="12.4143306"><ele>293.0</ele><time>2026-04-18T11:53:16.965Z</time></trkpt><trkpt lat="42.7768056" lon="12.4144183"><ele>293.0</ele><time>2026-04-18T11:53:18.983Z</time></trkpt><trkpt lat="42.7766958" lon="12.4144687"><ele>289.2</ele><time>2026-04-18T11:53:20.978Z</time></trkpt><trkpt lat="42.7765968" lon="12.4144988"><ele>285.4</ele><time>2026-04-18T11:53:22.975Z</time></trkpt><trkpt lat="42.7765018" lon="12.4145726"><ele>281.59999999999997</ele><time>2026-04-18T11:53:24.985Z</time></trkpt><trkpt lat="42.776409" lon="12.4146649"><ele>277.8</ele><time>2026-04-18T11:53:26.99Z</time></trkpt><trkpt lat="42.776318" lon="12.4147474"><ele>274.0</ele><time>2026-04-18T11:53:28.979Z</time></trkpt><trkpt lat="42.7762045" lon="12.4147993"><ele>274.0</ele><time>2026-04-18T11:53:30.98Z</time></trkpt><trkpt lat="42.7761249" lon="12.4147727"><ele>274.0</ele><time>2026-04-18T11:53:32.982Z</time></trkpt><trkpt lat="42.7760518" lon="12.4146886"><ele>274.0</ele><time>2026-04-18T11:53:34.983Z</time></trkpt><trkpt lat="42.7759612" lon="12.4146965"><ele>274.0</ele><time>2026-04-18T11:53:36.994Z</time></trkpt><trkpt lat="42.7758855" lon="12.4148109"><ele>274.0</ele><time>2026-04-18T11:53:38.981Z</time></trkpt><trkpt lat="42.7758384" lon="12.4149019"><ele>270.4</ele><time>2026-04-18T11:53:39.982Z</time></trkpt><trkpt lat="42.7757871" lon="12.4149845"><ele>266.79999999999995</ele><time>2026-04-18T11:53:40.977Z</time></trkpt><trkpt lat="42.775705" lon="12.4150674"><ele>263.20000000000005</ele><time>2026-04-18T11:53:42.971Z</time></trkpt><trkpt lat="42.7756094" lon="12.4150316"><ele>259.6</ele><time>2026-04-18T11:53:44.99Z</time></trkpt><trkpt lat="42.7755237" lon="12.414897"><ele>256.0</ele><time>2026-04-18T11:53:46.993Z</time></trkpt><trkpt lat="42.7754897" lon="12.4148105"><ele>255.99999999999997</ele><time>2026-04-18T11:53:47.985Z</time></trkpt><trkpt lat="42.7754557" lon="12.4147181"><ele>256.0</ele><time>2026-04-18T11:53:48.98Z</time></trkpt><trkpt lat="42.7754159" lon="12.4146421"><ele>256.0</ele><time>2026-04-18T11:53:49.982Z</time></trkpt><trkpt lat="42.7753132" lon="12.4145929"><ele>256.0</ele><time>2026-04-18T11:53:51.996Z</time></trkpt><trkpt lat="42.7752353" lon="12.4145966"><ele>255.99999999999997</ele><time>2026-04-18T11:53:52.978Z</time></trkpt><trkpt lat="42.7751454" lon="12.4146171"><ele>256.0</ele><time>2026-04-18T11:53:53.973Z</time></trkpt><trkpt lat="42.775058" lon="12.4146309"><ele>254.57142857142856</ele><time>2026-04-18T11:53:54.973Z</time></trkpt><trkpt lat="42.7749846" lon="12.414641"><ele>253.1428571428571</ele><time>2026-04-18T11:53:55.973Z</time></trkpt><trkpt lat="42.7749129" lon="12.4146623"><ele>251.71428571428572</ele><time>2026-04-18T11:53:56.977Z</time></trkpt><trkpt lat="42.7748461" lon="12.4147041"><ele>250.28571428571428</ele><time>2026-04-18T11:53:57.988Z</time></trkpt><trkpt lat="42.7747846" lon="12.4147586"><ele>248.85714285714286</ele><time>2026-04-18T11:53:58.977Z</time></trkpt><trkpt lat="42.7747362" lon="12.4148161"><ele>247.42857142857144</ele><time>2026-04-18T11:53:59.97Z</time></trkpt><trkpt lat="42.774691" lon="12.4148771"><ele>246.00000000000003</ele><time>2026-04-18T11:54:00.993Z</time></trkpt><trkpt lat="42.7746477" lon="12.4149446"><ele>245.66666666666666</ele><time>2026-04-18T11:54:01.97Z</time></trkpt><trkpt lat="42.774608" lon="12.4150182"><ele>245.33333333333331</ele><time>2026-04-18T11:54:02.981Z</time></trkpt><trkpt lat="42.7745748" lon="12.4150955"><ele>245.0</ele><time>2026-04-18T11:54:03.977Z</time></trkpt><trkpt lat="42.7745252" lon="12.4152472"><ele>244.66666666666666</ele><time>2026-04-18T11:54:05.99Z</time></trkpt><trkpt lat="42.7744861" lon="12.4154101"><ele>244.33333333333331</ele><time>2026-04-18T11:54:07.981Z</time></trkpt><trkpt lat="42.7744692" lon="12.4155003"><ele>244.0</ele><time>2026-04-18T11:54:08.973Z</time></trkpt><trkpt lat="42.7744508" lon="12.4155911"><ele>244.0</ele><time>2026-04-18T11:54:09.982Z</time></trkpt><trkpt lat="42.7744242" lon="12.4156728"><ele>243.99999999999997</ele><time>2026-04-18T11:54:10.974Z</time></trkpt><trkpt lat="42.7743435" lon="12.4157921"><ele>243.99999999999997</ele><time>2026-04-18T11:54:12.979Z</time></trkpt><trkpt lat="42.7742525" lon="12.415898"><ele>244.0</ele><time>2026-04-18T11:54:14.964Z</time></trkpt><trkpt lat="42.77416" lon="12.4159805"><ele>244.0</ele><time>2026-04-18T11:54:16.98Z</time></trkpt><trkpt lat="42.7740463" lon="12.416055"><ele>241.0</ele><time>2026-04-18T11:54:18.982Z</time></trkpt><trkpt lat="42.773931" lon="12.4161205"><ele>237.99999999999997</ele><time>2026-04-18T11:54:20.97Z</time></trkpt><trkpt lat="42.7738742" lon="12.4161582"><ele>234.99999999999997</ele><time>2026-04-18T11:54:21.975Z</time></trkpt><trkpt lat="42.7737695" lon="12.4162302"><ele>232.0</ele><time>2026-04-18T11:54:23.969Z</time></trkpt><trkpt lat="42.7736753" lon="12.4163208"><ele>229.0</ele><time>2026-04-18T11:54:25.971Z</time></trkpt><trkpt lat="42.7736211" lon="12.4163661"><ele>229.0</ele><time>2026-04-18T11:54:26.982Z</time></trkpt><trkpt lat="42.7735618" lon="12.4164059"><ele>229.0</ele><time>2026-04-18T11:54:27.972Z</time></trkpt><trkpt lat="42.7735015" lon="12.4164429"><ele>229.0</ele><time>2026-04-18T11:54:28.977Z</time></trkpt><trkpt lat="42.7734407" lon="12.4164813"><ele>229.0</ele><time>2026-04-18T11:54:29.974Z</time></trkpt><trkpt lat="42.7733795" lon="12.4165201"><ele>229.0</ele><time>2026-04-18T11:54:30.987Z</time></trkpt><trkpt lat="42.7732849" lon="12.4165615"><ele>229.0</ele><time>2026-04-18T11:54:32.99Z</time></trkpt><trkpt lat="42.7732026" lon="12.4165763"><ele>229.0</ele><time>2026-04-18T11:54:34.968Z</time></trkpt><trkpt lat="42.7731275" lon="12.4166165"><ele>224.6</ele><time>2026-04-18T11:54:36.992Z</time></trkpt><trkpt lat="42.7730314" lon="12.4166525"><ele>220.2</ele><time>2026-04-18T11:54:38.973Z</time></trkpt><trkpt lat="42.7729239" lon="12.4166889"><ele>215.79999999999998</ele><time>2026-04-18T11:54:40.99Z</time></trkpt><trkpt lat="42.7728044" lon="12.4167354"><ele>211.39999999999998</ele><time>2026-04-18T11:54:42.99Z</time></trkpt><trkpt lat="42.7727325" lon="12.416759"><ele>207.0</ele><time>2026-04-18T11:54:43.989Z</time></trkpt><trkpt lat="42.7726648" lon="12.4167788"><ele>204.83333333333334</ele><time>2026-04-18T11:54:44.97Z</time></trkpt><trkpt lat="42.7725885" lon="12.4167902"><ele>202.66666666666669</ele><time>2026-04-18T11:54:45.992Z</time></trkpt><trkpt lat="42.7724994" lon="12.4167968"><ele>200.5</ele><time>2026-04-18T11:54:46.97Z</time></trkpt><trkpt lat="42.7724062" lon="12.4168156"><ele>198.33333333333334</ele><time>2026-04-18T11:54:47.981Z</time></trkpt><trkpt lat="42.7723111" lon="12.4168351"><ele>196.16666666666669</ele><time>2026-04-18T11:54:48.983Z</time></trkpt><trkpt lat="42.7722222" lon="12.4168514"><ele>194.0</ele><time>2026-04-18T11:54:49.989Z</time></trkpt><trkpt lat="42.7721313" lon="12.4168732"><ele>194.00000000000003</ele><time>2026-04-18T11:54:50.968Z</time></trkpt><trkpt lat="42.7720391" lon="12.4168978"><ele>194.0</ele><time>2026-04-18T11:54:51.976Z</time></trkpt><trkpt lat="42.771952" lon="12.4169203"><ele>194.0</ele><time>2026-04-18T11:54:52.976Z</time></trkpt><trkpt lat="42.7718675" lon="12.4169358"><ele>194.0</ele><time>2026-04-18T11:54:53.971Z</time></trkpt><trkpt lat="42.7717804" lon="12.4169518"><ele>194.00000000000003</ele><time>2026-04-18T11:54:54.982Z</time></trkpt><trkpt lat="42.7716936" lon="12.4169671"><ele>194.0</ele><time>2026-04-18T11:54:55.979Z</time></trkpt><trkpt lat="42.7716121" lon="12.4169849"><ele>192.42857142857142</ele><time>2026-04-18T11:54:56.98Z</time></trkpt><trkpt lat="42.7715363" lon="12.4170124"><ele>190.85714285714286</ele><time>2026-04-18T11:54:57.992Z</time></trkpt><trkpt lat="42.7714643" lon="12.4170378"><ele>189.28571428571428</ele><time>2026-04-18T11:54:58.994Z</time></trkpt><trkpt lat="42.7713928" lon="12.4170527"><ele>187.71428571428572</ele><time>2026-04-18T11:54:59.984Z</time></trkpt><trkpt lat="42.7713281" lon="12.4170544"><ele>186.14285714285717</ele><time>2026-04-18T11:55:00.987Z</time></trkpt><trkpt lat="42.7712677" lon="12.417021"><ele>184.57142857142858</ele><time>2026-04-18T11:55:01.981Z</time></trkpt><trkpt lat="42.7711923" lon="12.4169555"><ele>183.0</ele><time>2026-04-18T11:55:02.991Z</time></trkpt><trkpt lat="42.7711083" lon="12.416879"><ele>183.0</ele><time>2026-04-18T11:55:03.982Z</time></trkpt><trkpt lat="42.7710268" lon="12.4168129"><ele>183.0</ele><time>2026-04-18T11:55:04.975Z</time></trkpt><trkpt lat="42.7709427" lon="12.4167338"><ele>183.0</ele><time>2026-04-18T11:55:05.982Z</time></trkpt><trkpt lat="42.7708608" lon="12.4166479"><ele>183.0</ele><time>2026-04-18T11:55:06.978Z</time></trkpt><trkpt lat="42.7707842" lon="12.4165698"><ele>183.0</ele><time>2026-04-18T11:55:07.97Z</time></trkpt><trkpt lat="42.7707169" lon="12.4164973"><ele>182.4</ele><time>2026-04-18T11:55:08.976Z</time></trkpt><trkpt lat="42.7706492" lon="12.4164304"><ele>181.8</ele><time>2026-04-18T11:55:10Z</time></trkpt><trkpt lat="42.7705736" lon="12.4163684"><ele>181.2</ele><time>2026-04-18T11:55:10.974Z</time></trkpt><trkpt lat="42.7704718" lon="12.4163122"><ele>180.6</ele><time>2026-04-18T11:55:11.987Z</time></trkpt><trkpt lat="42.7703639" lon="12.4162452"><ele>180.0</ele><time>2026-04-18T11:55:12.988Z</time></trkpt><trkpt lat="42.7702698" lon="12.4161881"><ele>180.0</ele><time>2026-04-18T11:55:13.987Z</time></trkpt><trkpt lat="42.7701926" lon="12.4161279"><ele>180.0</ele><time>2026-04-18T11:55:14.978Z</time></trkpt><trkpt lat="42.7701284" lon="12.4160558"><ele>180.0</ele><time>2026-04-18T11:55:15.974Z</time></trkpt><trkpt lat="42.7700571" lon="12.4159544"><ele>180.0</ele><time>2026-04-18T11:55:16.978Z</time></trkpt><trkpt lat="42.7699811" lon="12.4158341"><ele>180.0</ele><time>2026-04-18T11:55:17.986Z</time></trkpt><trkpt lat="42.7699123" lon="12.4157267"><ele>179.0</ele><time>2026-04-18T11:55:18.977Z</time></trkpt><trkpt lat="42.7698461" lon="12.4156227"><ele>178.0</ele><time>2026-04-18T11:55:19.991Z</time></trkpt><trkpt lat="42.7697731" lon="12.4155134"><ele>177.0</ele><time>2026-04-18T11:55:21.002Z</time></trkpt><trkpt lat="42.7697118" lon="12.4153849"><ele>176.0</ele><time>2026-04-18T11:55:21.98Z</time></trkpt><trkpt lat="42.7696598" lon="12.4152442"><ele>175.0</ele><time>2026-04-18T11:55:22.988Z</time></trkpt><trkpt lat="42.7696034" lon="12.4151108"><ele>174.5</ele><time>2026-04-18T11:55:23.984Z</time></trkpt><trkpt lat="42.7695371" lon="12.4149889"><ele>174.0</ele><time>2026-04-18T11:55:24.98Z</time></trkpt><trkpt lat="42.7694499" lon="12.4148614"><ele>173.5</ele><time>2026-04-18T11:55:25.987Z</time></trkpt><trkpt lat="42.7693579" lon="12.4147381"><ele>173.0</ele><time>2026-04-18T11:55:26.977Z</time></trkpt><trkpt lat="42.7692709" lon="12.4146407"><ele>171.60000000000002</ele><time>2026-04-18T11:55:27.978Z</time></trkpt><trkpt lat="42.7691983" lon="12.414561"><ele>170.20000000000002</ele><time>2026-04-18T11:55:28.984Z</time></trkpt><trkpt lat="42.7691315" lon="12.4144893"><ele>168.8</ele><time>2026-04-18T11:55:29.998Z</time></trkpt><trkpt lat="42.7690829" lon="12.4144088"><ele>167.4</ele><time>2026-04-18T11:55:30.975Z</time></trkpt><trkpt lat="42.7690198" lon="12.4142865"><ele>166.0</ele><time>2026-04-18T11:55:33.01Z</time></trkpt><trkpt lat="42.7689514" lon="12.4142153"><ele>166.0</ele><time>2026-04-18T11:55:36.993Z</time></trkpt><trkpt lat="42.7688341" lon="12.4142795"><ele>166.0</ele><time>2026-04-18T11:55:38.991Z</time></trkpt><trkpt lat="42.7687535" lon="12.4143334"><ele>166.0</ele><time>2026-04-18T11:55:39.976Z</time></trkpt><trkpt lat="42.7686526" lon="12.4144012"><ele>166.0</ele><time>2026-04-18T11:55:40.974Z</time></trkpt><trkpt lat="42.7685457" lon="12.4144776"><ele>166.0</ele><time>2026-04-18T11:55:41.982Z</time></trkpt><trkpt lat="42.7684252" lon="12.4145641"><ele>166.5</ele><time>2026-04-18T11:55:42.976Z</time></trkpt><trkpt lat="42.7682892" lon="12.4146573"><ele>167.0</ele><time>2026-04-18T11:55:43.993Z</time></trkpt><trkpt lat="42.7681525" lon="12.414738"><ele>167.5</ele><time>2026-04-18T11:55:44.985Z</time></trkpt><trkpt lat="42.7680194" lon="12.4148082"><ele>168.0</ele><time>2026-04-18T11:55:45.985Z</time></trkpt><trkpt lat="42.7678822" lon="12.4148729"><ele>168.0</ele><time>2026-04-18T11:55:46.998Z</time></trkpt><trkpt lat="42.7677405" lon="12.4149253"><ele>168.0</ele><time>2026-04-18T11:55:48.01Z</time></trkpt><trkpt lat="42.7675995" lon="12.4149592"><ele>168.0</ele><time>2026-04-18T11:55:48.978Z</time></trkpt><trkpt lat="42.7674621" lon="12.4149893"><ele>168.0</ele><time>2026-04-18T11:55:49.992Z</time></trkpt><trkpt lat="42.7673356" lon="12.4150016"><ele>168.0</ele><time>2026-04-18T11:55:51.01Z</time></trkpt><trkpt lat="42.7672284" lon="12.4149992"><ele>168.0</ele><time>2026-04-18T11:55:51.998Z</time></trkpt><trkpt lat="42.7671293" lon="12.4149759"><ele>168.0</ele><time>2026-04-18T11:55:52.993Z</time></trkpt><trkpt lat="42.7670342" lon="12.4149398"><ele>168.0</ele><time>2026-04-18T11:55:54Z</time></trkpt><trkpt lat="42.7669437" lon="12.4148866"><ele>168.0</ele><time>2026-04-18T11:55:55.002Z</time></trkpt><trkpt lat="42.7668539" lon="12.4147981"><ele>167.4</ele><time>2026-04-18T11:55:56.018Z</time></trkpt><trkpt lat="42.7667593" lon="12.4147031"><ele>166.8</ele><time>2026-04-18T11:55:57.004Z</time></trkpt><trkpt lat="42.7666711" lon="12.4146083"><ele>166.2</ele><time>2026-04-18T11:55:58.009Z</time></trkpt><trkpt lat="42.7665899" lon="12.4145109"><ele>165.6</ele><time>2026-04-18T11:55:58.986Z</time></trkpt><trkpt lat="42.7665095" lon="12.4144136"><ele>165.0</ele><time>2026-04-18T11:55:59.988Z</time></trkpt><trkpt lat="42.7664349" lon="12.4143134"><ele>164.6</ele><time>2026-04-18T11:56:00.986Z</time></trkpt><trkpt lat="42.7663532" lon="12.4142156"><ele>164.2</ele><time>2026-04-18T11:56:02.012Z</time></trkpt><trkpt lat="42.7662705" lon="12.4141135"><ele>163.8</ele><time>2026-04-18T11:56:02.993Z</time></trkpt><trkpt lat="42.7661878" lon="12.4140178"><ele>163.4</ele><time>2026-04-18T11:56:04.001Z</time></trkpt><trkpt lat="42.7661021" lon="12.4139314"><ele>163.0</ele><time>2026-04-18T11:56:04.978Z</time></trkpt><trkpt lat="42.7660019" lon="12.4138521"><ele>162.75</ele><time>2026-04-18T11:56:05.983Z</time></trkpt><trkpt lat="42.7658936" lon="12.4137714"><ele>162.5</ele><time>2026-04-18T11:56:06.977Z</time></trkpt><trkpt lat="42.7657833" lon="12.4136907"><ele>162.25</ele><time>2026-04-18T11:56:07.989Z</time></trkpt><trkpt lat="42.7656564" lon="12.4136004"><ele>162.0</ele><time>2026-04-18T11:56:08.976Z</time></trkpt><trkpt lat="42.765516" lon="12.4135017"><ele>162.0</ele><time>2026-04-18T11:56:09.968Z</time></trkpt><trkpt lat="42.7653592" lon="12.4134072"><ele>162.0</ele><time>2026-04-18T11:56:10.991Z</time></trkpt><trkpt lat="42.765193" lon="12.4133157"><ele>162.0</ele><time>2026-04-18T11:56:11.991Z</time></trkpt><trkpt lat="42.7650269" lon="12.413226"><ele>162.0</ele><time>2026-04-18T11:56:12.973Z</time></trkpt><trkpt lat="42.7648613" lon="12.4131446"><ele>162.0</ele><time>2026-04-18T11:56:13.989Z</time></trkpt><trkpt lat="42.7646882" lon="12.4130693"><ele>162.0</ele><time>2026-04-18T11:56:14.982Z</time></trkpt><trkpt lat="42.764507" lon="12.4130046"><ele>162.0</ele><time>2026-04-18T11:56:15.987Z</time></trkpt><trkpt lat="42.7643187" lon="12.4129674"><ele>162.0</ele><time>2026-04-18T11:56:16.972Z</time></trkpt><trkpt lat="42.7641258" lon="12.4129565"><ele>162.0</ele><time>2026-04-18T11:56:17.974Z</time></trkpt><trkpt lat="42.7639307" lon="12.4129653"><ele>162.0</ele><time>2026-04-18T11:56:18.999Z</time></trkpt><trkpt lat="42.7637294" lon="12.4129767"><ele>162.0</ele><time>2026-04-18T11:56:19.987Z</time></trkpt><trkpt lat="42.7635311" lon="12.4129822"><ele>162.0</ele><time>2026-04-18T11:56:20.99Z</time></trkpt><trkpt lat="42.7633295" lon="12.4129827"><ele>162.0</ele><time>2026-04-18T11:56:21.972Z</time></trkpt><trkpt lat="42.7631296" lon="12.4129801"><ele>162.0</ele><time>2026-04-18T11:56:22.971Z</time></trkpt><trkpt lat="42.7629297" lon="12.4129744"><ele>162.0</ele><time>2026-04-18T11:56:23.988Z</time></trkpt><trkpt lat="42.7627341" lon="12.4129613"><ele>162.66666666666666</ele><time>2026-04-18T11:56:24.977Z</time></trkpt><trkpt lat="42.7625553" lon="12.4129476"><ele>163.33333333333331</ele><time>2026-04-18T11:56:25.972Z</time></trkpt><trkpt lat="42.7623917" lon="12.4129511"><ele>164.0</ele><time>2026-04-18T11:56:26.975Z</time></trkpt><trkpt lat="42.7622411" lon="12.4129643"><ele>164.0</ele><time>2026-04-18T11:56:27.977Z</time></trkpt><trkpt lat="42.7621036" lon="12.4129834"><ele>164.0</ele><time>2026-04-18T11:56:28.986Z</time></trkpt><trkpt lat="42.7619746" lon="12.4130098"><ele>164.0</ele><time>2026-04-18T11:56:29.986Z</time></trkpt><trkpt lat="42.7618558" lon="12.4130416"><ele>164.0</ele><time>2026-04-18T11:56:30.985Z</time></trkpt><trkpt lat="42.7617531" lon="12.4130641"><ele>164.6</ele><time>2026-04-18T11:56:32.008Z</time></trkpt><trkpt lat="42.7616658" lon="12.4130622"><ele>165.2</ele><time>2026-04-18T11:56:32.983Z</time></trkpt><trkpt lat="42.761595" lon="12.4130121"><ele>165.79999999999998</ele><time>2026-04-18T11:56:33.991Z</time></trkpt><trkpt lat="42.7615338" lon="12.4129201"><ele>166.39999999999998</ele><time>2026-04-18T11:56:34.983Z</time></trkpt><trkpt lat="42.7614724" lon="12.4127922"><ele>167.0</ele><time>2026-04-18T11:56:35.997Z</time></trkpt><trkpt lat="42.7613958" lon="12.4126458"><ele>167.33333333333331</ele><time>2026-04-18T11:56:36.984Z</time></trkpt><trkpt lat="42.7613122" lon="12.4124785"><ele>167.66666666666666</ele><time>2026-04-18T11:56:37.991Z</time></trkpt><trkpt lat="42.7612277" lon="12.4123027"><ele>168.0</ele><time>2026-04-18T11:56:38.98Z</time></trkpt><trkpt lat="42.761131" lon="12.4121058"><ele>168.0</ele><time>2026-04-18T11:56:39.988Z</time></trkpt><trkpt lat="42.7610367" lon="12.4119049"><ele>168.0</ele><time>2026-04-18T11:56:40.988Z</time></trkpt><trkpt lat="42.7609633" lon="12.4117182"><ele>168.0</ele><time>2026-04-18T11:56:41.989Z</time></trkpt><trkpt lat="42.7608937" lon="12.4115579"><ele>168.0</ele><time>2026-04-18T11:56:42.989Z</time></trkpt><trkpt lat="42.7608252" lon="12.4114092"><ele>168.0</ele><time>2026-04-18T11:56:43.983Z</time></trkpt><trkpt lat="42.7607539" lon="12.4112693"><ele>168.0</ele><time>2026-04-18T11:56:44.977Z</time></trkpt><trkpt lat="42.7606535" lon="12.411143"><ele>168.0</ele><time>2026-04-18T11:56:45.989Z</time></trkpt><trkpt lat="42.7605289" lon="12.4110677"><ele>168.0</ele><time>2026-04-18T11:56:46.995Z</time></trkpt><trkpt lat="42.7603708" lon="12.4110246"><ele>168.0</ele><time>2026-04-18T11:56:47.988Z</time></trkpt><trkpt lat="42.7601972" lon="12.4110085"><ele>168.0</ele><time>2026-04-18T11:56:48.994Z</time></trkpt><trkpt lat="42.7600159" lon="12.4110036"><ele>168.33333333333334</ele><time>2026-04-18T11:56:49.973Z</time></trkpt><trkpt lat="42.7598211" lon="12.4109998"><ele>168.66666666666669</ele><time>2026-04-18T11:56:50.986Z</time></trkpt><trkpt lat="42.759609" lon="12.4109896"><ele>169.0</ele><time>2026-04-18T11:56:51.977Z</time></trkpt><trkpt lat="42.7593952" lon="12.4109783"><ele>169.33333333333334</ele><time>2026-04-18T11:56:52.972Z</time></trkpt><trkpt lat="42.7591816" lon="12.4109686"><ele>169.66666666666666</ele><time>2026-04-18T11:56:53.984Z</time></trkpt><trkpt lat="42.7589634" lon="12.4109519"><ele>170.0</ele><time>2026-04-18T11:56:54.972Z</time></trkpt><trkpt lat="42.7587403" lon="12.4109319"><ele>170.33333333333331</ele><time>2026-04-18T11:56:55.991Z</time></trkpt><trkpt lat="42.7585185" lon="12.4109076"><ele>170.66666666666666</ele><time>2026-04-18T11:56:56.986Z</time></trkpt><trkpt lat="42.7582987" lon="12.4108747"><ele>171.0</ele><time>2026-04-18T11:56:57.978Z</time></trkpt><trkpt lat="42.7580856" lon="12.4108313"><ele>171.0</ele><time>2026-04-18T11:56:58.985Z</time></trkpt><trkpt lat="42.7578824" lon="12.4107876"><ele>171.0</ele><time>2026-04-18T11:56:59.989Z</time></trkpt><trkpt lat="42.7576858" lon="12.4107449"><ele>171.0</ele><time>2026-04-18T11:57:00.976Z</time></trkpt><trkpt lat="42.7574954" lon="12.4107078"><ele>171.0</ele><time>2026-04-18T11:57:01.972Z</time></trkpt><trkpt lat="42.7572964" lon="12.4107083"><ele>171.0</ele><time>2026-04-18T11:57:02.992Z</time></trkpt><trkpt lat="42.7570921" lon="12.4107404"><ele>171.0</ele><time>2026-04-18T11:57:03.986Z</time></trkpt><trkpt lat="42.7568865" lon="12.4107801"><ele>171.66666666666666</ele><time>2026-04-18T11:57:04.974Z</time></trkpt><trkpt lat="42.7566859" lon="12.4108161"><ele>172.33333333333331</ele><time>2026-04-18T11:57:05.983Z</time></trkpt><trkpt lat="42.7564888" lon="12.4108342"><ele>173.0</ele><time>2026-04-18T11:57:06.985Z</time></trkpt><trkpt lat="42.7562878" lon="12.4108446"><ele>173.0</ele><time>2026-04-18T11:57:07.983Z</time></trkpt><trkpt lat="42.7560857" lon="12.4108793"><ele>173.0</ele><time>2026-04-18T11:57:08.985Z</time></trkpt><trkpt lat="42.7558911" lon="12.4109461"><ele>173.0</ele><time>2026-04-18T11:57:09.972Z</time></trkpt><trkpt lat="42.7557161" lon="12.4110319"><ele>174.0</ele><time>2026-04-18T11:57:10.972Z</time></trkpt><trkpt lat="42.755546" lon="12.4110998"><ele>175.0</ele><time>2026-04-18T11:57:11.97Z</time></trkpt><trkpt lat="42.7553793" lon="12.4111323"><ele>176.0</ele><time>2026-04-18T11:57:12.985Z</time></trkpt><trkpt lat="42.7552066" lon="12.4111279"><ele>176.33333333333331</ele><time>2026-04-18T11:57:13.982Z</time></trkpt><trkpt lat="42.7550279" lon="12.4111041"><ele>176.66666666666666</ele><time>2026-04-18T11:57:14.97Z</time></trkpt><trkpt lat="42.754842" lon="12.4110633"><ele>177.0</ele><time>2026-04-18T11:57:15.983Z</time></trkpt><trkpt lat="42.7546568" lon="12.4110107"><ele>177.0</ele><time>2026-04-18T11:57:16.986Z</time></trkpt><trkpt lat="42.7544694" lon="12.410943"><ele>177.0</ele><time>2026-04-18T11:57:17.979Z</time></trkpt><trkpt lat="42.7542798" lon="12.4108763"><ele>177.0</ele><time>2026-04-18T11:57:18.972Z</time></trkpt><trkpt lat="42.7541028" lon="12.410802"><ele>177.0</ele><time>2026-04-18T11:57:19.985Z</time></trkpt><trkpt lat="42.753945" lon="12.4107356"><ele>177.0</ele><time>2026-04-18T11:57:20.975Z</time></trkpt><trkpt lat="42.7537921" lon="12.4106801"><ele>177.0</ele><time>2026-04-18T11:57:21.989Z</time></trkpt><trkpt lat="42.7536314" lon="12.4106477"><ele>177.66666666666666</ele><time>2026-04-18T11:57:22.978Z</time></trkpt><trkpt lat="42.7534649" lon="12.4106477"><ele>178.33333333333331</ele><time>2026-04-18T11:57:23.977Z</time></trkpt><trkpt lat="42.753291" lon="12.4106995"><ele>179.0</ele><time>2026-04-18T11:57:24.973Z</time></trkpt><trkpt lat="42.7531135" lon="12.4107738"><ele>179.0</ele><time>2026-04-18T11:57:25.971Z</time></trkpt><trkpt lat="42.7529349" lon="12.4108389"><ele>179.0</ele><time>2026-04-18T11:57:26.98Z</time></trkpt><trkpt lat="42.7527541" lon="12.410899"><ele>179.0</ele><time>2026-04-18T11:57:27.981Z</time></trkpt><trkpt lat="42.7525877" lon="12.410955"><ele>180.0</ele><time>2026-04-18T11:57:28.973Z</time></trkpt><trkpt lat="42.7524344" lon="12.4110075"><ele>181.0</ele><time>2026-04-18T11:57:29.981Z</time></trkpt><trkpt lat="42.7522805" lon="12.4110352"><ele>182.0</ele><time>2026-04-18T11:57:30.975Z</time></trkpt><trkpt lat="42.7521235" lon="12.4110305"><ele>182.0</ele><time>2026-04-18T11:57:31.985Z</time></trkpt><trkpt lat="42.7519706" lon="12.4109998"><ele>182.0</ele><time>2026-04-18T11:57:32.989Z</time></trkpt><trkpt lat="42.7518092" lon="12.4109539"><ele>182.0</ele><time>2026-04-18T11:57:33.978Z</time></trkpt><trkpt lat="42.7516486" lon="12.4108886"><ele>182.33333333333331</ele><time>2026-04-18T11:57:34.976Z</time></trkpt><trkpt lat="42.7514861" lon="12.4107791"><ele>182.66666666666666</ele><time>2026-04-18T11:57:35.972Z</time></trkpt><trkpt lat="42.7513271" lon="12.4106476"><ele>183.0</ele><time>2026-04-18T11:57:36.989Z</time></trkpt><trkpt lat="42.751163" lon="12.4105089"><ele>183.0</ele><time>2026-04-18T11:57:37.978Z</time></trkpt><trkpt lat="42.7509917" lon="12.4103825"><ele>183.0</ele><time>2026-04-18T11:57:38.977Z</time></trkpt><trkpt lat="42.7508256" lon="12.4102701"><ele>183.0</ele><time>2026-04-18T11:57:39.976Z</time></trkpt><trkpt lat="42.7506603" lon="12.4101818"><ele>183.0</ele><time>2026-04-18T11:57:40.977Z</time></trkpt><trkpt lat="42.7504916" lon="12.4101165"><ele>183.0</ele><time>2026-04-18T11:57:41.985Z</time></trkpt><trkpt lat="42.7503137" lon="12.4100786"><ele>183.0</ele><time>2026-04-18T11:57:42.997Z</time></trkpt><trkpt lat="42.7501371" lon="12.4100593"><ele>183.66666666666666</ele><time>2026-04-18T11:57:43.985Z</time></trkpt><trkpt lat="42.7499566" lon="12.4100416"><ele>184.33333333333331</ele><time>2026-04-18T11:57:44.984Z</time></trkpt><trkpt lat="42.7497779" lon="12.4100271"><ele>185.0</ele><time>2026-04-18T11:57:45.984Z</time></trkpt><trkpt lat="42.749602" lon="12.4100054"><ele>185.0</ele><time>2026-04-18T11:57:46.979Z</time></trkpt><trkpt lat="42.7494364" lon="12.4099696"><ele>185.0</ele><time>2026-04-18T11:57:47.977Z</time></trkpt><trkpt lat="42.7492816" lon="12.4099148"><ele>185.0</ele><time>2026-04-18T11:57:48.991Z</time></trkpt><trkpt lat="42.7491298" lon="12.4098401"><ele>186.66666666666666</ele><time>2026-04-18T11:57:49.995Z</time></trkpt><trkpt lat="42.7489806" lon="12.409752"><ele>188.33333333333334</ele><time>2026-04-18T11:57:50.972Z</time></trkpt><trkpt lat="42.7488487" lon="12.409627"><ele>190.0</ele><time>2026-04-18T11:57:51.98Z</time></trkpt><trkpt lat="42.7487445" lon="12.4094858"><ele>190.6</ele><time>2026-04-18T11:57:52.984Z</time></trkpt><trkpt lat="42.748662" lon="12.4093517"><ele>191.2</ele><time>2026-04-18T11:57:53.967Z</time></trkpt><trkpt lat="42.7485836" lon="12.4092469"><ele>191.8</ele><time>2026-04-18T11:57:54.991Z</time></trkpt><trkpt lat="42.7485074" lon="12.4091718"><ele>192.4</ele><time>2026-04-18T11:57:55.977Z</time></trkpt><trkpt lat="42.7484179" lon="12.4091289"><ele>193.0</ele><time>2026-04-18T11:57:56.989Z</time></trkpt><trkpt lat="42.7482962" lon="12.409161"><ele>195.0</ele><time>2026-04-18T11:57:57.973Z</time></trkpt><trkpt lat="42.7481824" lon="12.4092507"><ele>197.0</ele><time>2026-04-18T11:57:58.979Z</time></trkpt><trkpt lat="42.7480661" lon="12.4093512"><ele>199.0</ele><time>2026-04-18T11:57:59.98Z</time></trkpt><trkpt lat="42.7479415" lon="12.4094247"><ele>201.0</ele><time>2026-04-18T11:58:00.979Z</time></trkpt><trkpt lat="42.7478073" lon="12.4094606"><ele>203.75</ele><time>2026-04-18T11:58:01.983Z</time></trkpt><trkpt lat="42.7476692" lon="12.40947"><ele>206.5</ele><time>2026-04-18T11:58:02.966Z</time></trkpt><trkpt lat="42.747526" lon="12.4094817"><ele>209.25</ele><time>2026-04-18T11:58:03.99Z</time></trkpt><trkpt lat="42.7473706" lon="12.4094939"><ele>212.0</ele><time>2026-04-18T11:58:04.986Z</time></trkpt><trkpt lat="42.7472196" lon="12.4094957"><ele>212.0</ele><time>2026-04-18T11:58:05.975Z</time></trkpt><trkpt lat="42.7470642" lon="12.4094962"><ele>212.0</ele><time>2026-04-18T11:58:06.975Z</time></trkpt><trkpt lat="42.7469124" lon="12.4094996"><ele>212.0</ele><time>2026-04-18T11:58:07.976Z</time></trkpt><trkpt lat="42.7467659" lon="12.4095009"><ele>212.0</ele><time>2026-04-18T11:58:08.981Z</time></trkpt><trkpt lat="42.7466312" lon="12.4094928"><ele>212.0</ele><time>2026-04-18T11:58:09.995Z</time></trkpt><trkpt lat="42.7465079" lon="12.4094687"><ele>212.0</ele><time>2026-04-18T11:58:10.989Z</time></trkpt><trkpt lat="42.746399" lon="12.4094402"><ele>212.0</ele><time>2026-04-18T11:58:12.004Z</time></trkpt><trkpt lat="42.7462965" lon="12.409404"><ele>212.0</ele><time>2026-04-18T11:58:12.985Z</time></trkpt><trkpt lat="42.7461984" lon="12.4093598"><ele>212.0</ele><time>2026-04-18T11:58:13.979Z</time></trkpt><trkpt lat="42.7461032" lon="12.4092992"><ele>212.0</ele><time>2026-04-18T11:58:14.992Z</time></trkpt><trkpt lat="42.7460166" lon="12.4092114"><ele>212.0</ele><time>2026-04-18T11:58:15.981Z</time></trkpt><trkpt lat="42.7459443" lon="12.4091048"><ele>212.0</ele><time>2026-04-18T11:58:16.98Z</time></trkpt><trkpt lat="42.7458805" lon="12.4089932"><ele>211.25</ele><time>2026-04-18T11:58:17.98Z</time></trkpt><trkpt lat="42.7458373" lon="12.4088458"><ele>210.5</ele><time>2026-04-18T11:58:18.984Z</time></trkpt><trkpt lat="42.7458143" lon="12.4086667"><ele>209.75</ele><time>2026-04-18T11:58:19.978Z</time></trkpt><trkpt lat="42.7458112" lon="12.4084998"><ele>209.0</ele><time>2026-04-18T11:58:20.987Z</time></trkpt><trkpt lat="42.7458083" lon="12.4083529"><ele>209.0</ele><time>2026-04-18T11:58:21.976Z</time></trkpt><trkpt lat="42.7457955" lon="12.4082146"><ele>209.0</ele><time>2026-04-18T11:58:23.001Z</time></trkpt><trkpt lat="42.7457721" lon="12.4080723"><ele>209.0</ele><time>2026-04-18T11:58:23.971Z</time></trkpt><trkpt lat="42.7457413" lon="12.4079271"><ele>209.0</ele><time>2026-04-18T11:58:24.973Z</time></trkpt><trkpt lat="42.745706" lon="12.407775"><ele>209.0</ele><time>2026-04-18T11:58:25.983Z</time></trkpt><trkpt lat="42.7456654" lon="12.4076225"><ele>210.79999999999998</ele><time>2026-04-18T11:58:26.984Z</time></trkpt><trkpt lat="42.7456271" lon="12.4074665"><ele>212.6</ele><time>2026-04-18T11:58:27.982Z</time></trkpt><trkpt lat="42.7455849" lon="12.4073216"><ele>214.4</ele><time>2026-04-18T11:58:28.974Z</time></trkpt><trkpt lat="42.7455366" lon="12.407184"><ele>216.2</ele><time>2026-04-18T11:58:29.975Z</time></trkpt><trkpt lat="42.7454881" lon="12.4070712"><ele>218.0</ele><time>2026-04-18T11:58:30.962Z</time></trkpt><trkpt lat="42.7454346" lon="12.4069643"><ele>216.60000000000002</ele><time>2026-04-18T11:58:31.985Z</time></trkpt><trkpt lat="42.7453665" lon="12.4068674"><ele>215.20000000000002</ele><time>2026-04-18T11:58:33.002Z</time></trkpt><trkpt lat="42.745292" lon="12.4067862"><ele>213.8</ele><time>2026-04-18T11:58:33.98Z</time></trkpt><trkpt lat="42.7452135" lon="12.4067135"><ele>212.4</ele><time>2026-04-18T11:58:34.979Z</time></trkpt><trkpt lat="42.7451306" lon="12.4066305"><ele>211.0</ele><time>2026-04-18T11:58:35.999Z</time></trkpt><trkpt lat="42.7450534" lon="12.4065492"><ele>211.0</ele><time>2026-04-18T11:58:36.987Z</time></trkpt><trkpt lat="42.7449798" lon="12.4064686"><ele>211.0</ele><time>2026-04-18T11:58:37.983Z</time></trkpt><trkpt lat="42.7448989" lon="12.4063747"><ele>211.0</ele><time>2026-04-18T11:58:38.974Z</time></trkpt><trkpt lat="42.7448081" lon="12.4062768"><ele>211.0</ele><time>2026-04-18T11:58:39.988Z</time></trkpt><trkpt lat="42.7447063" lon="12.406176"><ele>211.0</ele><time>2026-04-18T11:58:40.98Z</time></trkpt><trkpt lat="42.744602" lon="12.4060668"><ele>211.25</ele><time>2026-04-18T11:58:41.983Z</time></trkpt><trkpt lat="42.7444995" lon="12.405954"><ele>211.5</ele><time>2026-04-18T11:58:42.999Z</time></trkpt><trkpt lat="42.7443983" lon="12.4058357"><ele>211.75</ele><time>2026-04-18T11:58:43.979Z</time></trkpt><trkpt lat="42.744285" lon="12.4057162"><ele>212.0</ele><time>2026-04-18T11:58:44.967Z</time></trkpt><trkpt lat="42.7441739" lon="12.4055914"><ele>213.75</ele><time>2026-04-18T11:58:45.977Z</time></trkpt><trkpt lat="42.7440636" lon="12.4054712"><ele>215.5</ele><time>2026-04-18T11:58:46.978Z</time></trkpt><trkpt lat="42.7439577" lon="12.4053614"><ele>217.25</ele><time>2026-04-18T11:58:47.985Z</time></trkpt><trkpt lat="42.7438586" lon="12.4052613"><ele>219.0</ele><time>2026-04-18T11:58:48.978Z</time></trkpt><trkpt lat="42.7437655" lon="12.4051751"><ele>219.0</ele><time>2026-04-18T11:58:49.976Z</time></trkpt><trkpt lat="42.7436738" lon="12.4051014"><ele>218.99999999999997</ele><time>2026-04-18T11:58:50.979Z</time></trkpt><trkpt lat="42.7435786" lon="12.4050315"><ele>218.99999999999997</ele><time>2026-04-18T11:58:51.99Z</time></trkpt><trkpt lat="42.7434764" lon="12.4049654"><ele>219.0</ele><time>2026-04-18T11:58:52.968Z</time></trkpt><trkpt lat="42.7433675" lon="12.4048975"><ele>219.0</ele><time>2026-04-18T11:58:53.981Z</time></trkpt><trkpt lat="42.7432708" lon="12.4048407"><ele>218.33333333333334</ele><time>2026-04-18T11:58:54.986Z</time></trkpt><trkpt lat="42.7431895" lon="12.4047932"><ele>217.66666666666669</ele><time>2026-04-18T11:58:55.981Z</time></trkpt><trkpt lat="42.7431137" lon="12.4047526"><ele>217.0</ele><time>2026-04-18T11:58:56.992Z</time></trkpt><trkpt lat="42.7430433" lon="12.4047124"><ele>216.33333333333334</ele><time>2026-04-18T11:58:57.982Z</time></trkpt><trkpt lat="42.7429735" lon="12.4046771"><ele>215.66666666666669</ele><time>2026-04-18T11:58:58.981Z</time></trkpt><trkpt lat="42.7429101" lon="12.4046452"><ele>215.0</ele><time>2026-04-18T11:58:59.982Z</time></trkpt><trkpt lat="42.7427973" lon="12.4045818"><ele>215.33333333333334</ele><time>2026-04-18T11:59:01.987Z</time></trkpt><trkpt lat="42.7427319" lon="12.4045428"><ele>215.66666666666669</ele><time>2026-04-18T11:59:02.978Z</time></trkpt><trkpt lat="42.7426639" lon="12.4044979"><ele>216.0</ele><time>2026-04-18T11:59:03.986Z</time></trkpt><trkpt lat="42.7426033" lon="12.4044648"><ele>216.33333333333331</ele><time>2026-04-18T11:59:04.98Z</time></trkpt><trkpt lat="42.7425058" lon="12.4043894"><ele>216.66666666666666</ele><time>2026-04-18T11:59:06.996Z</time></trkpt><trkpt lat="42.7424849" lon="12.4042486"><ele>217.0</ele><time>2026-04-18T11:59:08.983Z</time></trkpt><trkpt lat="42.7424945" lon="12.4041598"><ele>217.0</ele><time>2026-04-18T11:59:09.966Z</time></trkpt><trkpt lat="42.7424639" lon="12.4040232"><ele>217.0</ele><time>2026-04-18T11:59:11.982Z</time></trkpt><trkpt lat="42.7423397" lon="12.4039144"><ele>217.0</ele><time>2026-04-18T11:59:13.976Z</time></trkpt><trkpt lat="42.7422472" lon="12.4038343"><ele>217.0</ele><time>2026-04-18T11:59:14.981Z</time></trkpt><trkpt lat="42.742139" lon="12.4037297"><ele>218.39999999999998</ele><time>2026-04-18T11:59:15.971Z</time></trkpt><trkpt lat="42.7420352" lon="12.4036257"><ele>219.79999999999998</ele><time>2026-04-18T11:59:16.992Z</time></trkpt><trkpt lat="42.7419427" lon="12.4035363"><ele>221.2</ele><time>2026-04-18T11:59:17.99Z</time></trkpt><trkpt lat="42.7418748" lon="12.4034701"><ele>222.6</ele><time>2026-04-18T11:59:18.998Z</time></trkpt><trkpt lat="42.741826" lon="12.4034039"><ele>224.0</ele><time>2026-04-18T11:59:19.975Z</time></trkpt><trkpt lat="42.7417885" lon="12.4033277"><ele>224.0</ele><time>2026-04-18T11:59:20.986Z</time></trkpt><trkpt lat="42.7417712" lon="12.4032247"><ele>223.99999999999997</ele><time>2026-04-18T11:59:21.993Z</time></trkpt><trkpt lat="42.7417649" lon="12.4031085"><ele>223.99999999999997</ele><time>2026-04-18T11:59:22.978Z</time></trkpt><trkpt lat="42.7417568" lon="12.4029911"><ele>224.0</ele><time>2026-04-18T11:59:23.995Z</time></trkpt><trkpt lat="42.7417499" lon="12.4028589"><ele>224.0</ele><time>2026-04-18T11:59:24.983Z</time></trkpt><trkpt lat="42.7417383" lon="12.4027177"><ele>226.79999999999998</ele><time>2026-04-18T11:59:25.976Z</time></trkpt><trkpt lat="42.7417219" lon="12.4025783"><ele>229.59999999999997</ele><time>2026-04-18T11:59:27.001Z</time></trkpt><trkpt lat="42.7417112" lon="12.4024446"><ele>232.4</ele><time>2026-04-18T11:59:27.996Z</time></trkpt><trkpt lat="42.7417094" lon="12.4023229"><ele>235.2</ele><time>2026-04-18T11:59:28.996Z</time></trkpt><trkpt lat="42.7417282" lon="12.4022026"><ele>238.0</ele><time>2026-04-18T11:59:29.99Z</time></trkpt><trkpt lat="42.7417672" lon="12.4020653"><ele>238.60000000000002</ele><time>2026-04-18T11:59:30.962Z</time></trkpt><trkpt lat="42.7418047" lon="12.401926"><ele>239.20000000000002</ele><time>2026-04-18T11:59:31.99Z</time></trkpt><trkpt lat="42.7418383" lon="12.4017906"><ele>239.8</ele><time>2026-04-18T11:59:32.99Z</time></trkpt><trkpt lat="42.741872" lon="12.4016843"><ele>240.4</ele><time>2026-04-18T11:59:33.98Z</time></trkpt><trkpt lat="42.7418921" lon="12.401559"><ele>241.0</ele><time>2026-04-18T11:59:35.98Z</time></trkpt><trkpt lat="42.7418515" lon="12.4013953"><ele>244.8</ele><time>2026-04-18T11:59:37.981Z</time></trkpt><trkpt lat="42.741814" lon="12.4012878"><ele>248.60000000000002</ele><time>2026-04-18T11:59:38.98Z</time></trkpt><trkpt lat="42.7417836" lon="12.4011605"><ele>252.4</ele><time>2026-04-18T11:59:40.002Z</time></trkpt><trkpt lat="42.7417546" lon="12.4010116"><ele>256.2</ele><time>2026-04-18T11:59:41.011Z</time></trkpt><trkpt lat="42.7417243" lon="12.4008555"><ele>260.0</ele><time>2026-04-18T11:59:41.994Z</time></trkpt><trkpt lat="42.7417015" lon="12.4006954"><ele>260.0</ele><time>2026-04-18T11:59:42.969Z</time></trkpt><trkpt lat="42.7416671" lon="12.4005452"><ele>260.0</ele><time>2026-04-18T11:59:43.997Z</time></trkpt><trkpt lat="42.7416355" lon="12.4003843"><ele>260.0</ele><time>2026-04-18T11:59:44.989Z</time></trkpt><trkpt lat="42.7415987" lon="12.4002259"><ele>260.0</ele><time>2026-04-18T11:59:45.983Z</time></trkpt><trkpt lat="42.741551" lon="12.4000673"><ele>261.25</ele><time>2026-04-18T11:59:47.009Z</time></trkpt><trkpt lat="42.7414986" lon="12.3999135"><ele>262.5</ele><time>2026-04-18T11:59:47.989Z</time></trkpt><trkpt lat="42.7414517" lon="12.3997633"><ele>263.75</ele><time>2026-04-18T11:59:48.977Z</time></trkpt><trkpt lat="42.7414079" lon="12.399625"><ele>265.0</ele><time>2026-04-18T11:59:49.981Z</time></trkpt><trkpt lat="42.7413589" lon="12.3994957"><ele>265.5</ele><time>2026-04-18T11:59:50.969Z</time></trkpt><trkpt lat="42.7413065" lon="12.3993582"><ele>266.0</ele><time>2026-04-18T11:59:51.999Z</time></trkpt><trkpt lat="42.7412416" lon="12.3992057"><ele>266.5</ele><time>2026-04-18T11:59:52.987Z</time></trkpt><trkpt lat="42.7411779" lon="12.3990464"><ele>267.0</ele><time>2026-04-18T11:59:53.993Z</time></trkpt><trkpt lat="42.7411152" lon="12.3988971"><ele>267.3333333333333</ele><time>2026-04-18T11:59:54.986Z</time></trkpt><trkpt lat="42.7410639" lon="12.3987844"><ele>267.6666666666667</ele><time>2026-04-18T11:59:56Z</time></trkpt><trkpt lat="42.7410226" lon="12.3986954"><ele>268.0</ele><time>2026-04-18T11:59:56.982Z</time></trkpt><trkpt lat="42.7409774" lon="12.3986185"><ele>268.33333333333337</ele><time>2026-04-18T11:59:57.991Z</time></trkpt><trkpt lat="42.7408715" lon="12.3985465"><ele>268.6666666666667</ele><time>2026-04-18T11:59:59.978Z</time></trkpt><trkpt lat="42.7407935" lon="12.3985274"><ele>269.0</ele><time>2026-04-18T12:00:00.991Z</time></trkpt><trkpt lat="42.740702" lon="12.3985161"><ele>271.0</ele><time>2026-04-18T12:00:01.987Z</time></trkpt><trkpt lat="42.7405993" lon="12.3985123"><ele>273.0</ele><time>2026-04-18T12:00:02.99Z</time></trkpt><trkpt lat="42.7404988" lon="12.398514"><ele>275.0</ele><time>2026-04-18T12:00:03.986Z</time></trkpt><trkpt lat="42.7404055" lon="12.3985124"><ele>277.0</ele><time>2026-04-18T12:00:04.985Z</time></trkpt><trkpt lat="42.7403309" lon="12.3984927"><ele>279.0</ele><time>2026-04-18T12:00:05.985Z</time></trkpt><trkpt lat="42.740267" lon="12.3984529"><ele>281.0</ele><time>2026-04-18T12:00:06.983Z</time></trkpt><trkpt lat="42.7402022" lon="12.3983835"><ele>281.2</ele><time>2026-04-18T12:00:07.983Z</time></trkpt><trkpt lat="42.740117" lon="12.3982947"><ele>281.40000000000003</ele><time>2026-04-18T12:00:08.991Z</time></trkpt><trkpt lat="42.7400094" lon="12.3982068"><ele>281.6</ele><time>2026-04-18T12:00:09.982Z</time></trkpt><trkpt lat="42.7399161" lon="12.3981263"><ele>281.8</ele><time>2026-04-18T12:00:10.98Z</time></trkpt><trkpt lat="42.7398297" lon="12.3980551"><ele>282.0</ele><time>2026-04-18T12:00:11.983Z</time></trkpt><trkpt lat="42.7397673" lon="12.3979854"><ele>283.3333333333333</ele><time>2026-04-18T12:00:12.994Z</time></trkpt><trkpt lat="42.7397284" lon="12.3978992"><ele>284.6666666666667</ele><time>2026-04-18T12:00:13.992Z</time></trkpt><trkpt lat="42.739699" lon="12.3978029"><ele>286.0</ele><time>2026-04-18T12:00:14.972Z</time></trkpt><trkpt lat="42.7396802" lon="12.3976927"><ele>287.33333333333337</ele><time>2026-04-18T12:00:16.001Z</time></trkpt><trkpt lat="42.7396662" lon="12.39757"><ele>288.6666666666667</ele><time>2026-04-18T12:00:16.97Z</time></trkpt><trkpt lat="42.7396634" lon="12.3974375"><ele>290.0</ele><time>2026-04-18T12:00:17.979Z</time></trkpt><trkpt lat="42.739673" lon="12.397302"><ele>291.6</ele><time>2026-04-18T12:00:18.988Z</time></trkpt><trkpt lat="42.7396981" lon="12.3971577"><ele>293.2</ele><time>2026-04-18T12:00:19.975Z</time></trkpt><trkpt lat="42.7397379" lon="12.3970095"><ele>294.8</ele><time>2026-04-18T12:00:20.966Z</time></trkpt><trkpt lat="42.739768" lon="12.3968707"><ele>296.4</ele><time>2026-04-18T12:00:21.989Z</time></trkpt><trkpt lat="42.7397888" lon="12.3967635"><ele>298.0</ele><time>2026-04-18T12:00:22.973Z</time></trkpt><trkpt lat="42.7397946" lon="12.3966703"><ele>298.0</ele><time>2026-04-18T12:00:23.991Z</time></trkpt><trkpt lat="42.7397918" lon="12.3965719"><ele>298.0</ele><time>2026-04-18T12:00:24.99Z</time></trkpt><trkpt lat="42.7397917" lon="12.3964692"><ele>298.0</ele><time>2026-04-18T12:00:25.979Z</time></trkpt><trkpt lat="42.7397854" lon="12.396361"><ele>298.0</ele><time>2026-04-18T12:00:26.99Z</time></trkpt><trkpt lat="42.7397749" lon="12.3962584"><ele>298.0</ele><time>2026-04-18T12:00:27.984Z</time></trkpt><trkpt lat="42.7397653" lon="12.3961561"><ele>298.0</ele><time>2026-04-18T12:00:28.984Z</time></trkpt><trkpt lat="42.7397555" lon="12.3960516"><ele>299.2</ele><time>2026-04-18T12:00:29.992Z</time></trkpt><trkpt lat="42.7397466" lon="12.3959464"><ele>300.4</ele><time>2026-04-18T12:00:30.991Z</time></trkpt><trkpt lat="42.7397429" lon="12.3958397"><ele>301.59999999999997</ele><time>2026-04-18T12:00:31.977Z</time></trkpt><trkpt lat="42.7397451" lon="12.3957177"><ele>302.8</ele><time>2026-04-18T12:00:32.967Z</time></trkpt><trkpt lat="42.7397578" lon="12.3955754"><ele>304.0</ele><time>2026-04-18T12:00:33.971Z</time></trkpt><trkpt lat="42.7397768" lon="12.395424"><ele>304.8</ele><time>2026-04-18T12:00:34.987Z</time></trkpt><trkpt lat="42.7397836" lon="12.395288"><ele>305.59999999999997</ele><time>2026-04-18T12:00:35.982Z</time></trkpt><trkpt lat="42.7397859" lon="12.3951663"><ele>306.4</ele><time>2026-04-18T12:00:36.98Z</time></trkpt><trkpt lat="42.7397684" lon="12.3950531"><ele>307.2</ele><time>2026-04-18T12:00:37.991Z</time></trkpt><trkpt lat="42.7397246" lon="12.3949267"><ele>308.0</ele><time>2026-04-18T12:00:38.981Z</time></trkpt><trkpt lat="42.7396621" lon="12.3947846"><ele>309.0</ele><time>2026-04-18T12:00:39.978Z</time></trkpt><trkpt lat="42.7395953" lon="12.3946334"><ele>310.0</ele><time>2026-04-18T12:00:40.992Z</time></trkpt><trkpt lat="42.739529" lon="12.3944838"><ele>311.0</ele><time>2026-04-18T12:00:41.989Z</time></trkpt><trkpt lat="42.7394586" lon="12.3943317"><ele>312.0</ele><time>2026-04-18T12:00:42.988Z</time></trkpt><trkpt lat="42.7394" lon="12.3941828"><ele>312.5</ele><time>2026-04-18T12:00:43.982Z</time></trkpt><trkpt lat="42.7393511" lon="12.3940213"><ele>313.0</ele><time>2026-04-18T12:00:45.004Z</time></trkpt><trkpt lat="42.7393105" lon="12.3938477"><ele>313.5</ele><time>2026-04-18T12:00:45.99Z</time></trkpt><trkpt lat="42.7392755" lon="12.3936704"><ele>314.0</ele><time>2026-04-18T12:00:46.981Z</time></trkpt><trkpt lat="42.739243" lon="12.3935021"><ele>315.6</ele><time>2026-04-18T12:00:47.978Z</time></trkpt><trkpt lat="42.739214" lon="12.3933566"><ele>317.2</ele><time>2026-04-18T12:00:48.978Z</time></trkpt><trkpt lat="42.7391748" lon="12.3932261"><ele>318.8</ele><time>2026-04-18T12:00:49.99Z</time></trkpt><trkpt lat="42.739126" lon="12.3930979"><ele>320.40000000000003</ele><time>2026-04-18T12:00:50.976Z</time></trkpt><trkpt lat="42.7390662" lon="12.3929593"><ele>322.0</ele><time>2026-04-18T12:00:51.994Z</time></trkpt><trkpt lat="42.7390088" lon="12.3928095"><ele>324.25</ele><time>2026-04-18T12:00:53.001Z</time></trkpt><trkpt lat="42.7389475" lon="12.3926552"><ele>326.5</ele><time>2026-04-18T12:00:53.971Z</time></trkpt><trkpt lat="42.738893" lon="12.3925066"><ele>328.75</ele><time>2026-04-18T12:00:54.988Z</time></trkpt><trkpt lat="42.7388434" lon="12.3923685"><ele>331.0</ele><time>2026-04-18T12:00:55.988Z</time></trkpt><trkpt lat="42.738806" lon="12.3922177"><ele>333.25</ele><time>2026-04-18T12:00:56.987Z</time></trkpt><trkpt lat="42.7387747" lon="12.3920565"><ele>335.5</ele><time>2026-04-18T12:00:57.994Z</time></trkpt><trkpt lat="42.7387551" lon="12.3918896"><ele>337.75</ele><time>2026-04-18T12:00:58.981Z</time></trkpt><trkpt lat="42.7387385" lon="12.3917282"><ele>340.0</ele><time>2026-04-18T12:00:59.997Z</time></trkpt><trkpt lat="42.738726" lon="12.3915715"><ele>340.0</ele><time>2026-04-18T12:01:00.975Z</time></trkpt><trkpt lat="42.7387137" lon="12.3914095"><ele>340.0</ele><time>2026-04-18T12:01:01.972Z</time></trkpt><trkpt lat="42.7387015" lon="12.3912433"><ele>340.0</ele><time>2026-04-18T12:01:02.977Z</time></trkpt><trkpt lat="42.738692" lon="12.3910789"><ele>340.0</ele><time>2026-04-18T12:01:03.988Z</time></trkpt><trkpt lat="42.738684" lon="12.390921"><ele>342.2</ele><time>2026-04-18T12:01:04.979Z</time></trkpt><trkpt lat="42.7386806" lon="12.3907764"><ele>344.4</ele><time>2026-04-18T12:01:05.986Z</time></trkpt><trkpt lat="42.7386877" lon="12.3906292"><ele>346.6</ele><time>2026-04-18T12:01:06.991Z</time></trkpt><trkpt lat="42.7386923" lon="12.3904783"><ele>348.8</ele><time>2026-04-18T12:01:07.977Z</time></trkpt><trkpt lat="42.7386914" lon="12.3903277"><ele>351.0</ele><time>2026-04-18T12:01:08.99Z</time></trkpt><trkpt lat="42.7386877" lon="12.390173"><ele>352.3333333333333</ele><time>2026-04-18T12:01:09.978Z</time></trkpt><trkpt lat="42.7386701" lon="12.3900309"><ele>353.6666666666667</ele><time>2026-04-18T12:01:10.974Z</time></trkpt><trkpt lat="42.7386464" lon="12.3899032"><ele>355.0</ele><time>2026-04-18T12:01:11.978Z</time></trkpt><trkpt lat="42.7386175" lon="12.3897889"><ele>356.33333333333337</ele><time>2026-04-18T12:01:12.986Z</time></trkpt><trkpt lat="42.7385889" lon="12.3896967"><ele>357.6666666666667</ele><time>2026-04-18T12:01:13.984Z</time></trkpt><trkpt lat="42.7385617" lon="12.3896165"><ele>359.0</ele><time>2026-04-18T12:01:14.99Z</time></trkpt><trkpt lat="42.738507" lon="12.3894676"><ele>361.0</ele><time>2026-04-18T12:01:16.979Z</time></trkpt><trkpt lat="42.7384581" lon="12.3893202"><ele>363.0</ele><time>2026-04-18T12:01:18.976Z</time></trkpt><trkpt lat="42.7384489" lon="12.3891485"><ele>365.0</ele><time>2026-04-18T12:01:20.983Z</time></trkpt><trkpt lat="42.7384894" lon="12.3890581"><ele>367.0</ele><time>2026-04-18T12:01:21.993Z</time></trkpt><trkpt lat="42.7385376" lon="12.3889542"><ele>369.0</ele><time>2026-04-18T12:01:22.975Z</time></trkpt><trkpt lat="42.7385777" lon="12.3888599"><ele>370.0</ele><time>2026-04-18T12:01:23.97Z</time></trkpt><trkpt lat="42.7386027" lon="12.3887781"><ele>371.0</ele><time>2026-04-18T12:01:24.971Z</time></trkpt><trkpt lat="42.7386008" lon="12.3886831"><ele>372.0</ele><time>2026-04-18T12:01:26.975Z</time></trkpt><trkpt lat="42.7385361" lon="12.388606"><ele>373.0</ele><time>2026-04-18T12:01:28.99Z</time></trkpt><trkpt lat="42.7384857" lon="12.3885515"><ele>374.0</ele><time>2026-04-18T12:01:29.97Z</time></trkpt><trkpt lat="42.7384339" lon="12.3884868"><ele>375.0</ele><time>2026-04-18T12:01:30.995Z</time></trkpt><trkpt lat="42.7383831" lon="12.3884102"><ele>376.0</ele><time>2026-04-18T12:01:31.978Z</time></trkpt><trkpt lat="42.7383322" lon="12.3883489"><ele>377.4</ele><time>2026-04-18T12:01:32.978Z</time></trkpt><trkpt lat="42.7382406" lon="12.388271"><ele>378.8</ele><time>2026-04-18T12:01:35.002Z</time></trkpt><trkpt lat="42.7381358" lon="12.3881827"><ele>380.2</ele><time>2026-04-18T12:01:36.973Z</time></trkpt><trkpt lat="42.7380797" lon="12.3881424"><ele>381.59999999999997</ele><time>2026-04-18T12:01:37.972Z</time></trkpt><trkpt lat="42.7379616" lon="12.3880881"><ele>383.0</ele><time>2026-04-18T12:01:39.984Z</time></trkpt><trkpt lat="42.7378842" lon="12.388081"><ele>383.0</ele><time>2026-04-18T12:01:40.986Z</time></trkpt><trkpt lat="42.7378204" lon="12.3880735"><ele>383.0</ele><time>2026-04-18T12:01:41.98Z</time></trkpt><trkpt lat="42.7377501" lon="12.38797"><ele>383.0</ele><time>2026-04-18T12:01:43.969Z</time></trkpt><trkpt lat="42.7377321" lon="12.3878067"><ele>383.0</ele><time>2026-04-18T12:01:45.996Z</time></trkpt><trkpt lat="42.7377317" lon="12.3876993"><ele>383.0</ele><time>2026-04-18T12:01:46.976Z</time></trkpt><trkpt lat="42.7377421" lon="12.3875814"><ele>383.2</ele><time>2026-04-18T12:01:47.98Z</time></trkpt><trkpt lat="42.737774" lon="12.3874687"><ele>383.4</ele><time>2026-04-18T12:01:48.981Z</time></trkpt><trkpt lat="42.7378211" lon="12.3873769"><ele>383.59999999999997</ele><time>2026-04-18T12:01:49.977Z</time></trkpt><trkpt lat="42.73789" lon="12.3872994"><ele>383.79999999999995</ele><time>2026-04-18T12:01:50.961Z</time></trkpt><trkpt lat="42.7379718" lon="12.3872134"><ele>384.0</ele><time>2026-04-18T12:01:51.979Z</time></trkpt><trkpt lat="42.7380627" lon="12.3871156"><ele>385.25</ele><time>2026-04-18T12:01:52.996Z</time></trkpt><trkpt lat="42.738162" lon="12.3870088"><ele>386.5</ele><time>2026-04-18T12:01:53.991Z</time></trkpt><trkpt lat="42.7382695" lon="12.3868924"><ele>387.75</ele><time>2026-04-18T12:01:54.967Z</time></trkpt><trkpt lat="42.7383814" lon="12.3867743"><ele>389.0</ele><time>2026-04-18T12:01:55.987Z</time></trkpt><trkpt lat="42.7385006" lon="12.3866546"><ele>387.5</ele><time>2026-04-18T12:01:56.968Z</time></trkpt><trkpt lat="42.7386211" lon="12.3865352"><ele>386.0</ele><time>2026-04-18T12:01:57.972Z</time></trkpt><trkpt lat="42.7387385" lon="12.3864143"><ele>384.5</ele><time>2026-04-18T12:01:58.972Z</time></trkpt><trkpt lat="42.7388482" lon="12.3862845"><ele>383.0</ele><time>2026-04-18T12:01:59.989Z</time></trkpt><trkpt lat="42.7389579" lon="12.3861456"><ele>383.0</ele><time>2026-04-18T12:02:00.973Z</time></trkpt><trkpt lat="42.7391837" lon="12.3858501"><ele>383.0</ele><time>2026-04-18T12:02:02.977Z</time></trkpt><trkpt lat="42.7393034" lon="12.385704"><ele>382.33333333333337</ele><time>2026-04-18T12:02:03.978Z</time></trkpt><trkpt lat="42.739418" lon="12.3855527"><ele>381.6666666666667</ele><time>2026-04-18T12:02:04.968Z</time></trkpt><trkpt lat="42.7395327" lon="12.3853909"><ele>381.0</ele><time>2026-04-18T12:02:05.976Z</time></trkpt><trkpt lat="42.7396499" lon="12.3852337"><ele>381.0</ele><time>2026-04-18T12:02:06.971Z</time></trkpt><trkpt lat="42.7397644" lon="12.3850853"><ele>381.0</ele><time>2026-04-18T12:02:07.977Z</time></trkpt><trkpt lat="42.7398737" lon="12.3849475"><ele>381.0</ele><time>2026-04-18T12:02:09.006Z</time></trkpt><trkpt lat="42.7399749" lon="12.3848198"><ele>381.0</ele><time>2026-04-18T12:02:09.987Z</time></trkpt><trkpt lat="42.7400731" lon="12.3846963"><ele>380.0</ele><time>2026-04-18T12:02:10.979Z</time></trkpt><trkpt lat="42.7401666" lon="12.3845708"><ele>379.0</ele><time>2026-04-18T12:02:11.972Z</time></trkpt><trkpt lat="42.7402582" lon="12.3844468"><ele>378.0</ele><time>2026-04-18T12:02:12.977Z</time></trkpt><trkpt lat="42.7403401" lon="12.3842858"><ele>377.0</ele><time>2026-04-18T12:02:13.988Z</time></trkpt><trkpt lat="42.740411" lon="12.3840885"><ele>377.0</ele><time>2026-04-18T12:02:14.965Z</time></trkpt><trkpt lat="42.7404719" lon="12.3838744"><ele>377.0</ele><time>2026-04-18T12:02:15.988Z</time></trkpt><trkpt lat="42.7405263" lon="12.3836788"><ele>377.0</ele><time>2026-04-18T12:02:16.977Z</time></trkpt><trkpt lat="42.7405808" lon="12.3835045"><ele>378.25</ele><time>2026-04-18T12:02:17.973Z</time></trkpt><trkpt lat="42.7406268" lon="12.3833308"><ele>379.5</ele><time>2026-04-18T12:02:18.983Z</time></trkpt><trkpt lat="42.7406801" lon="12.3831549"><ele>380.75</ele><time>2026-04-18T12:02:19.999Z</time></trkpt><trkpt lat="42.7407445" lon="12.382984"><ele>382.0</ele><time>2026-04-18T12:02:20.988Z</time></trkpt><trkpt lat="42.7408238" lon="12.3828228"><ele>383.0</ele><time>2026-04-18T12:02:22.027Z</time></trkpt><trkpt lat="42.740921" lon="12.3826797"><ele>384.0</ele><time>2026-04-18T12:02:23.01Z</time></trkpt><trkpt lat="42.741039" lon="12.3825587"><ele>385.0</ele><time>2026-04-18T12:02:23.975Z</time></trkpt><trkpt lat="42.7411695" lon="12.3824361"><ele>386.0</ele><time>2026-04-18T12:02:24.97Z</time></trkpt><trkpt lat="42.7413006" lon="12.3823053"><ele>385.66666666666663</ele><time>2026-04-18T12:02:25.975Z</time></trkpt><trkpt lat="42.7414397" lon="12.38217"><ele>385.33333333333337</ele><time>2026-04-18T12:02:26.984Z</time></trkpt><trkpt lat="42.7415795" lon="12.3820355"><ele>385.0</ele><time>2026-04-18T12:02:27.988Z</time></trkpt><trkpt lat="42.7417162" lon="12.3818964"><ele>385.0</ele><time>2026-04-18T12:02:28.978Z</time></trkpt><trkpt lat="42.7418567" lon="12.3817581"><ele>385.0</ele><time>2026-04-18T12:02:30.007Z</time></trkpt><trkpt lat="42.7419945" lon="12.3816172"><ele>385.0</ele><time>2026-04-18T12:02:30.999Z</time></trkpt><trkpt lat="42.7421346" lon="12.3814788"><ele>384.33333333333337</ele><time>2026-04-18T12:02:31.971Z</time></trkpt><trkpt lat="42.7422702" lon="12.3813355"><ele>383.6666666666667</ele><time>2026-04-18T12:02:33.021Z</time></trkpt><trkpt lat="42.7423957" lon="12.3811947"><ele>383.0</ele><time>2026-04-18T12:02:33.988Z</time></trkpt><trkpt lat="42.7425132" lon="12.381055"><ele>383.0</ele><time>2026-04-18T12:02:34.974Z</time></trkpt><trkpt lat="42.7426226" lon="12.380914"><ele>383.0</ele><time>2026-04-18T12:02:35.969Z</time></trkpt><trkpt lat="42.7427279" lon="12.3807742"><ele>383.0</ele><time>2026-04-18T12:02:36.982Z</time></trkpt><trkpt lat="42.7428277" lon="12.3806571"><ele>383.0</ele><time>2026-04-18T12:02:37.993Z</time></trkpt><trkpt lat="42.7429156" lon="12.3805722"><ele>382.6666666666667</ele><time>2026-04-18T12:02:38.99Z</time></trkpt><trkpt lat="42.7429888" lon="12.3804965"><ele>382.33333333333337</ele><time>2026-04-18T12:02:39.971Z</time></trkpt><trkpt lat="42.7430444" lon="12.3804448"><ele>382.0</ele><time>2026-04-18T12:02:40.979Z</time></trkpt><trkpt lat="42.7431173" lon="12.3803791"><ele>381.6666666666667</ele><time>2026-04-18T12:02:42.966Z</time></trkpt><trkpt lat="42.7431801" lon="12.3803007"><ele>381.3333333333333</ele><time>2026-04-18T12:02:45.986Z</time></trkpt><trkpt lat="42.7431825" lon="12.3802067"><ele>381.0</ele><time>2026-04-18T12:02:47.989Z</time></trkpt><trkpt lat="42.7430875" lon="12.3801002"><ele>381.0</ele><time>2026-04-18T12:02:49.987Z</time></trkpt><trkpt lat="42.7430312" lon="12.3800442"><ele>381.0</ele><time>2026-04-18T12:02:51Z</time></trkpt><trkpt lat="42.7429903" lon="12.3799775"><ele>381.0</ele><time>2026-04-18T12:02:51.98Z</time></trkpt><trkpt lat="42.7429579" lon="12.3798533"><ele>381.0</ele><time>2026-04-18T12:02:53.967Z</time></trkpt><trkpt lat="42.742966" lon="12.3797277"><ele>381.0</ele><time>2026-04-18T12:02:55.978Z</time></trkpt><trkpt lat="42.7429957" lon="12.3796308"><ele>381.0</ele><time>2026-04-18T12:02:57.97Z</time></trkpt><trkpt lat="42.7430408" lon="12.3795223"><ele>381.0</ele><time>2026-04-18T12:03:00.97Z</time></trkpt><trkpt lat="42.7430312" lon="12.3794335"><ele>381.0</ele><time>2026-04-18T12:03:04.973Z</time></trkpt><trkpt lat="42.7429624" lon="12.3794398"><ele>381.0</ele><time>2026-04-18T12:03:07.968Z</time></trkpt><trkpt lat="42.7429577" lon="12.3795892"><ele>381.0</ele><time>2026-04-18T12:03:10.985Z</time></trkpt><trkpt lat="42.7429697" lon="12.379726"><ele>381.0</ele><time>2026-04-18T12:03:12.969Z</time></trkpt><trkpt lat="42.7429388" lon="12.3798189"><ele>381.0</ele><time>2026-04-18T12:03:14.977Z</time></trkpt><trkpt lat="42.7428545" lon="12.3797884"><ele>382.0</ele><time>2026-04-18T12:03:18.975Z</time></trkpt><trkpt lat="42.7427709" lon="12.3796276"><ele>383.0</ele><time>2026-04-18T12:03:20.978Z</time></trkpt><trkpt lat="42.7427286" lon="12.379531"><ele>384.0</ele><time>2026-04-18T12:03:21.987Z</time></trkpt><trkpt lat="42.7426751" lon="12.37942"><ele>385.0</ele><time>2026-04-18T12:03:22.982Z</time></trkpt><trkpt lat="42.7426186" lon="12.3793018"><ele>386.0</ele><time>2026-04-18T12:03:23.986Z</time></trkpt><trkpt lat="42.7425597" lon="12.3791832"><ele>387.0</ele><time>2026-04-18T12:03:25.005Z</time></trkpt><trkpt lat="42.7424956" lon="12.3790691"><ele>388.0</ele><time>2026-04-18T12:03:25.985Z</time></trkpt><trkpt lat="42.7424168" lon="12.3789568"><ele>389.0</ele><time>2026-04-18T12:03:26.977Z</time></trkpt><trkpt lat="42.7423313" lon="12.3788452"><ele>390.0</ele><time>2026-04-18T12:03:27.977Z</time></trkpt><trkpt lat="42.7422387" lon="12.3787264"><ele>390.0</ele><time>2026-04-18T12:03:29Z</time></trkpt><trkpt lat="42.7421446" lon="12.3786087"><ele>390.0</ele><time>2026-04-18T12:03:29.982Z</time></trkpt><trkpt lat="42.7420393" lon="12.3784841"><ele>390.0</ele><time>2026-04-18T12:03:30.993Z</time></trkpt><trkpt lat="42.7419305" lon="12.3783666"><ele>390.0</ele><time>2026-04-18T12:03:31.997Z</time></trkpt><trkpt lat="42.741823" lon="12.378242"><ele>392.66666666666663</ele><time>2026-04-18T12:03:32.972Z</time></trkpt><trkpt lat="42.7417138" lon="12.378106"><ele>395.3333333333333</ele><time>2026-04-18T12:03:33.996Z</time></trkpt><trkpt lat="42.7416034" lon="12.3779404"><ele>398.0</ele><time>2026-04-18T12:03:34.987Z</time></trkpt><trkpt lat="42.7415021" lon="12.3777608"><ele>398.0</ele><time>2026-04-18T12:03:35.99Z</time></trkpt><trkpt lat="42.7414073" lon="12.3775703"><ele>398.0</ele><time>2026-04-18T12:03:36.991Z</time></trkpt><trkpt lat="42.7413109" lon="12.3773696"><ele>398.0</ele><time>2026-04-18T12:03:37.992Z</time></trkpt><trkpt lat="42.7412169" lon="12.3771634"><ele>397.3333333333333</ele><time>2026-04-18T12:03:38.974Z</time></trkpt><trkpt lat="42.7411209" lon="12.3769566"><ele>396.66666666666663</ele><time>2026-04-18T12:03:39.984Z</time></trkpt><trkpt lat="42.7410193" lon="12.3767532"><ele>396.0</ele><time>2026-04-18T12:03:40.987Z</time></trkpt><trkpt lat="42.7409193" lon="12.3765456"><ele>400.0</ele><time>2026-04-18T12:03:41.99Z</time></trkpt><trkpt lat="42.7408227" lon="12.3763321"><ele>404.0</ele><time>2026-04-18T12:03:42.974Z</time></trkpt><trkpt lat="42.7407239" lon="12.3761153"><ele>408.0</ele><time>2026-04-18T12:03:43.989Z</time></trkpt><trkpt lat="42.740624" lon="12.3758927"><ele>408.0</ele><time>2026-04-18T12:03:45.001Z</time></trkpt><trkpt lat="42.7405224" lon="12.3756763"><ele>408.0</ele><time>2026-04-18T12:03:45.97Z</time></trkpt><trkpt lat="42.7404313" lon="12.3754724"><ele>408.0</ele><time>2026-04-18T12:03:46.984Z</time></trkpt><trkpt lat="42.7403669" lon="12.3752801"><ele>408.5</ele><time>2026-04-18T12:03:47.985Z</time></trkpt><trkpt lat="42.7403376" lon="12.3750905"><ele>409.0</ele><time>2026-04-18T12:03:48.985Z</time></trkpt><trkpt lat="42.7403472" lon="12.3749066"><ele>409.5</ele><time>2026-04-18T12:03:49.968Z</time></trkpt><trkpt lat="42.7403863" lon="12.3747356"><ele>410.0</ele><time>2026-04-18T12:03:51.058Z</time></trkpt><trkpt lat="42.7404421" lon="12.3745826"><ele>411.0</ele><time>2026-04-18T12:03:51.987Z</time></trkpt><trkpt lat="42.7404994" lon="12.3744419"><ele>412.0</ele><time>2026-04-18T12:03:52.966Z</time></trkpt><trkpt lat="42.7405471" lon="12.3743043"><ele>413.0</ele><time>2026-04-18T12:03:53.996Z</time></trkpt><trkpt lat="42.7405761" lon="12.3741679"><ele>414.0</ele><time>2026-04-18T12:03:54.987Z</time></trkpt><trkpt lat="42.7405885" lon="12.374028"><ele>415.0</ele><time>2026-04-18T12:03:55.98Z</time></trkpt><trkpt lat="42.7405738" lon="12.3738912"><ele>416.25</ele><time>2026-04-18T12:03:56.975Z</time></trkpt><trkpt lat="42.7405292" lon="12.3737489"><ele>417.5</ele><time>2026-04-18T12:03:57.968Z</time></trkpt><trkpt lat="42.7404606" lon="12.3736064"><ele>418.75</ele><time>2026-04-18T12:03:58.998Z</time></trkpt><trkpt lat="42.740379" lon="12.3734588"><ele>420.0</ele><time>2026-04-18T12:03:59.979Z</time></trkpt><trkpt lat="42.7402915" lon="12.373299"><ele>423.25</ele><time>2026-04-18T12:04:00.976Z</time></trkpt><trkpt lat="42.740211" lon="12.3731327"><ele>426.5</ele><time>2026-04-18T12:04:01.989Z</time></trkpt><trkpt lat="42.7401519" lon="12.3729498"><ele>429.75</ele><time>2026-04-18T12:04:02.973Z</time></trkpt><trkpt lat="42.7401228" lon="12.3727618"><ele>433.0</ele><time>2026-04-18T12:04:04.002Z</time></trkpt><trkpt lat="42.7401202" lon="12.3725771"><ele>433.5</ele><time>2026-04-18T12:04:05.01Z</time></trkpt><trkpt lat="42.7401548" lon="12.3723991"><ele>434.0</ele><time>2026-04-18T12:04:05.991Z</time></trkpt><trkpt lat="42.7402207" lon="12.3722267"><ele>434.5</ele><time>2026-04-18T12:04:06.987Z</time></trkpt><trkpt lat="42.7403068" lon="12.3720677"><ele>435.0</ele><time>2026-04-18T12:04:07.976Z</time></trkpt><trkpt lat="42.7404028" lon="12.3719065"><ele>433.0</ele><time>2026-04-18T12:04:08.969Z</time></trkpt><trkpt lat="42.7404992" lon="12.3717309"><ele>431.0</ele><time>2026-04-18T12:04:09.985Z</time></trkpt><trkpt lat="42.7405889" lon="12.371561"><ele>429.0</ele><time>2026-04-18T12:04:10.994Z</time></trkpt><trkpt lat="42.7406686" lon="12.3714008"><ele>431.25</ele><time>2026-04-18T12:04:11.983Z</time></trkpt><trkpt lat="42.7407407" lon="12.3712624"><ele>433.5</ele><time>2026-04-18T12:04:12.974Z</time></trkpt><trkpt lat="42.7408138" lon="12.3711288"><ele>435.75</ele><time>2026-04-18T12:04:13.979Z</time></trkpt><trkpt lat="42.7408928" lon="12.3709962"><ele>438.0</ele><time>2026-04-18T12:04:14.977Z</time></trkpt><trkpt lat="42.7409638" lon="12.3708666"><ele>438.0</ele><time>2026-04-18T12:04:15.979Z</time></trkpt><trkpt lat="42.741026" lon="12.3707433"><ele>437.99999999999994</ele><time>2026-04-18T12:04:16.985Z</time></trkpt><trkpt lat="42.7410784" lon="12.3706306"><ele>437.99999999999994</ele><time>2026-04-18T12:04:17.972Z</time></trkpt><trkpt lat="42.7411233" lon="12.3705267"><ele>438.0</ele><time>2026-04-18T12:04:18.987Z</time></trkpt><trkpt lat="42.7411589" lon="12.3704116"><ele>438.0</ele><time>2026-04-18T12:04:19.977Z</time></trkpt><trkpt lat="42.7411747" lon="12.3702922"><ele>438.2</ele><time>2026-04-18T12:04:20.976Z</time></trkpt><trkpt lat="42.7411702" lon="12.3701734"><ele>438.4</ele><time>2026-04-18T12:04:21.987Z</time></trkpt><trkpt lat="42.7411387" lon="12.3700751"><ele>438.59999999999997</ele><time>2026-04-18T12:04:22.973Z</time></trkpt><trkpt lat="42.7410637" lon="12.3700016"><ele>438.79999999999995</ele><time>2026-04-18T12:04:23.971Z</time></trkpt><trkpt lat="42.7409712" lon="12.369957"><ele>439.0</ele><time>2026-04-18T12:04:24.988Z</time></trkpt><trkpt lat="42.7408641" lon="12.3699399"><ele>439.0</ele><time>2026-04-18T12:04:25.977Z</time></trkpt><trkpt lat="42.7407642" lon="12.3699592"><ele>439.0</ele><time>2026-04-18T12:04:26.987Z</time></trkpt><trkpt lat="42.7406627" lon="12.3699963"><ele>439.0</ele><time>2026-04-18T12:04:27.986Z</time></trkpt><trkpt lat="42.7405766" lon="12.370026"><ele>439.0</ele><time>2026-04-18T12:04:28.973Z</time></trkpt><trkpt lat="42.7404814" lon="12.3700451"><ele>439.0</ele><time>2026-04-18T12:04:30.994Z</time></trkpt><trkpt lat="42.7403917" lon="12.3699785"><ele>439.00000000000006</ele><time>2026-04-18T12:04:32.997Z</time></trkpt><trkpt lat="42.7403456" lon="12.3699185"><ele>439.0</ele><time>2026-04-18T12:04:33.991Z</time></trkpt><trkpt lat="42.740298" lon="12.3698433"><ele>439.0</ele><time>2026-04-18T12:04:34.972Z</time></trkpt><trkpt lat="42.7402471" lon="12.3697626"><ele>439.0</ele><time>2026-04-18T12:04:35.996Z</time></trkpt><trkpt lat="42.7401918" lon="12.369679"><ele>439.00000000000006</ele><time>2026-04-18T12:04:36.99Z</time></trkpt><trkpt lat="42.7401303" lon="12.369596"><ele>439.0</ele><time>2026-04-18T12:04:37.995Z</time></trkpt><trkpt lat="42.7400623" lon="12.3695006"><ele>436.6666666666667</ele><time>2026-04-18T12:04:38.984Z</time></trkpt><trkpt lat="42.739995" lon="12.3694157"><ele>434.33333333333337</ele><time>2026-04-18T12:04:39.996Z</time></trkpt><trkpt lat="42.7399331" lon="12.3693322"><ele>432.0</ele><time>2026-04-18T12:04:41Z</time></trkpt><trkpt lat="42.7398727" lon="12.369253"><ele>429.66666666666663</ele><time>2026-04-18T12:04:41.984Z</time></trkpt><trkpt lat="42.7398098" lon="12.3691784"><ele>427.3333333333333</ele><time>2026-04-18T12:04:42.981Z</time></trkpt><trkpt lat="42.7397489" lon="12.3691024"><ele>425.0</ele><time>2026-04-18T12:04:43.984Z</time></trkpt><trkpt lat="42.7396905" lon="12.3690262"><ele>425.0</ele><time>2026-04-18T12:04:44.965Z</time></trkpt><trkpt lat="42.7396247" lon="12.3689533"><ele>425.0</ele><time>2026-04-18T12:04:45.988Z</time></trkpt><trkpt lat="42.7395705" lon="12.368886"><ele>425.0</ele><time>2026-04-18T12:04:46.979Z</time></trkpt><trkpt lat="42.7395223" lon="12.3688189"><ele>425.0</ele><time>2026-04-18T12:04:47.978Z</time></trkpt><trkpt lat="42.7394838" lon="12.3687421"><ele>425.0</ele><time>2026-04-18T12:04:48.983Z</time></trkpt><trkpt lat="42.7394568" lon="12.3686599"><ele>425.0</ele><time>2026-04-18T12:04:49.989Z</time></trkpt><trkpt lat="42.7394479" lon="12.3685563"><ele>425.0</ele><time>2026-04-18T12:04:51.007Z</time></trkpt><trkpt lat="42.7394448" lon="12.3684352"><ele>424.3333333333333</ele><time>2026-04-18T12:04:51.977Z</time></trkpt><trkpt lat="42.739451" lon="12.3683104"><ele>423.66666666666663</ele><time>2026-04-18T12:04:52.983Z</time></trkpt><trkpt lat="42.7394651" lon="12.368184"><ele>423.0</ele><time>2026-04-18T12:04:53.97Z</time></trkpt><trkpt lat="42.7394773" lon="12.3680791"><ele>422.33333333333337</ele><time>2026-04-18T12:04:54.97Z</time></trkpt><trkpt lat="42.7394853" lon="12.3679901"><ele>421.6666666666667</ele><time>2026-04-18T12:04:56.976Z</time></trkpt><trkpt lat="42.739508" lon="12.3679"><ele>421.0</ele><time>2026-04-18T12:05:08.984Z</time></trkpt><trkpt lat="42.7395375" lon="12.3678082"><ele>420.4</ele><time>2026-04-18T12:05:10.971Z</time></trkpt><trkpt lat="42.7395938" lon="12.3676931"><ele>419.8</ele><time>2026-04-18T12:05:12.979Z</time></trkpt><trkpt lat="42.7396758" lon="12.3675383"><ele>419.2</ele><time>2026-04-18T12:05:14.982Z</time></trkpt><trkpt lat="42.7397344" lon="12.3674481"><ele>418.59999999999997</ele><time>2026-04-18T12:05:15.983Z</time></trkpt><trkpt lat="42.739801" lon="12.3673643"><ele>418.0</ele><time>2026-04-18T12:05:16.981Z</time></trkpt><trkpt lat="42.7398772" lon="12.3672863"><ele>418.0</ele><time>2026-04-18T12:05:18.001Z</time></trkpt><trkpt lat="42.7399513" lon="12.3672261"><ele>418.0</ele><time>2026-04-18T12:05:18.994Z</time></trkpt><trkpt lat="42.7400154" lon="12.3671842"><ele>418.0</ele><time>2026-04-18T12:05:19.975Z</time></trkpt><trkpt lat="42.7401151" lon="12.3671214"><ele>418.0</ele><time>2026-04-18T12:05:21.983Z</time></trkpt><trkpt lat="42.7401909" lon="12.367018"><ele>418.0</ele><time>2026-04-18T12:05:24.002Z</time></trkpt><trkpt lat="42.740229" lon="12.3668804"><ele>416.5</ele><time>2026-04-18T12:05:25.983Z</time></trkpt><trkpt lat="42.7402033" lon="12.3667154"><ele>415.0</ele><time>2026-04-18T12:05:27.977Z</time></trkpt><trkpt lat="42.7401482" lon="12.3666063"><ele>413.5</ele><time>2026-04-18T12:05:28.975Z</time></trkpt><trkpt lat="42.7400771" lon="12.3664815"><ele>412.0</ele><time>2026-04-18T12:05:29.981Z</time></trkpt><trkpt lat="42.7400035" lon="12.3663628"><ele>411.40000000000003</ele><time>2026-04-18T12:05:30.966Z</time></trkpt><trkpt lat="42.7399327" lon="12.3662361"><ele>410.8</ele><time>2026-04-18T12:05:31.987Z</time></trkpt><trkpt lat="42.7398691" lon="12.3661154"><ele>410.2</ele><time>2026-04-18T12:05:32.974Z</time></trkpt><trkpt lat="42.739811" lon="12.3659994"><ele>409.6</ele><time>2026-04-18T12:05:33.978Z</time></trkpt><trkpt lat="42.7397626" lon="12.3658824"><ele>409.0</ele><time>2026-04-18T12:05:34.975Z</time></trkpt><trkpt lat="42.7397191" lon="12.36577"><ele>409.0</ele><time>2026-04-18T12:05:35.986Z</time></trkpt><trkpt lat="42.7396838" lon="12.3656545"><ele>409.0</ele><time>2026-04-18T12:05:36.971Z</time></trkpt><trkpt lat="42.7396569" lon="12.3655348"><ele>409.0</ele><time>2026-04-18T12:05:37.97Z</time></trkpt><trkpt lat="42.7396408" lon="12.3654047"><ele>409.0</ele><time>2026-04-18T12:05:38.977Z</time></trkpt><trkpt lat="42.739621" lon="12.3652663"><ele>409.0</ele><time>2026-04-18T12:05:39.989Z</time></trkpt><trkpt lat="42.7396038" lon="12.3651272"><ele>408.4</ele><time>2026-04-18T12:05:40.981Z</time></trkpt><trkpt lat="42.7395888" lon="12.3649933"><ele>407.79999999999995</ele><time>2026-04-18T12:05:41.975Z</time></trkpt><trkpt lat="42.7395761" lon="12.3648543"><ele>407.20000000000005</ele><time>2026-04-18T12:05:42.984Z</time></trkpt><trkpt lat="42.7395609" lon="12.3647141"><ele>406.6</ele><time>2026-04-18T12:05:43.99Z</time></trkpt><trkpt lat="42.7395531" lon="12.364577"><ele>406.0</ele><time>2026-04-18T12:05:44.967Z</time></trkpt><trkpt lat="42.7395508" lon="12.3644379"><ele>405.0</ele><time>2026-04-18T12:05:45.98Z</time></trkpt><trkpt lat="42.7395666" lon="12.3643029"><ele>404.0</ele><time>2026-04-18T12:05:46.967Z</time></trkpt><trkpt lat="42.7395926" lon="12.3641708"><ele>403.0</ele><time>2026-04-18T12:05:47.973Z</time></trkpt><trkpt lat="42.7396205" lon="12.3640445"><ele>402.0</ele><time>2026-04-18T12:05:48.993Z</time></trkpt><trkpt lat="42.7396417" lon="12.3639359"><ele>401.0</ele><time>2026-04-18T12:05:49.982Z</time></trkpt><trkpt lat="42.7396554" lon="12.3638386"><ele>400.0</ele><time>2026-04-18T12:05:50.968Z</time></trkpt><trkpt lat="42.7396702" lon="12.3637284"><ele>399.0</ele><time>2026-04-18T12:05:51.971Z</time></trkpt><trkpt lat="42.7396843" lon="12.3635949"><ele>398.0</ele><time>2026-04-18T12:05:52.986Z</time></trkpt><trkpt lat="42.7396886" lon="12.3634446"><ele>397.0</ele><time>2026-04-18T12:05:53.974Z</time></trkpt><trkpt lat="42.7396841" lon="12.3632928"><ele>396.0</ele><time>2026-04-18T12:05:54.997Z</time></trkpt><trkpt lat="42.7396799" lon="12.3631434"><ele>394.0</ele><time>2026-04-18T12:05:55.996Z</time></trkpt><trkpt lat="42.7396761" lon="12.3629956"><ele>392.0</ele><time>2026-04-18T12:05:57.009Z</time></trkpt><trkpt lat="42.7396725" lon="12.3628518"><ele>390.0</ele><time>2026-04-18T12:05:57.978Z</time></trkpt><trkpt lat="42.7396823" lon="12.3627206"><ele>388.0</ele><time>2026-04-18T12:05:58.975Z</time></trkpt><trkpt lat="42.739722" lon="12.3626163"><ele>386.0</ele><time>2026-04-18T12:05:59.985Z</time></trkpt><trkpt lat="42.7397903" lon="12.3625427"><ele>386.0</ele><time>2026-04-18T12:06:00.985Z</time></trkpt><trkpt lat="42.7398744" lon="12.3624905"><ele>386.0</ele><time>2026-04-18T12:06:01.978Z</time></trkpt><trkpt lat="42.739985" lon="12.3624412"><ele>386.0</ele><time>2026-04-18T12:06:02.981Z</time></trkpt><trkpt lat="42.7401217" lon="12.3623977"><ele>386.0</ele><time>2026-04-18T12:06:03.982Z</time></trkpt><trkpt lat="42.740251" lon="12.3623503"><ele>385.6</ele><time>2026-04-18T12:06:04.977Z</time></trkpt><trkpt lat="42.7403566" lon="12.3623077"><ele>385.20000000000005</ele><time>2026-04-18T12:06:05.979Z</time></trkpt><trkpt lat="42.7404496" lon="12.3622612"><ele>384.79999999999995</ele><time>2026-04-18T12:06:06.978Z</time></trkpt><trkpt lat="42.7405322" lon="12.3621927"><ele>384.4</ele><time>2026-04-18T12:06:07.987Z</time></trkpt><trkpt lat="42.740596" lon="12.3620558"><ele>384.0</ele><time>2026-04-18T12:06:08.987Z</time></trkpt><trkpt lat="42.7406579" lon="12.3618963"><ele>384.0</ele><time>2026-04-18T12:06:09.976Z</time></trkpt><trkpt lat="42.7407196" lon="12.3617327"><ele>384.0</ele><time>2026-04-18T12:06:10.982Z</time></trkpt><trkpt lat="42.7407775" lon="12.3615812"><ele>384.0</ele><time>2026-04-18T12:06:11.979Z</time></trkpt><trkpt lat="42.7408324" lon="12.3614537"><ele>384.0</ele><time>2026-04-18T12:06:12.979Z</time></trkpt><trkpt lat="42.740885" lon="12.3613323"><ele>385.0</ele><time>2026-04-18T12:06:13.978Z</time></trkpt><trkpt lat="42.7409344" lon="12.3612179"><ele>386.0</ele><time>2026-04-18T12:06:14.968Z</time></trkpt><trkpt lat="42.7409804" lon="12.3611104"><ele>387.0</ele><time>2026-04-18T12:06:15.978Z</time></trkpt><trkpt lat="42.741024" lon="12.3610018"><ele>388.0</ele><time>2026-04-18T12:06:16.976Z</time></trkpt><trkpt lat="42.7410602" lon="12.3608716"><ele>389.0</ele><time>2026-04-18T12:06:17.968Z</time></trkpt><trkpt lat="42.7410955" lon="12.3607288"><ele>389.0</ele><time>2026-04-18T12:06:18.977Z</time></trkpt><trkpt lat="42.7411255" lon="12.3605767"><ele>389.0</ele><time>2026-04-18T12:06:19.975Z</time></trkpt><trkpt lat="42.7411412" lon="12.3604272"><ele>389.0</ele><time>2026-04-18T12:06:20.971Z</time></trkpt><trkpt lat="42.7411612" lon="12.3602882"><ele>389.0</ele><time>2026-04-18T12:06:21.998Z</time></trkpt><trkpt lat="42.7411794" lon="12.3601463"><ele>389.0</ele><time>2026-04-18T12:06:22.968Z</time></trkpt><trkpt lat="42.7411843" lon="12.3599983"><ele>389.0</ele><time>2026-04-18T12:06:23.982Z</time></trkpt><trkpt lat="42.741196" lon="12.359852"><ele>389.0</ele><time>2026-04-18T12:06:24.974Z</time></trkpt><trkpt lat="42.7412063" lon="12.359708"><ele>389.0</ele><time>2026-04-18T12:06:25.976Z</time></trkpt><trkpt lat="42.7412158" lon="12.3595697"><ele>389.0</ele><time>2026-04-18T12:06:26.967Z</time></trkpt><trkpt lat="42.7412174" lon="12.3594331"><ele>389.0</ele><time>2026-04-18T12:06:27.986Z</time></trkpt><trkpt lat="42.741219" lon="12.3593015"><ele>388.25</ele><time>2026-04-18T12:06:28.976Z</time></trkpt><trkpt lat="42.7412106" lon="12.3591907"><ele>387.5</ele><time>2026-04-18T12:06:29.966Z</time></trkpt><trkpt lat="42.7411849" lon="12.359068"><ele>386.75</ele><time>2026-04-18T12:06:30.997Z</time></trkpt><trkpt lat="42.7411211" lon="12.3588895"><ele>386.0</ele><time>2026-04-18T12:06:31.98Z</time></trkpt><trkpt lat="42.7410395" lon="12.3586799"><ele>380.66666666666663</ele><time>2026-04-18T12:06:32.983Z</time></trkpt><trkpt lat="42.7409402" lon="12.3584743"><ele>375.3333333333333</ele><time>2026-04-18T12:06:33.978Z</time></trkpt><trkpt lat="42.7408489" lon="12.3582894"><ele>370.0</ele><time>2026-04-18T12:06:34.968Z</time></trkpt><trkpt lat="42.7407778" lon="12.3581223"><ele>371.25</ele><time>2026-04-18T12:06:35.97Z</time></trkpt><trkpt lat="42.7407081" lon="12.3579622"><ele>372.5</ele><time>2026-04-18T12:06:36.974Z</time></trkpt><trkpt lat="42.7406428" lon="12.3578138"><ele>373.75</ele><time>2026-04-18T12:06:37.978Z</time></trkpt><trkpt lat="42.7405906" lon="12.3576843"><ele>375.0</ele><time>2026-04-18T12:06:38.977Z</time></trkpt><trkpt lat="42.7405463" lon="12.3575662"><ele>375.0</ele><time>2026-04-18T12:06:39.987Z</time></trkpt><trkpt lat="42.740506" lon="12.3574509"><ele>375.0</ele><time>2026-04-18T12:06:40.98Z</time></trkpt><trkpt lat="42.7404735" lon="12.3573317"><ele>375.0</ele><time>2026-04-18T12:06:41.997Z</time></trkpt><trkpt lat="42.7404573" lon="12.3572187"><ele>375.0</ele><time>2026-04-18T12:06:42.982Z</time></trkpt><trkpt lat="42.7404521" lon="12.3571135"><ele>375.0</ele><time>2026-04-18T12:06:43.987Z</time></trkpt><trkpt lat="42.7404537" lon="12.357013"><ele>375.0</ele><time>2026-04-18T12:06:44.98Z</time></trkpt><trkpt lat="42.7404632" lon="12.3569093"><ele>374.2</ele><time>2026-04-18T12:06:45.998Z</time></trkpt><trkpt lat="42.7404833" lon="12.3567937"><ele>373.4</ele><time>2026-04-18T12:06:46.971Z</time></trkpt><trkpt lat="42.7405093" lon="12.3566617"><ele>372.6</ele><time>2026-04-18T12:06:47.99Z</time></trkpt><trkpt lat="42.7405329" lon="12.3565198"><ele>371.8</ele><time>2026-04-18T12:06:48.984Z</time></trkpt><trkpt lat="42.7405538" lon="12.35637"><ele>371.0</ele><time>2026-04-18T12:06:49.971Z</time></trkpt><trkpt lat="42.7405739" lon="12.3562303"><ele>369.6</ele><time>2026-04-18T12:06:50.984Z</time></trkpt><trkpt lat="42.7406041" lon="12.3561023"><ele>368.20000000000005</ele><time>2026-04-18T12:06:51.982Z</time></trkpt><trkpt lat="42.7406492" lon="12.3559874"><ele>366.79999999999995</ele><time>2026-04-18T12:06:52.973Z</time></trkpt><trkpt lat="42.7407094" lon="12.3558751"><ele>365.4</ele><time>2026-04-18T12:06:53.976Z</time></trkpt><trkpt lat="42.7407892" lon="12.3557468"><ele>364.0</ele><time>2026-04-18T12:06:54.984Z</time></trkpt><trkpt lat="42.7409156" lon="12.3555672"><ele>367.0</ele><time>2026-04-18T12:06:55.981Z</time></trkpt><trkpt lat="42.7410583" lon="12.3553724"><ele>370.0</ele><time>2026-04-18T12:06:56.985Z</time></trkpt><trkpt lat="42.741181" lon="12.3551894"><ele>373.0</ele><time>2026-04-18T12:06:57.994Z</time></trkpt><trkpt lat="42.7413032" lon="12.3550246"><ele>373.0</ele><time>2026-04-18T12:06:58.994Z</time></trkpt><trkpt lat="42.7414195" lon="12.3548689"><ele>373.0</ele><time>2026-04-18T12:06:59.971Z</time></trkpt><trkpt lat="42.7415326" lon="12.3547156"><ele>373.0</ele><time>2026-04-18T12:07:00.986Z</time></trkpt><trkpt lat="42.74164" lon="12.3545498"><ele>375.25</ele><time>2026-04-18T12:07:02.002Z</time></trkpt><trkpt lat="42.7417378" lon="12.354369"><ele>377.5</ele><time>2026-04-18T12:07:02.978Z</time></trkpt><trkpt lat="42.7418248" lon="12.3542059"><ele>379.75</ele><time>2026-04-18T12:07:03.989Z</time></trkpt><trkpt lat="42.7419045" lon="12.3540562"><ele>382.0</ele><time>2026-04-18T12:07:04.991Z</time></trkpt><trkpt lat="42.7419848" lon="12.3539192"><ele>377.75</ele><time>2026-04-18T12:07:05.985Z</time></trkpt><trkpt lat="42.7420649" lon="12.3538035"><ele>373.5</ele><time>2026-04-18T12:07:06.966Z</time></trkpt><trkpt lat="42.7421543" lon="12.3537076"><ele>369.25</ele><time>2026-04-18T12:07:07.978Z</time></trkpt><trkpt lat="42.7422426" lon="12.3536218"><ele>365.0</ele><time>2026-04-18T12:07:08.965Z</time></trkpt><trkpt lat="42.7423378" lon="12.3535454"><ele>365.0</ele><time>2026-04-18T12:07:09.983Z</time></trkpt><trkpt lat="42.7424413" lon="12.3534886"><ele>365.0</ele><time>2026-04-18T12:07:10.986Z</time></trkpt><trkpt lat="42.7425565" lon="12.3534403"><ele>365.0</ele><time>2026-04-18T12:07:11.977Z</time></trkpt><trkpt lat="42.7426843" lon="12.3534173"><ele>365.0</ele><time>2026-04-18T12:07:12.977Z</time></trkpt><trkpt lat="42.7428166" lon="12.3533937"><ele>365.5</ele><time>2026-04-18T12:07:13.976Z</time></trkpt><trkpt lat="42.7429498" lon="12.3533791"><ele>366.0</ele><time>2026-04-18T12:07:14.979Z</time></trkpt><trkpt lat="42.7430746" lon="12.3533672"><ele>366.5</ele><time>2026-04-18T12:07:15.981Z</time></trkpt><trkpt lat="42.7431856" lon="12.3533628"><ele>367.0</ele><time>2026-04-18T12:07:16.974Z</time></trkpt><trkpt lat="42.7432851" lon="12.3533447"><ele>367.0</ele><time>2026-04-18T12:07:18.008Z</time></trkpt><trkpt lat="42.7433897" lon="12.3533474"><ele>367.0</ele><time>2026-04-18T12:07:18.987Z</time></trkpt><trkpt lat="42.7434831" lon="12.3533389"><ele>367.0</ele><time>2026-04-18T12:07:19.987Z</time></trkpt><trkpt lat="42.7435742" lon="12.3533293"><ele>367.0</ele><time>2026-04-18T12:07:20.979Z</time></trkpt><trkpt lat="42.7436534" lon="12.3533049"><ele>367.0</ele><time>2026-04-18T12:07:21.98Z</time></trkpt><trkpt lat="42.7437317" lon="12.3532659"><ele>366.0</ele><time>2026-04-18T12:07:22.99Z</time></trkpt><trkpt lat="42.7438039" lon="12.3532133"><ele>365.0</ele><time>2026-04-18T12:07:23.983Z</time></trkpt><trkpt lat="42.7438787" lon="12.3531576"><ele>364.0</ele><time>2026-04-18T12:07:24.989Z</time></trkpt><trkpt lat="42.7439454" lon="12.3531005"><ele>363.0</ele><time>2026-04-18T12:07:25.978Z</time></trkpt><trkpt lat="42.7440033" lon="12.3530455"><ele>362.0</ele><time>2026-04-18T12:07:26.979Z</time></trkpt><trkpt lat="42.7440512" lon="12.3529865"><ele>361.0</ele><time>2026-04-18T12:07:27.978Z</time></trkpt><trkpt lat="42.7441149" lon="12.352847"><ele>360.4</ele><time>2026-04-18T12:07:29.973Z</time></trkpt><trkpt lat="42.7441187" lon="12.3527377"><ele>359.8</ele><time>2026-04-18T12:07:30.98Z</time></trkpt><trkpt lat="42.7441179" lon="12.3526048"><ele>359.2</ele><time>2026-04-18T12:07:31.986Z</time></trkpt><trkpt lat="42.7441183" lon="12.352446"><ele>358.59999999999997</ele><time>2026-04-18T12:07:32.996Z</time></trkpt><trkpt lat="42.7441149" lon="12.3522763"><ele>358.0</ele><time>2026-04-18T12:07:33.998Z</time></trkpt><trkpt lat="42.7441339" lon="12.3521066"><ele>357.59999999999997</ele><time>2026-04-18T12:07:34.992Z</time></trkpt><trkpt lat="42.7441663" lon="12.3519534"><ele>357.2</ele><time>2026-04-18T12:07:35.984Z</time></trkpt><trkpt lat="42.7442147" lon="12.3518317"><ele>356.8</ele><time>2026-04-18T12:07:36.984Z</time></trkpt><trkpt lat="42.7442657" lon="12.3517289"><ele>356.4</ele><time>2026-04-18T12:07:37.971Z</time></trkpt><trkpt lat="42.744313" lon="12.3516429"><ele>356.0</ele><time>2026-04-18T12:07:38.975Z</time></trkpt><trkpt lat="42.7443613" lon="12.3515572"><ele>356.20000000000005</ele><time>2026-04-18T12:07:39.982Z</time></trkpt><trkpt lat="42.7444083" lon="12.3514589"><ele>356.40000000000003</ele><time>2026-04-18T12:07:40.974Z</time></trkpt><trkpt lat="42.7444637" lon="12.3513468"><ele>356.6</ele><time>2026-04-18T12:07:41.993Z</time></trkpt><trkpt lat="42.7445234" lon="12.3512354"><ele>356.8</ele><time>2026-04-18T12:07:42.985Z</time></trkpt><trkpt lat="42.7445798" lon="12.3511285"><ele>357.0</ele><time>2026-04-18T12:07:43.978Z</time></trkpt><trkpt lat="42.7446477" lon="12.351034"><ele>357.0</ele><time>2026-04-18T12:07:44.986Z</time></trkpt><trkpt lat="42.7447277" lon="12.3509586"><ele>357.0</ele><time>2026-04-18T12:07:45.97Z</time></trkpt><trkpt lat="42.7448072" lon="12.3508971"><ele>357.0</ele><time>2026-04-18T12:07:46.986Z</time></trkpt><trkpt lat="42.7448863" lon="12.3508346"><ele>357.0</ele><time>2026-04-18T12:07:47.976Z</time></trkpt><trkpt lat="42.7449617" lon="12.3507694"><ele>357.0</ele><time>2026-04-18T12:07:48.974Z</time></trkpt><trkpt lat="42.7450175" lon="12.3506895"><ele>357.0</ele><time>2026-04-18T12:07:49.975Z</time></trkpt><trkpt lat="42.7450507" lon="12.350593"><ele>357.0</ele><time>2026-04-18T12:07:50.988Z</time></trkpt><trkpt lat="42.7450768" lon="12.3504819"><ele>357.0</ele><time>2026-04-18T12:07:51.997Z</time></trkpt><trkpt lat="42.7450964" lon="12.3503483"><ele>357.0</ele><time>2026-04-18T12:07:52.972Z</time></trkpt><trkpt lat="42.7451119" lon="12.3502159"><ele>357.0</ele><time>2026-04-18T12:07:53.974Z</time></trkpt><trkpt lat="42.7451367" lon="12.3500934"><ele>355.1666666666667</ele><time>2026-04-18T12:07:54.975Z</time></trkpt><trkpt lat="42.7451836" lon="12.3499963"><ele>353.3333333333333</ele><time>2026-04-18T12:07:56.004Z</time></trkpt><trkpt lat="42.7452437" lon="12.3499088"><ele>351.5</ele><time>2026-04-18T12:07:56.975Z</time></trkpt><trkpt lat="42.7453102" lon="12.3498308"><ele>349.66666666666663</ele><time>2026-04-18T12:07:58.02Z</time></trkpt><trkpt lat="42.7453721" lon="12.3497636"><ele>347.8333333333333</ele><time>2026-04-18T12:07:58.976Z</time></trkpt><trkpt lat="42.7454273" lon="12.3496972"><ele>346.0</ele><time>2026-04-18T12:07:59.98Z</time></trkpt><trkpt lat="42.7454767" lon="12.3496329"><ele>344.8333333333333</ele><time>2026-04-18T12:08:00.979Z</time></trkpt><trkpt lat="42.7455215" lon="12.3495633"><ele>343.66666666666663</ele><time>2026-04-18T12:08:01.994Z</time></trkpt><trkpt lat="42.7455583" lon="12.3494875"><ele>342.5</ele><time>2026-04-18T12:08:02.994Z</time></trkpt><trkpt lat="42.7455992" lon="12.3494131"><ele>341.3333333333333</ele><time>2026-04-18T12:08:03.976Z</time></trkpt><trkpt lat="42.7456391" lon="12.349342"><ele>340.1666666666667</ele><time>2026-04-18T12:08:05.009Z</time></trkpt><trkpt lat="42.7457164" lon="12.3492088"><ele>339.0</ele><time>2026-04-18T12:08:06.982Z</time></trkpt><trkpt lat="42.7457852" lon="12.3490978"><ele>339.0</ele><time>2026-04-18T12:08:08.979Z</time></trkpt><trkpt lat="42.74584" lon="12.3490101"><ele>339.0</ele><time>2026-04-18T12:08:10.981Z</time></trkpt><trkpt lat="42.7458954" lon="12.3489172"><ele>339.0</ele><time>2026-04-18T12:08:13.003Z</time></trkpt><trkpt lat="42.7459608" lon="12.348817"><ele>339.0</ele><time>2026-04-18T12:08:14.969Z</time></trkpt><trkpt lat="42.7460256" lon="12.3487382"><ele>339.0</ele><time>2026-04-18T12:08:16.979Z</time></trkpt><trkpt lat="42.7460431" lon="12.3486378"><ele>339.0</ele><time>2026-04-18T12:08:19.987Z</time></trkpt><trkpt lat="42.7459572" lon="12.3485768"><ele>338.3333333333333</ele><time>2026-04-18T12:08:23.001Z</time></trkpt><trkpt lat="42.7458452" lon="12.3485998"><ele>337.6666666666667</ele><time>2026-04-18T12:08:25.004Z</time></trkpt><trkpt lat="42.7457704" lon="12.3486179"><ele>337.0</ele><time>2026-04-18T12:08:25.975Z</time></trkpt><trkpt lat="42.745697" lon="12.3486381"><ele>336.33333333333337</ele><time>2026-04-18T12:08:26.995Z</time></trkpt><trkpt lat="42.7456277" lon="12.3486577"><ele>335.6666666666667</ele><time>2026-04-18T12:08:28.004Z</time></trkpt><trkpt lat="42.7455183" lon="12.3486922"><ele>335.0</ele><time>2026-04-18T12:08:30.009Z</time></trkpt><trkpt lat="42.7454471" lon="12.3487186"><ele>335.0</ele><time>2026-04-18T12:08:32.986Z</time></trkpt><trkpt lat="42.7453416" lon="12.3487177"><ele>335.0</ele><time>2026-04-18T12:08:35.003Z</time></trkpt><trkpt lat="42.7452684" lon="12.3487231"><ele>335.0</ele><time>2026-04-18T12:08:35.997Z</time></trkpt><trkpt lat="42.7451931" lon="12.348728"><ele>335.0</ele><time>2026-04-18T12:08:36.99Z</time></trkpt><trkpt lat="42.7451208" lon="12.348728"><ele>335.0</ele><time>2026-04-18T12:08:37.998Z</time></trkpt><trkpt lat="42.7450546" lon="12.3487285"><ele>335.0</ele><time>2026-04-18T12:08:38.976Z</time></trkpt><trkpt lat="42.7449871" lon="12.3487305"><ele>335.1666666666667</ele><time>2026-04-18T12:08:39.985Z</time></trkpt><trkpt lat="42.7448682" lon="12.3487736"><ele>335.33333333333337</ele><time>2026-04-18T12:08:41.994Z</time></trkpt><trkpt lat="42.7448034" lon="12.3488139"><ele>335.5</ele><time>2026-04-18T12:08:42.983Z</time></trkpt><trkpt lat="42.7447349" lon="12.3488515"><ele>335.6666666666667</ele><time>2026-04-18T12:08:43.98Z</time></trkpt><trkpt lat="42.7446604" lon="12.3488849"><ele>335.8333333333333</ele><time>2026-04-18T12:08:44.978Z</time></trkpt><trkpt lat="42.7445867" lon="12.3489121"><ele>336.0</ele><time>2026-04-18T12:08:45.987Z</time></trkpt><trkpt lat="42.7445125" lon="12.3489315"><ele>336.0</ele><time>2026-04-18T12:08:46.996Z</time></trkpt><trkpt lat="42.7444242" lon="12.3489333"><ele>336.0</ele><time>2026-04-18T12:08:47.989Z</time></trkpt><trkpt lat="42.744334" lon="12.3489055"><ele>336.0</ele><time>2026-04-18T12:08:48.978Z</time></trkpt><trkpt lat="42.7442497" lon="12.3488642"><ele>336.0</ele><time>2026-04-18T12:08:49.985Z</time></trkpt><trkpt lat="42.744168" lon="12.3488159"><ele>336.0</ele><time>2026-04-18T12:08:50.989Z</time></trkpt><trkpt lat="42.7440879" lon="12.348773"><ele>336.0</ele><time>2026-04-18T12:08:51.97Z</time></trkpt><trkpt lat="42.7439975" lon="12.3487332"><ele>332.0</ele><time>2026-04-18T12:08:52.991Z</time></trkpt><trkpt lat="42.7439014" lon="12.3487041"><ele>328.0</ele><time>2026-04-18T12:08:53.995Z</time></trkpt><trkpt lat="42.7438112" lon="12.3486708"><ele>324.0</ele><time>2026-04-18T12:08:54.993Z</time></trkpt><trkpt lat="42.7437277" lon="12.3486428"><ele>320.0</ele><time>2026-04-18T12:08:55.991Z</time></trkpt><trkpt lat="42.7436375" lon="12.3486072"><ele>316.0</ele><time>2026-04-18T12:08:56.987Z</time></trkpt><trkpt lat="42.7435377" lon="12.3485658"><ele>315.2</ele><time>2026-04-18T12:08:57.974Z</time></trkpt><trkpt lat="42.7434362" lon="12.3485155"><ele>314.40000000000003</ele><time>2026-04-18T12:08:58.995Z</time></trkpt><trkpt lat="42.7433371" lon="12.3484593"><ele>313.6</ele><time>2026-04-18T12:09:00.025Z</time></trkpt><trkpt lat="42.7432434" lon="12.3484076"><ele>312.8</ele><time>2026-04-18T12:09:01.003Z</time></trkpt><trkpt lat="42.7431493" lon="12.3483577"><ele>312.0</ele><time>2026-04-18T12:09:01.994Z</time></trkpt><trkpt lat="42.7430595" lon="12.3483112"><ele>312.0</ele><time>2026-04-18T12:09:02.985Z</time></trkpt><trkpt lat="42.7429732" lon="12.3482634"><ele>312.0</ele><time>2026-04-18T12:09:03.98Z</time></trkpt><trkpt lat="42.7428958" lon="12.3482301"><ele>312.0</ele><time>2026-04-18T12:09:04.982Z</time></trkpt><trkpt lat="42.7428257" lon="12.3482084"><ele>312.0</ele><time>2026-04-18T12:09:05.976Z</time></trkpt><trkpt lat="42.7427204" lon="12.3481954"><ele>312.0</ele><time>2026-04-18T12:09:07.982Z</time></trkpt><trkpt lat="42.7426469" lon="12.3482056"><ele>312.0</ele><time>2026-04-18T12:09:10.977Z</time></trkpt><trkpt lat="42.7425626" lon="12.3482066"><ele>310.6</ele><time>2026-04-18T12:09:12.988Z</time></trkpt><trkpt lat="42.7424718" lon="12.3482529"><ele>309.2</ele><time>2026-04-18T12:09:14.977Z</time></trkpt><trkpt lat="42.7423891" lon="12.3483227"><ele>307.8</ele><time>2026-04-18T12:09:16.988Z</time></trkpt><trkpt lat="42.7423162" lon="12.3484068"><ele>306.4</ele><time>2026-04-18T12:09:18.991Z</time></trkpt><trkpt lat="42.7422241" lon="12.3485052"><ele>305.0</ele><time>2026-04-18T12:09:20.974Z</time></trkpt><trkpt lat="42.7421091" lon="12.3484814"><ele>305.0</ele><time>2026-04-18T12:09:22.978Z</time></trkpt><trkpt lat="42.7419813" lon="12.3484457"><ele>305.0</ele><time>2026-04-18T12:09:24.998Z</time></trkpt><trkpt lat="42.7418965" lon="12.3484277"><ele>305.0</ele><time>2026-04-18T12:09:25.972Z</time></trkpt><trkpt lat="42.7418054" lon="12.3484062"><ele>305.0</ele><time>2026-04-18T12:09:26.977Z</time></trkpt><trkpt lat="42.7417174" lon="12.3483855"><ele>305.0</ele><time>2026-04-18T12:09:27.98Z</time></trkpt><trkpt lat="42.741626" lon="12.3483602"><ele>302.0</ele><time>2026-04-18T12:09:28.969Z</time></trkpt><trkpt lat="42.7415325" lon="12.3483295"><ele>299.0</ele><time>2026-04-18T12:09:29.977Z</time></trkpt><trkpt lat="42.7414381" lon="12.3482988"><ele>296.0</ele><time>2026-04-18T12:09:30.991Z</time></trkpt><trkpt lat="42.7413383" lon="12.3482645"><ele>293.0</ele><time>2026-04-18T12:09:31.976Z</time></trkpt><trkpt lat="42.7412388" lon="12.3482359"><ele>290.0</ele><time>2026-04-18T12:09:32.97Z</time></trkpt><trkpt lat="42.7411392" lon="12.3482064"><ele>290.2</ele><time>2026-04-18T12:09:33.967Z</time></trkpt><trkpt lat="42.7410415" lon="12.3481731"><ele>290.4</ele><time>2026-04-18T12:09:35.001Z</time></trkpt><trkpt lat="42.7409519" lon="12.34814"><ele>290.6</ele><time>2026-04-18T12:09:35.979Z</time></trkpt><trkpt lat="42.7408632" lon="12.3481105"><ele>290.8</ele><time>2026-04-18T12:09:36.974Z</time></trkpt><trkpt lat="42.7407845" lon="12.3480871"><ele>291.0</ele><time>2026-04-18T12:09:37.97Z</time></trkpt><trkpt lat="42.7406935" lon="12.3480763"><ele>291.0</ele><time>2026-04-18T12:09:38.978Z</time></trkpt><trkpt lat="42.7405922" lon="12.348077"><ele>291.0</ele><time>2026-04-18T12:09:39.996Z</time></trkpt><trkpt lat="42.7404976" lon="12.3480758"><ele>291.0</ele><time>2026-04-18T12:09:41.01Z</time></trkpt><trkpt lat="42.7404166" lon="12.3480758"><ele>291.0</ele><time>2026-04-18T12:09:41.979Z</time></trkpt><trkpt lat="42.7403371" lon="12.3480622"><ele>291.0</ele><time>2026-04-18T12:09:42.974Z</time></trkpt><trkpt lat="42.7402743" lon="12.3480291"><ele>291.0</ele><time>2026-04-18T12:09:43.99Z</time></trkpt><trkpt lat="42.7402132" lon="12.3479891"><ele>289.8</ele><time>2026-04-18T12:09:44.968Z</time></trkpt><trkpt lat="42.7400917" lon="12.3479726"><ele>288.6</ele><time>2026-04-18T12:09:46.975Z</time></trkpt><trkpt lat="42.7400276" lon="12.3480001"><ele>287.4</ele><time>2026-04-18T12:09:47.99Z</time></trkpt><trkpt lat="42.739968" lon="12.3480375"><ele>286.2</ele><time>2026-04-18T12:09:48.983Z</time></trkpt><trkpt lat="42.7398587" lon="12.3481138"><ele>285.0</ele><time>2026-04-18T12:09:50.982Z</time></trkpt><trkpt lat="42.739773" lon="12.3482223"><ele>285.0</ele><time>2026-04-18T12:09:53.01Z</time></trkpt><trkpt lat="42.7397141" lon="12.3483904"><ele>285.0</ele><time>2026-04-18T12:09:54.999Z</time></trkpt><trkpt lat="42.7396806" lon="12.3485277"><ele>285.0</ele><time>2026-04-18T12:09:55.984Z</time></trkpt><trkpt lat="42.7396325" lon="12.3486833"><ele>285.0</ele><time>2026-04-18T12:09:56.969Z</time></trkpt><trkpt lat="42.7395852" lon="12.3488377"><ele>282.5</ele><time>2026-04-18T12:09:57.991Z</time></trkpt><trkpt lat="42.7395329" lon="12.3489793"><ele>280.0</ele><time>2026-04-18T12:09:58.984Z</time></trkpt><trkpt lat="42.7394733" lon="12.3491082"><ele>277.5</ele><time>2026-04-18T12:09:59.977Z</time></trkpt><trkpt lat="42.7394021" lon="12.3492322"><ele>275.0</ele><time>2026-04-18T12:10:00.981Z</time></trkpt><trkpt lat="42.7393295" lon="12.3493581"><ele>275.0</ele><time>2026-04-18T12:10:01.983Z</time></trkpt><trkpt lat="42.7392633" lon="12.3494859"><ele>275.0</ele><time>2026-04-18T12:10:03.009Z</time></trkpt><trkpt lat="42.7392046" lon="12.3496139"><ele>275.0</ele><time>2026-04-18T12:10:03.979Z</time></trkpt><trkpt lat="42.7391493" lon="12.3497507"><ele>275.0</ele><time>2026-04-18T12:10:04.988Z</time></trkpt><trkpt lat="42.7390977" lon="12.3498822"><ele>277.33333333333337</ele><time>2026-04-18T12:10:05.99Z</time></trkpt><trkpt lat="42.7390414" lon="12.3499877"><ele>279.6666666666667</ele><time>2026-04-18T12:10:06.982Z</time></trkpt><trkpt lat="42.7389852" lon="12.3500733"><ele>282.0</ele><time>2026-04-18T12:10:07.985Z</time></trkpt><trkpt lat="42.7389378" lon="12.350155"><ele>284.3333333333333</ele><time>2026-04-18T12:10:08.969Z</time></trkpt><trkpt lat="42.7388937" lon="12.3502421"><ele>286.66666666666663</ele><time>2026-04-18T12:10:09.993Z</time></trkpt><trkpt lat="42.7388552" lon="12.3503305"><ele>289.0</ele><time>2026-04-18T12:10:10.989Z</time></trkpt><trkpt lat="42.738817" lon="12.3504178"><ele>289.0</ele><time>2026-04-18T12:10:12.003Z</time></trkpt><trkpt lat="42.7387445" lon="12.3505353"><ele>289.0</ele><time>2026-04-18T12:10:13.971Z</time></trkpt><trkpt lat="42.7386308" lon="12.3506193"><ele>289.0</ele><time>2026-04-18T12:10:15.977Z</time></trkpt><trkpt lat="42.7385567" lon="12.3506464"><ele>289.0</ele><time>2026-04-18T12:10:16.986Z</time></trkpt><trkpt lat="42.7384824" lon="12.3506678"><ele>289.0</ele><time>2026-04-18T12:10:17.984Z</time></trkpt><trkpt lat="42.7384167" lon="12.3506985"><ele>288.59999999999997</ele><time>2026-04-18T12:10:18.996Z</time></trkpt><trkpt lat="42.7383598" lon="12.3507414"><ele>288.2</ele><time>2026-04-18T12:10:19.976Z</time></trkpt><trkpt lat="42.7383085" lon="12.3507975"><ele>287.79999999999995</ele><time>2026-04-18T12:10:20.985Z</time></trkpt><trkpt lat="42.7382525" lon="12.3508927"><ele>287.4</ele><time>2026-04-18T12:10:21.976Z</time></trkpt><trkpt lat="42.7381919" lon="12.3510237"><ele>287.0</ele><time>2026-04-18T12:10:22.983Z</time></trkpt><trkpt lat="42.7381309" lon="12.351159"><ele>287.0</ele><time>2026-04-18T12:10:23.981Z</time></trkpt><trkpt lat="42.738074" lon="12.3512867"><ele>287.0</ele><time>2026-04-18T12:10:24.984Z</time></trkpt><trkpt lat="42.7380255" lon="12.351392"><ele>287.0</ele><time>2026-04-18T12:10:25.974Z</time></trkpt><trkpt lat="42.7379725" lon="12.3514919"><ele>287.0</ele><time>2026-04-18T12:10:26.974Z</time></trkpt><trkpt lat="42.7379132" lon="12.3515993"><ele>287.0</ele><time>2026-04-18T12:10:27.979Z</time></trkpt><trkpt lat="42.7378588" lon="12.3517026"><ele>286.2</ele><time>2026-04-18T12:10:28.978Z</time></trkpt><trkpt lat="42.7377993" lon="12.3518146"><ele>285.4</ele><time>2026-04-18T12:10:29.991Z</time></trkpt><trkpt lat="42.7377287" lon="12.3519369"><ele>284.6</ele><time>2026-04-18T12:10:30.993Z</time></trkpt><trkpt lat="42.7376525" lon="12.3520431"><ele>283.8</ele><time>2026-04-18T12:10:31.974Z</time></trkpt><trkpt lat="42.7375738" lon="12.3521586"><ele>283.0</ele><time>2026-04-18T12:10:32.98Z</time></trkpt><trkpt lat="42.7374913" lon="12.3522898"><ele>285.75</ele><time>2026-04-18T12:10:33.985Z</time></trkpt><trkpt lat="42.7374111" lon="12.3524284"><ele>288.5</ele><time>2026-04-18T12:10:34.989Z</time></trkpt><trkpt lat="42.737336" lon="12.3525647"><ele>291.25</ele><time>2026-04-18T12:10:35.989Z</time></trkpt><trkpt lat="42.7372719" lon="12.3527006"><ele>294.0</ele><time>2026-04-18T12:10:36.972Z</time></trkpt><trkpt lat="42.7372302" lon="12.3528358"><ele>294.0</ele><time>2026-04-18T12:10:37.972Z</time></trkpt><trkpt lat="42.7372075" lon="12.3529576"><ele>294.0</ele><time>2026-04-18T12:10:38.984Z</time></trkpt><trkpt lat="42.7372046" lon="12.3530662"><ele>294.0</ele><time>2026-04-18T12:10:40.99Z</time></trkpt><trkpt lat="42.7372936" lon="12.3531119"><ele>294.0</ele><time>2026-04-18T12:10:44.984Z</time></trkpt><trkpt lat="42.7373761" lon="12.3531798"><ele>294.0</ele><time>2026-04-18T12:10:46.979Z</time></trkpt><trkpt lat="42.7374396" lon="12.3532677"><ele>295.14285714285717</ele><time>2026-04-18T12:10:48.981Z</time></trkpt><trkpt lat="42.7374953" lon="12.3533531"><ele>296.2857142857143</ele><time>2026-04-18T12:10:50.98Z</time></trkpt><trkpt lat="42.7375606" lon="12.3534335"><ele>297.42857142857144</ele><time>2026-04-18T12:10:52.983Z</time></trkpt><trkpt lat="42.7376132" lon="12.3535068"><ele>298.57142857142856</ele><time>2026-04-18T12:10:54.988Z</time></trkpt><trkpt lat="42.7376565" lon="12.353571"><ele>299.7142857142857</ele><time>2026-04-18T12:10:56.986Z</time></trkpt><trkpt lat="42.7376722" lon="12.3536602"><ele>300.8571428571429</ele><time>2026-04-18T12:10:59.981Z</time></trkpt><trkpt lat="42.737644" lon="12.3535723"><ele>302.0</ele><time>2026-04-18T12:11:07.981Z</time></trkpt><trkpt lat="42.7376038" lon="12.3535048"><ele>302.0</ele><time>2026-04-18T12:11:09.974Z</time></trkpt><trkpt lat="42.7375559" lon="12.3534246"><ele>302.0</ele><time>2026-04-18T12:11:11.991Z</time></trkpt><trkpt lat="42.7374904" lon="12.3533232"><ele>302.0</ele><time>2026-04-18T12:11:13.991Z</time></trkpt><trkpt lat="42.7374227" lon="12.3532377"><ele>302.0</ele><time>2026-04-18T12:11:15.984Z</time></trkpt><trkpt lat="42.7373587" lon="12.3531677"><ele>302.0</ele><time>2026-04-18T12:11:17.975Z</time></trkpt><trkpt lat="42.7372827" lon="12.3530972"><ele>302.0</ele><time>2026-04-18T12:11:19.972Z</time></trkpt><trkpt lat="42.737222" lon="12.3530497"><ele>300.6666666666667</ele><time>2026-04-18T12:11:21.976Z</time></trkpt><trkpt lat="42.7372068" lon="12.3529476"><ele>299.33333333333337</ele><time>2026-04-18T12:11:24.981Z</time></trkpt><trkpt lat="42.737229" lon="12.3528548"><ele>298.0</ele><time>2026-04-18T12:11:26.979Z</time></trkpt><trkpt lat="42.7372557" lon="12.3527382"><ele>296.6666666666667</ele><time>2026-04-18T12:11:28.975Z</time></trkpt><trkpt lat="42.7372911" lon="12.3526151"><ele>295.3333333333333</ele><time>2026-04-18T12:11:30.987Z</time></trkpt><trkpt lat="42.7373435" lon="12.3525102"><ele>294.0</ele><time>2026-04-18T12:11:32.969Z</time></trkpt><trkpt lat="42.7373908" lon="12.3524134"><ele>294.0</ele><time>2026-04-18T12:11:34.998Z</time></trkpt><trkpt lat="42.7374529" lon="12.3523064"><ele>294.0</ele><time>2026-04-18T12:11:36.979Z</time></trkpt><trkpt lat="42.737537" lon="12.3521904"><ele>294.0</ele><time>2026-04-18T12:11:38.983Z</time></trkpt><trkpt lat="42.7375807" lon="12.3521224"><ele>294.0</ele><time>2026-04-18T12:11:39.98Z</time></trkpt><trkpt lat="42.7376253" lon="12.3520549"><ele>294.0</ele><time>2026-04-18T12:11:40.991Z</time></trkpt><trkpt lat="42.737674" lon="12.3519962"><ele>294.0</ele><time>2026-04-18T12:11:41.988Z</time></trkpt><trkpt lat="42.7377161" lon="12.3519295"><ele>294.1666666666667</ele><time>2026-04-18T12:11:42.973Z</time></trkpt><trkpt lat="42.7377592" lon="12.3518562"><ele>294.3333333333333</ele><time>2026-04-18T12:11:44.018Z</time></trkpt><trkpt lat="42.7378039" lon="12.3517799"><ele>294.5</ele><time>2026-04-18T12:11:44.984Z</time></trkpt><trkpt lat="42.7378509" lon="12.3516992"><ele>294.66666666666663</ele><time>2026-04-18T12:11:45.972Z</time></trkpt><trkpt lat="42.737898" lon="12.3516133"><ele>294.8333333333333</ele><time>2026-04-18T12:11:46.986Z</time></trkpt><trkpt lat="42.7379488" lon="12.351526"><ele>295.0</ele><time>2026-04-18T12:11:48.005Z</time></trkpt><trkpt lat="42.7380055" lon="12.3514339"><ele>293.4</ele><time>2026-04-18T12:11:48.977Z</time></trkpt><trkpt lat="42.738066" lon="12.3513417"><ele>291.8</ele><time>2026-04-18T12:11:49.971Z</time></trkpt><trkpt lat="42.7381211" lon="12.3512391"><ele>290.2</ele><time>2026-04-18T12:11:50.98Z</time></trkpt><trkpt lat="42.7381717" lon="12.3511328"><ele>288.6</ele><time>2026-04-18T12:11:51.972Z</time></trkpt><trkpt lat="42.7382216" lon="12.3510314"><ele>287.0</ele><time>2026-04-18T12:11:52.967Z</time></trkpt><trkpt lat="42.7382723" lon="12.3509354"><ele>287.0</ele><time>2026-04-18T12:11:53.977Z</time></trkpt><trkpt lat="42.7383215" lon="12.3508491"><ele>287.0</ele><time>2026-04-18T12:11:54.973Z</time></trkpt><trkpt lat="42.7383755" lon="12.3507844"><ele>287.0</ele><time>2026-04-18T12:11:55.988Z</time></trkpt><trkpt lat="42.7384355" lon="12.3507214"><ele>287.0</ele><time>2026-04-18T12:11:56.969Z</time></trkpt><trkpt lat="42.7385078" lon="12.350671"><ele>287.0</ele><time>2026-04-18T12:11:57.977Z</time></trkpt><trkpt lat="42.7385854" lon="12.3506316"><ele>287.0</ele><time>2026-04-18T12:11:58.971Z</time></trkpt><trkpt lat="42.738656" lon="12.3505928"><ele>287.2857142857143</ele><time>2026-04-18T12:11:59.991Z</time></trkpt><trkpt lat="42.7387152" lon="12.3505517"><ele>287.57142857142856</ele><time>2026-04-18T12:12:00.982Z</time></trkpt><trkpt lat="42.7387595" lon="12.3504826"><ele>287.8571428571429</ele><time>2026-04-18T12:12:01.986Z</time></trkpt><trkpt lat="42.7388008" lon="12.3503974"><ele>288.1428571428571</ele><time>2026-04-18T12:12:02.965Z</time></trkpt><trkpt lat="42.7388424" lon="12.3503053"><ele>288.42857142857144</ele><time>2026-04-18T12:12:03.979Z</time></trkpt><trkpt lat="42.7388804" lon="12.3502172"><ele>288.7142857142857</ele><time>2026-04-18T12:12:04.982Z</time></trkpt><trkpt lat="42.7389124" lon="12.3501302"><ele>289.0</ele><time>2026-04-18T12:12:05.967Z</time></trkpt><trkpt lat="42.738946" lon="12.3500499"><ele>289.0</ele><time>2026-04-18T12:12:06.983Z</time></trkpt><trkpt lat="42.7389833" lon="12.3499781"><ele>289.0</ele><time>2026-04-18T12:12:07.966Z</time></trkpt><trkpt lat="42.7390292" lon="12.3499137"><ele>289.0</ele><time>2026-04-18T12:12:08.979Z</time></trkpt><trkpt lat="42.7391146" lon="12.3497919"><ele>289.0</ele><time>2026-04-18T12:12:10.986Z</time></trkpt><trkpt lat="42.7391577" lon="12.3497148"><ele>289.0</ele><time>2026-04-18T12:12:11.996Z</time></trkpt><trkpt lat="42.7392111" lon="12.3495969"><ele>289.0</ele><time>2026-04-18T12:12:12.969Z</time></trkpt><trkpt lat="42.7392726" lon="12.3494476"><ele>291.25</ele><time>2026-04-18T12:12:13.977Z</time></trkpt><trkpt lat="42.7393344" lon="12.3493156"><ele>293.5</ele><time>2026-04-18T12:12:14.985Z</time></trkpt><trkpt lat="42.7393986" lon="12.349189"><ele>295.75</ele><time>2026-04-18T12:12:16.001Z</time></trkpt><trkpt lat="42.7394728" lon="12.3490664"><ele>298.0</ele><time>2026-04-18T12:12:16.978Z</time></trkpt><trkpt lat="42.7395391" lon="12.3489439"><ele>295.4</ele><time>2026-04-18T12:12:17.977Z</time></trkpt><trkpt lat="42.7395964" lon="12.3488222"><ele>292.8</ele><time>2026-04-18T12:12:18.992Z</time></trkpt><trkpt lat="42.739637" lon="12.348707"><ele>290.2</ele><time>2026-04-18T12:12:19.98Z</time></trkpt><trkpt lat="42.7396652" lon="12.3485858"><ele>287.6</ele><time>2026-04-18T12:12:20.985Z</time></trkpt><trkpt lat="42.7396953" lon="12.3484617"><ele>285.0</ele><time>2026-04-18T12:12:21.981Z</time></trkpt><trkpt lat="42.7397246" lon="12.3483492"><ele>285.0</ele><time>2026-04-18T12:12:22.985Z</time></trkpt><trkpt lat="42.7397471" lon="12.3482644"><ele>285.0</ele><time>2026-04-18T12:12:23.975Z</time></trkpt><trkpt lat="42.7397531" lon="12.3481672"><ele>285.0</ele><time>2026-04-18T12:12:25.982Z</time></trkpt><trkpt lat="42.7397045" lon="12.3480846"><ele>285.0</ele><time>2026-04-18T12:12:27.997Z</time></trkpt><trkpt lat="42.7396326" lon="12.3480006"><ele>285.0</ele><time>2026-04-18T12:12:29.988Z</time></trkpt><trkpt lat="42.7395675" lon="12.347903"><ele>285.0</ele><time>2026-04-18T12:12:31.981Z</time></trkpt><trkpt lat="42.7395164" lon="12.3477769"><ele>283.0</ele><time>2026-04-18T12:12:33.995Z</time></trkpt><trkpt lat="42.7395259" lon="12.3476619"><ele>281.0</ele><time>2026-04-18T12:12:35.983Z</time></trkpt><trkpt lat="42.7395653" lon="12.3475387"><ele>279.0</ele><time>2026-04-18T12:12:37.994Z</time></trkpt><trkpt lat="42.7396087" lon="12.3474178"><ele>277.0</ele><time>2026-04-18T12:12:39.972Z</time></trkpt><trkpt lat="42.7396588" lon="12.3473034"><ele>275.0</ele><time>2026-04-18T12:12:41.992Z</time></trkpt><trkpt lat="42.7397327" lon="12.347246"><ele>275.0</ele><time>2026-04-18T12:12:43.976Z</time></trkpt><trkpt lat="42.739808" lon="12.3472216"><ele>275.0</ele><time>2026-04-18T12:12:45.982Z</time></trkpt><trkpt lat="42.7398748" lon="12.3471936"><ele>275.0</ele><time>2026-04-18T12:12:47.996Z</time></trkpt><trkpt lat="42.7399614" lon="12.3471821"><ele>275.0</ele><time>2026-04-18T12:12:50.987Z</time></trkpt><trkpt lat="42.7398764" lon="12.3471974"><ele>275.0</ele><time>2026-04-18T12:12:58.988Z</time></trkpt><trkpt lat="42.7397695" lon="12.3472454"><ele>275.0</ele><time>2026-04-18T12:13:01.006Z</time></trkpt><trkpt lat="42.7396768" lon="12.3473017"><ele>275.0</ele><time>2026-04-18T12:13:02.986Z</time></trkpt><trkpt lat="42.7396146" lon="12.3473868"><ele>275.0</ele><time>2026-04-18T12:13:04.988Z</time></trkpt><trkpt lat="42.7395712" lon="12.3474952"><ele>275.0</ele><time>2026-04-18T12:13:06.981Z</time></trkpt><trkpt lat="42.7395447" lon="12.3475899"><ele>275.0</ele><time>2026-04-18T12:13:08.987Z</time></trkpt><trkpt lat="42.7395121" lon="12.3476821"><ele>275.0</ele><time>2026-04-18T12:13:11.996Z</time></trkpt><trkpt lat="42.7394402" lon="12.34763"><ele>275.0</ele><time>2026-04-18T12:13:15.99Z</time></trkpt><trkpt lat="42.7394118" lon="12.3475219"><ele>275.0</ele><time>2026-04-18T12:13:17.98Z</time></trkpt><trkpt lat="42.739392" lon="12.3474183"><ele>275.0</ele><time>2026-04-18T12:13:19.979Z</time></trkpt><trkpt lat="42.739399" lon="12.3473217"><ele>275.0</ele><time>2026-04-18T12:13:21.991Z</time></trkpt><trkpt lat="42.7394161" lon="12.3472305"><ele>275.0</ele><time>2026-04-18T12:13:24.984Z</time></trkpt><trkpt lat="42.739469" lon="12.3471174"><ele>275.0</ele><time>2026-04-18T12:13:27.986Z</time></trkpt><trkpt lat="42.739528" lon="12.3470633"><ele>275.0</ele><time>2026-04-18T12:13:29.99Z</time></trkpt><trkpt lat="42.7395714" lon="12.347001"><ele>275.0</ele><time>2026-04-18T12:13:32.993Z</time></trkpt><trkpt lat="42.7395096" lon="12.3470314"><ele>275.0</ele><time>2026-04-18T12:13:36.989Z</time></trkpt><trkpt lat="42.7394762" lon="12.347118"><ele>275.0</ele><time>2026-04-18T12:13:38.986Z</time></trkpt><trkpt lat="42.7394346" lon="12.3472635"><ele>275.0</ele><time>2026-04-18T12:13:40.977Z</time></trkpt><trkpt lat="42.7394106" lon="12.3473888"><ele>275.0</ele><time>2026-04-18T12:13:42.992Z</time></trkpt><trkpt lat="42.7394258" lon="12.3475132"><ele>275.0</ele><time>2026-04-18T12:13:52.989Z</time></trkpt><trkpt lat="42.7394644" lon="12.3476317"><ele>275.0</ele><time>2026-04-18T12:13:54.984Z</time></trkpt><trkpt lat="42.7395087" lon="12.3477497"><ele>275.0</ele><time>2026-04-18T12:13:56.977Z</time></trkpt><trkpt lat="42.7395497" lon="12.3478922"><ele>275.0</ele><time>2026-04-18T12:13:58.984Z</time></trkpt><trkpt lat="42.739635" lon="12.348024"><ele>275.0</ele><time>2026-04-18T12:14:00.994Z</time></trkpt><trkpt lat="42.7396879" lon="12.3480881"><ele>275.0</ele><time>2026-04-18T12:14:01.985Z</time></trkpt><trkpt lat="42.7397404" lon="12.3481397"><ele>275.0</ele><time>2026-04-18T12:14:02.99Z</time></trkpt><trkpt lat="42.7398132" lon="12.3481712"><ele>275.0</ele><time>2026-04-18T12:14:04.97Z</time></trkpt><trkpt lat="42.7398702" lon="12.3481317"><ele>275.0</ele><time>2026-04-18T12:14:06.973Z</time></trkpt><trkpt lat="42.7399649" lon="12.3480414"><ele>275.0</ele><time>2026-04-18T12:14:08.977Z</time></trkpt><trkpt lat="42.7400729" lon="12.3479835"><ele>275.0</ele><time>2026-04-18T12:14:10.985Z</time></trkpt><trkpt lat="42.7401729" lon="12.347989"><ele>274.6666666666667</ele><time>2026-04-18T12:14:12.98Z</time></trkpt><trkpt lat="42.7402333" lon="12.3480162"><ele>274.33333333333337</ele><time>2026-04-18T12:14:13.988Z</time></trkpt><trkpt lat="42.7403018" lon="12.3480424"><ele>274.0</ele><time>2026-04-18T12:14:14.98Z</time></trkpt><trkpt lat="42.7403744" lon="12.3480704"><ele>273.6666666666667</ele><time>2026-04-18T12:14:15.995Z</time></trkpt><trkpt lat="42.7404561" lon="12.3480904"><ele>273.3333333333333</ele><time>2026-04-18T12:14:16.979Z</time></trkpt><trkpt lat="42.7405416" lon="12.3480973"><ele>273.0</ele><time>2026-04-18T12:14:17.977Z</time></trkpt><trkpt lat="42.7406185" lon="12.3480928"><ele>275.8333333333333</ele><time>2026-04-18T12:14:18.978Z</time></trkpt><trkpt lat="42.7406906" lon="12.3480925"><ele>278.6666666666667</ele><time>2026-04-18T12:14:19.991Z</time></trkpt><trkpt lat="42.7407617" lon="12.3480965"><ele>281.5</ele><time>2026-04-18T12:14:20.983Z</time></trkpt><trkpt lat="42.7408432" lon="12.3481118"><ele>284.33333333333337</ele><time>2026-04-18T12:14:21.968Z</time></trkpt><trkpt lat="42.7409354" lon="12.3481388"><ele>287.1666666666667</ele><time>2026-04-18T12:14:22.976Z</time></trkpt><trkpt lat="42.7410273" lon="12.3481726"><ele>290.0</ele><time>2026-04-18T12:14:23.979Z</time></trkpt><trkpt lat="42.7411191" lon="12.3482077"><ele>290.0</ele><time>2026-04-18T12:14:24.98Z</time></trkpt><trkpt lat="42.7412115" lon="12.3482431"><ele>290.0</ele><time>2026-04-18T12:14:25.989Z</time></trkpt><trkpt lat="42.7413084" lon="12.3482832"><ele>290.0</ele><time>2026-04-18T12:14:26.982Z</time></trkpt><trkpt lat="42.7414055" lon="12.3483203"><ele>290.0</ele><time>2026-04-18T12:14:27.982Z</time></trkpt><trkpt lat="42.7414992" lon="12.3483505"><ele>290.0</ele><time>2026-04-18T12:14:28.983Z</time></trkpt><trkpt lat="42.7415875" lon="12.3483778"><ele>290.0</ele><time>2026-04-18T12:14:29.977Z</time></trkpt><trkpt lat="42.7416771" lon="12.3484075"><ele>290.0</ele><time>2026-04-18T12:14:30.977Z</time></trkpt><trkpt lat="42.7417673" lon="12.3484331"><ele>290.0</ele><time>2026-04-18T12:14:31.983Z</time></trkpt><trkpt lat="42.7418578" lon="12.3484613"><ele>290.0</ele><time>2026-04-18T12:14:32.967Z</time></trkpt><trkpt lat="42.7419476" lon="12.3484846"><ele>290.0</ele><time>2026-04-18T12:14:33.96Z</time></trkpt><trkpt lat="42.7420385" lon="12.3485134"><ele>293.0</ele><time>2026-04-18T12:14:34.977Z</time></trkpt><trkpt lat="42.7421266" lon="12.3485421"><ele>296.0</ele><time>2026-04-18T12:14:35.976Z</time></trkpt><trkpt lat="42.7422034" lon="12.3485699"><ele>299.0</ele><time>2026-04-18T12:14:36.995Z</time></trkpt><trkpt lat="42.7423007" lon="12.3485736"><ele>302.0</ele><time>2026-04-18T12:14:38.981Z</time></trkpt><trkpt lat="42.7423907" lon="12.3484684"><ele>305.0</ele><time>2026-04-18T12:14:41.002Z</time></trkpt><trkpt lat="42.7424534" lon="12.3483928"><ele>305.0</ele><time>2026-04-18T12:14:41.977Z</time></trkpt><trkpt lat="42.7425169" lon="12.3483312"><ele>305.0</ele><time>2026-04-18T12:14:42.963Z</time></trkpt><trkpt lat="42.7425766" lon="12.3482895"><ele>305.0</ele><time>2026-04-18T12:14:43.992Z</time></trkpt><trkpt lat="42.7426475" lon="12.34827"><ele>305.0</ele><time>2026-04-18T12:14:44.977Z</time></trkpt><trkpt lat="42.7427148" lon="12.3482514"><ele>305.0</ele><time>2026-04-18T12:14:45.973Z</time></trkpt><trkpt lat="42.74284" lon="12.3482663"><ele>305.0</ele><time>2026-04-18T12:14:47.981Z</time></trkpt><trkpt lat="42.7429106" lon="12.3482938"><ele>306.4</ele><time>2026-04-18T12:14:48.997Z</time></trkpt><trkpt lat="42.743" lon="12.3483343"><ele>307.8</ele><time>2026-04-18T12:14:49.99Z</time></trkpt><trkpt lat="42.7430924" lon="12.3483812"><ele>309.2</ele><time>2026-04-18T12:14:50.965Z</time></trkpt><trkpt lat="42.7431883" lon="12.3484316"><ele>310.6</ele><time>2026-04-18T12:14:52.01Z</time></trkpt><trkpt lat="42.7432884" lon="12.348484"><ele>312.0</ele><time>2026-04-18T12:14:52.979Z</time></trkpt><trkpt lat="42.7433923" lon="12.3485347"><ele>312.0</ele><time>2026-04-18T12:14:53.974Z</time></trkpt><trkpt lat="42.7434931" lon="12.348586"><ele>312.0</ele><time>2026-04-18T12:14:54.978Z</time></trkpt><trkpt lat="42.7435912" lon="12.3486302"><ele>312.0</ele><time>2026-04-18T12:14:55.98Z</time></trkpt><trkpt lat="42.7436761" lon="12.3486643"><ele>312.0</ele><time>2026-04-18T12:14:56.991Z</time></trkpt><trkpt lat="42.7437568" lon="12.3486901"><ele>312.0</ele><time>2026-04-18T12:14:57.975Z</time></trkpt><trkpt lat="42.7438406" lon="12.3487156"><ele>312.8</ele><time>2026-04-18T12:14:58.98Z</time></trkpt><trkpt lat="42.7439229" lon="12.3487452"><ele>313.6</ele><time>2026-04-18T12:15:00.009Z</time></trkpt><trkpt lat="42.7440087" lon="12.3487759"><ele>314.40000000000003</ele><time>2026-04-18T12:15:00.972Z</time></trkpt><trkpt lat="42.7440972" lon="12.348806"><ele>315.2</ele><time>2026-04-18T12:15:01.981Z</time></trkpt><trkpt lat="42.7441866" lon="12.348844"><ele>316.0</ele><time>2026-04-18T12:15:02.98Z</time></trkpt><trkpt lat="42.7442744" lon="12.3488854"><ele>317.5</ele><time>2026-04-18T12:15:03.974Z</time></trkpt><trkpt lat="42.7443527" lon="12.3489235"><ele>319.0</ele><time>2026-04-18T12:15:04.99Z</time></trkpt><trkpt lat="42.7444153" lon="12.348942"><ele>320.5</ele><time>2026-04-18T12:15:05.976Z</time></trkpt><trkpt lat="42.7445059" lon="12.3489619"><ele>322.0</ele><time>2026-04-18T12:15:07.982Z</time></trkpt><trkpt lat="42.7445738" lon="12.3489782"><ele>323.5</ele><time>2026-04-18T12:15:09.99Z</time></trkpt><trkpt lat="42.7446687" lon="12.3489702"><ele>325.0</ele><time>2026-04-18T12:15:12.009Z</time></trkpt><trkpt lat="42.7447321" lon="12.3489426"><ele>325.3333333333333</ele><time>2026-04-18T12:15:12.989Z</time></trkpt><trkpt lat="42.7447988" lon="12.348898"><ele>325.66666666666663</ele><time>2026-04-18T12:15:13.971Z</time></trkpt><trkpt lat="42.7448747" lon="12.3488351"><ele>326.0</ele><time>2026-04-18T12:15:14.98Z</time></trkpt><trkpt lat="42.7449541" lon="12.3487938"><ele>326.3333333333333</ele><time>2026-04-18T12:15:15.976Z</time></trkpt><trkpt lat="42.7450338" lon="12.3487626"><ele>326.6666666666667</ele><time>2026-04-18T12:15:16.988Z</time></trkpt><trkpt lat="42.7451077" lon="12.3487464"><ele>327.0</ele><time>2026-04-18T12:15:17.995Z</time></trkpt><trkpt lat="42.7451825" lon="12.3487454"><ele>328.3333333333333</ele><time>2026-04-18T12:15:18.993Z</time></trkpt><trkpt lat="42.7452635" lon="12.348755"><ele>329.6666666666667</ele><time>2026-04-18T12:15:19.989Z</time></trkpt><trkpt lat="42.7453465" lon="12.3487625"><ele>331.0</ele><time>2026-04-18T12:15:20.992Z</time></trkpt><trkpt lat="42.7454344" lon="12.3487629"><ele>332.33333333333337</ele><time>2026-04-18T12:15:21.975Z</time></trkpt><trkpt lat="42.7455177" lon="12.3487425"><ele>333.6666666666667</ele><time>2026-04-18T12:15:22.974Z</time></trkpt><trkpt lat="42.7455984" lon="12.3487103"><ele>335.0</ele><time>2026-04-18T12:15:23.991Z</time></trkpt><trkpt lat="42.7456757" lon="12.3486782"><ele>335.0</ele><time>2026-04-18T12:15:24.977Z</time></trkpt><trkpt lat="42.7457473" lon="12.3486453"><ele>335.0</ele><time>2026-04-18T12:15:25.983Z</time></trkpt><trkpt lat="42.7458078" lon="12.3486142"><ele>335.0</ele><time>2026-04-18T12:15:26.982Z</time></trkpt><trkpt lat="42.7459165" lon="12.3485989"><ele>335.0</ele><time>2026-04-18T12:15:28.995Z</time></trkpt><trkpt lat="42.7460111" lon="12.3486109"><ele>335.0</ele><time>2026-04-18T12:15:30.985Z</time></trkpt><trkpt lat="42.7460377" lon="12.3487056"><ele>335.0</ele><time>2026-04-18T12:15:33.987Z</time></trkpt><trkpt lat="42.7461379" lon="12.3486823"><ele>335.0</ele><time>2026-04-18T12:15:37.992Z</time></trkpt><trkpt lat="42.7462184" lon="12.3486344"><ele>335.0</ele><time>2026-04-18T12:15:39.986Z</time></trkpt><trkpt lat="42.7462736" lon="12.3485915"><ele>335.0</ele><time>2026-04-18T12:15:41.99Z</time></trkpt><trkpt lat="42.7462085" lon="12.3485497"><ele>335.0</ele><time>2026-04-18T12:15:45.97Z</time></trkpt><trkpt lat="42.7461323" lon="12.3486275"><ele>335.0</ele><time>2026-04-18T12:15:47.982Z</time></trkpt><trkpt lat="42.7460355" lon="12.3487375"><ele>335.0</ele><time>2026-04-18T12:15:49.979Z</time></trkpt><trkpt lat="42.7459777" lon="12.3488082"><ele>335.8</ele><time>2026-04-18T12:15:50.991Z</time></trkpt><trkpt lat="42.7459158" lon="12.3488938"><ele>336.6</ele><time>2026-04-18T12:15:51.987Z</time></trkpt><trkpt lat="42.7458513" lon="12.3489922"><ele>337.4</ele><time>2026-04-18T12:15:52.991Z</time></trkpt><trkpt lat="42.7457816" lon="12.3491015"><ele>338.2</ele><time>2026-04-18T12:15:53.983Z</time></trkpt><trkpt lat="42.7457115" lon="12.349214"><ele>339.0</ele><time>2026-04-18T12:15:54.98Z</time></trkpt><trkpt lat="42.7456458" lon="12.3493238"><ele>339.0</ele><time>2026-04-18T12:15:55.987Z</time></trkpt><trkpt lat="42.7455809" lon="12.3494386"><ele>339.0</ele><time>2026-04-18T12:15:56.986Z</time></trkpt><trkpt lat="42.7455126" lon="12.3495567"><ele>339.0</ele><time>2026-04-18T12:15:57.975Z</time></trkpt><trkpt lat="42.7454453" lon="12.3496674"><ele>339.0</ele><time>2026-04-18T12:15:58.985Z</time></trkpt><trkpt lat="42.7453754" lon="12.349773"><ele>339.0</ele><time>2026-04-18T12:15:59.983Z</time></trkpt><trkpt lat="42.7452996" lon="12.349866"><ele>340.2</ele><time>2026-04-18T12:16:00.986Z</time></trkpt><trkpt lat="42.7452243" lon="12.3499583"><ele>341.4</ele><time>2026-04-18T12:16:01.978Z</time></trkpt><trkpt lat="42.7451646" lon="12.3500644"><ele>342.6</ele><time>2026-04-18T12:16:02.975Z</time></trkpt><trkpt lat="42.7451263" lon="12.3501851"><ele>343.8</ele><time>2026-04-18T12:16:03.964Z</time></trkpt><trkpt lat="42.7451023" lon="12.3503282"><ele>345.0</ele><time>2026-04-18T12:16:04.975Z</time></trkpt><trkpt lat="42.7450883" lon="12.3504757"><ele>347.4</ele><time>2026-04-18T12:16:05.973Z</time></trkpt><trkpt lat="42.7450661" lon="12.350613"><ele>349.8</ele><time>2026-04-18T12:16:07.001Z</time></trkpt><trkpt lat="42.7450295" lon="12.3507264"><ele>352.20000000000005</ele><time>2026-04-18T12:16:07.962Z</time></trkpt><trkpt lat="42.7449673" lon="12.3508083"><ele>354.6</ele><time>2026-04-18T12:16:08.986Z</time></trkpt><trkpt lat="42.7448831" lon="12.3508819"><ele>357.0</ele><time>2026-04-18T12:16:09.976Z</time></trkpt><trkpt lat="42.7447899" lon="12.3509549"><ele>357.0</ele><time>2026-04-18T12:16:10.974Z</time></trkpt><trkpt lat="42.7447014" lon="12.3510171"><ele>357.0</ele><time>2026-04-18T12:16:11.997Z</time></trkpt><trkpt lat="42.7446257" lon="12.3510892"><ele>357.0</ele><time>2026-04-18T12:16:12.968Z</time></trkpt><trkpt lat="42.7445619" lon="12.3511835"><ele>357.0</ele><time>2026-04-18T12:16:13.991Z</time></trkpt><trkpt lat="42.7445011" lon="12.3512957"><ele>357.0</ele><time>2026-04-18T12:16:14.99Z</time></trkpt><trkpt lat="42.7444447" lon="12.3514175"><ele>356.8</ele><time>2026-04-18T12:16:15.987Z</time></trkpt><trkpt lat="42.7443875" lon="12.3515264"><ele>356.6</ele><time>2026-04-18T12:16:16.983Z</time></trkpt><trkpt lat="42.7443316" lon="12.3516314"><ele>356.40000000000003</ele><time>2026-04-18T12:16:17.986Z</time></trkpt><trkpt lat="42.7442707" lon="12.3517466"><ele>356.20000000000005</ele><time>2026-04-18T12:16:18.993Z</time></trkpt><trkpt lat="42.7442209" lon="12.3518632"><ele>356.0</ele><time>2026-04-18T12:16:19.986Z</time></trkpt><trkpt lat="42.7441811" lon="12.3519914"><ele>356.0</ele><time>2026-04-18T12:16:21.012Z</time></trkpt><trkpt lat="42.7441507" lon="12.3521279"><ele>356.0</ele><time>2026-04-18T12:16:21.98Z</time></trkpt><trkpt lat="42.7441308" lon="12.3522673"><ele>356.0</ele><time>2026-04-18T12:16:22.989Z</time></trkpt><trkpt lat="42.7441215" lon="12.3524132"><ele>356.0</ele><time>2026-04-18T12:16:23.988Z</time></trkpt><trkpt lat="42.7441224" lon="12.3525489"><ele>356.0</ele><time>2026-04-18T12:16:24.977Z</time></trkpt><trkpt lat="42.7441252" lon="12.3526758"><ele>356.33333333333337</ele><time>2026-04-18T12:16:25.991Z</time></trkpt><trkpt lat="42.7441256" lon="12.3527943"><ele>356.6666666666667</ele><time>2026-04-18T12:16:26.978Z</time></trkpt><trkpt lat="42.7441043" lon="12.3528843"><ele>357.0</ele><time>2026-04-18T12:16:27.99Z</time></trkpt><trkpt lat="42.7440606" lon="12.352957"><ele>357.3333333333333</ele><time>2026-04-18T12:16:28.988Z</time></trkpt><trkpt lat="42.7440039" lon="12.3530201"><ele>357.66666666666663</ele><time>2026-04-18T12:16:29.983Z</time></trkpt><trkpt lat="42.7439359" lon="12.3530865"><ele>358.0</ele><time>2026-04-18T12:16:30.989Z</time></trkpt><trkpt lat="42.7438585" lon="12.3531495"><ele>358.59999999999997</ele><time>2026-04-18T12:16:31.99Z</time></trkpt><trkpt lat="42.7437698" lon="12.3532147"><ele>359.2</ele><time>2026-04-18T12:16:32.983Z</time></trkpt><trkpt lat="42.7436733" lon="12.3532716"><ele>359.8</ele><time>2026-04-18T12:16:33.972Z</time></trkpt><trkpt lat="42.7435596" lon="12.3533077"><ele>360.4</ele><time>2026-04-18T12:16:34.992Z</time></trkpt><trkpt lat="42.7434351" lon="12.3533376"><ele>361.0</ele><time>2026-04-18T12:16:35.983Z</time></trkpt><trkpt lat="42.7433114" lon="12.3533489"><ele>362.5</ele><time>2026-04-18T12:16:36.975Z</time></trkpt><trkpt lat="42.7431868" lon="12.3533507"><ele>364.0</ele><time>2026-04-18T12:16:37.983Z</time></trkpt><trkpt lat="42.743064" lon="12.353355"><ele>365.5</ele><time>2026-04-18T12:16:38.983Z</time></trkpt><trkpt lat="42.7429468" lon="12.35336"><ele>367.0</ele><time>2026-04-18T12:16:39.97Z</time></trkpt><trkpt lat="42.7428364" lon="12.3533685"><ele>367.0</ele><time>2026-04-18T12:16:40.974Z</time></trkpt><trkpt lat="42.7427264" lon="12.353377"><ele>367.0</ele><time>2026-04-18T12:16:41.99Z</time></trkpt><trkpt lat="42.742617" lon="12.3533943"><ele>367.0</ele><time>2026-04-18T12:16:42.983Z</time></trkpt><trkpt lat="42.742507" lon="12.3534169"><ele>367.0</ele><time>2026-04-18T12:16:43.976Z</time></trkpt><trkpt lat="42.7424021" lon="12.353445"><ele>367.0</ele><time>2026-04-18T12:16:44.983Z</time></trkpt><trkpt lat="42.7423004" lon="12.3534953"><ele>366.6</ele><time>2026-04-18T12:16:45.993Z</time></trkpt><trkpt lat="42.7422079" lon="12.3535677"><ele>366.20000000000005</ele><time>2026-04-18T12:16:46.979Z</time></trkpt><trkpt lat="42.7421242" lon="12.3536489"><ele>365.8</ele><time>2026-04-18T12:16:47.989Z</time></trkpt><trkpt lat="42.7420446" lon="12.3537395"><ele>365.4</ele><time>2026-04-18T12:16:48.973Z</time></trkpt><trkpt lat="42.7419668" lon="12.3538585"><ele>365.0</ele><time>2026-04-18T12:16:49.973Z</time></trkpt><trkpt lat="42.7418882" lon="12.353994"><ele>364.5</ele><time>2026-04-18T12:16:50.993Z</time></trkpt><trkpt lat="42.7418056" lon="12.3541441"><ele>364.0</ele><time>2026-04-18T12:16:51.987Z</time></trkpt><trkpt lat="42.7417194" lon="12.3543117"><ele>363.5</ele><time>2026-04-18T12:16:52.977Z</time></trkpt><trkpt lat="42.7416303" lon="12.3544856"><ele>363.0</ele><time>2026-04-18T12:16:54Z</time></trkpt><trkpt lat="42.7415266" lon="12.3546609"><ele>366.3333333333333</ele><time>2026-04-18T12:16:54.976Z</time></trkpt><trkpt lat="42.7414179" lon="12.3548234"><ele>369.66666666666663</ele><time>2026-04-18T12:16:55.984Z</time></trkpt><trkpt lat="42.7413038" lon="12.3549769"><ele>373.0</ele><time>2026-04-18T12:16:56.97Z</time></trkpt><trkpt lat="42.7411815" lon="12.355131"><ele>373.0</ele><time>2026-04-18T12:16:57.965Z</time></trkpt><trkpt lat="42.7410584" lon="12.3552849"><ele>373.0</ele><time>2026-04-18T12:16:58.978Z</time></trkpt><trkpt lat="42.7409495" lon="12.3554287"><ele>373.0</ele><time>2026-04-18T12:16:59.982Z</time></trkpt><trkpt lat="42.7408519" lon="12.3555589"><ele>371.2</ele><time>2026-04-18T12:17:00.973Z</time></trkpt><trkpt lat="42.7407669" lon="12.3556747"><ele>369.4</ele><time>2026-04-18T12:17:01.983Z</time></trkpt><trkpt lat="42.7406971" lon="12.3557751"><ele>367.59999999999997</ele><time>2026-04-18T12:17:02.975Z</time></trkpt><trkpt lat="42.7406308" lon="12.3558606"><ele>365.79999999999995</ele><time>2026-04-18T12:17:03.984Z</time></trkpt><trkpt lat="42.7405727" lon="12.3559547"><ele>364.0</ele><time>2026-04-18T12:17:04.984Z</time></trkpt><trkpt lat="42.740537" lon="12.3560645"><ele>364.0</ele><time>2026-04-18T12:17:05.983Z</time></trkpt><trkpt lat="42.7405161" lon="12.3561994"><ele>364.0</ele><time>2026-04-18T12:17:06.991Z</time></trkpt><trkpt lat="42.7405128" lon="12.3563639"><ele>364.0</ele><time>2026-04-18T12:17:07.971Z</time></trkpt><trkpt lat="42.7405037" lon="12.3565447"><ele>364.0</ele><time>2026-04-18T12:17:08.982Z</time></trkpt><trkpt lat="42.7404788" lon="12.35673"><ele>365.4</ele><time>2026-04-18T12:17:10Z</time></trkpt><trkpt lat="42.7404564" lon="12.3569022"><ele>366.79999999999995</ele><time>2026-04-18T12:17:10.969Z</time></trkpt><trkpt lat="42.7404384" lon="12.3570378"><ele>368.20000000000005</ele><time>2026-04-18T12:17:11.978Z</time></trkpt><trkpt lat="42.7404381" lon="12.357152"><ele>369.6</ele><time>2026-04-18T12:17:12.971Z</time></trkpt><trkpt lat="42.7404491" lon="12.3572592"><ele>371.0</ele><time>2026-04-18T12:17:13.976Z</time></trkpt><trkpt lat="42.740474" lon="12.3573854"><ele>372.0</ele><time>2026-04-18T12:17:14.973Z</time></trkpt><trkpt lat="42.7405229" lon="12.3575283"><ele>373.0</ele><time>2026-04-18T12:17:15.988Z</time></trkpt><trkpt lat="42.7405836" lon="12.3576828"><ele>374.0</ele><time>2026-04-18T12:17:16.97Z</time></trkpt><trkpt lat="42.7406587" lon="12.3578465"><ele>375.0</ele><time>2026-04-18T12:17:17.982Z</time></trkpt><trkpt lat="42.7407257" lon="12.3580203"><ele>373.75</ele><time>2026-04-18T12:17:18.974Z</time></trkpt><trkpt lat="42.7407907" lon="12.3581938"><ele>372.5</ele><time>2026-04-18T12:17:19.972Z</time></trkpt><trkpt lat="42.7408611" lon="12.3583623"><ele>371.25</ele><time>2026-04-18T12:17:20.981Z</time></trkpt><trkpt lat="42.740935" lon="12.3585364"><ele>370.0</ele><time>2026-04-18T12:17:21.971Z</time></trkpt><trkpt lat="42.7410098" lon="12.3587135"><ele>374.0</ele><time>2026-04-18T12:17:22.969Z</time></trkpt><trkpt lat="42.7410719" lon="12.3588864"><ele>378.0</ele><time>2026-04-18T12:17:23.978Z</time></trkpt><trkpt lat="42.7411217" lon="12.3590411"><ele>382.0</ele><time>2026-04-18T12:17:24.976Z</time></trkpt><trkpt lat="42.7411568" lon="12.3591863"><ele>386.0</ele><time>2026-04-18T12:17:25.975Z</time></trkpt><trkpt lat="42.7411699" lon="12.3593332"><ele>386.0</ele><time>2026-04-18T12:17:26.98Z</time></trkpt><trkpt lat="42.7411552" lon="12.3594811"><ele>386.0</ele><time>2026-04-18T12:17:27.973Z</time></trkpt><trkpt lat="42.7411329" lon="12.3596459"><ele>386.0</ele><time>2026-04-18T12:17:28.976Z</time></trkpt><trkpt lat="42.7411182" lon="12.3598295"><ele>386.0</ele><time>2026-04-18T12:17:29.994Z</time></trkpt><trkpt lat="42.7411032" lon="12.3600242"><ele>386.75</ele><time>2026-04-18T12:17:30.974Z</time></trkpt><trkpt lat="42.7410907" lon="12.3602169"><ele>387.5</ele><time>2026-04-18T12:17:31.984Z</time></trkpt><trkpt lat="42.7410707" lon="12.3604019"><ele>388.25</ele><time>2026-04-18T12:17:32.974Z</time></trkpt><trkpt lat="42.7410457" lon="12.3605827"><ele>389.0</ele><time>2026-04-18T12:17:33.987Z</time></trkpt><trkpt lat="42.7410226" lon="12.3607568"><ele>386.0</ele><time>2026-04-18T12:17:34.985Z</time></trkpt><trkpt lat="42.7410035" lon="12.360912"><ele>383.0</ele><time>2026-04-18T12:17:35.982Z</time></trkpt><trkpt lat="42.7409813" lon="12.361054"><ele>380.0</ele><time>2026-04-18T12:17:36.982Z</time></trkpt><trkpt lat="42.7409363" lon="12.3611922"><ele>377.0</ele><time>2026-04-18T12:17:37.982Z</time></trkpt><trkpt lat="42.7408714" lon="12.3613275"><ele>378.75</ele><time>2026-04-18T12:17:38.983Z</time></trkpt><trkpt lat="42.740801" lon="12.3614682"><ele>380.5</ele><time>2026-04-18T12:17:39.985Z</time></trkpt><trkpt lat="42.7407283" lon="12.3616406"><ele>382.25</ele><time>2026-04-18T12:17:40.974Z</time></trkpt><trkpt lat="42.7406636" lon="12.3618103"><ele>384.0</ele><time>2026-04-18T12:17:41.97Z</time></trkpt><trkpt lat="42.7405983" lon="12.3619601"><ele>384.0</ele><time>2026-04-18T12:17:42.965Z</time></trkpt><trkpt lat="42.740538" lon="12.3620881"><ele>384.0</ele><time>2026-04-18T12:17:43.984Z</time></trkpt><trkpt lat="42.7404751" lon="12.36219"><ele>384.0</ele><time>2026-04-18T12:17:44.982Z</time></trkpt><trkpt lat="42.740402" lon="12.3622666"><ele>384.0</ele><time>2026-04-18T12:17:45.986Z</time></trkpt><trkpt lat="42.7403164" lon="12.3623329"><ele>384.0</ele><time>2026-04-18T12:17:46.97Z</time></trkpt><trkpt lat="42.7402021" lon="12.3623807"><ele>384.4</ele><time>2026-04-18T12:17:47.981Z</time></trkpt><trkpt lat="42.7400912" lon="12.3624215"><ele>384.79999999999995</ele><time>2026-04-18T12:17:48.964Z</time></trkpt><trkpt lat="42.7399915" lon="12.362443"><ele>385.20000000000005</ele><time>2026-04-18T12:17:49.972Z</time></trkpt><trkpt lat="42.7398968" lon="12.3624669"><ele>385.6</ele><time>2026-04-18T12:17:50.994Z</time></trkpt><trkpt lat="42.7398197" lon="12.3624992"><ele>386.0</ele><time>2026-04-18T12:17:51.972Z</time></trkpt><trkpt lat="42.7397496" lon="12.3625396"><ele>386.0</ele><time>2026-04-18T12:17:52.973Z</time></trkpt><trkpt lat="42.7396948" lon="12.3626214"><ele>386.0</ele><time>2026-04-18T12:17:53.98Z</time></trkpt><trkpt lat="42.7396544" lon="12.3627432"><ele>386.0</ele><time>2026-04-18T12:17:54.973Z</time></trkpt><trkpt lat="42.7396395" lon="12.3629028"><ele>386.0</ele><time>2026-04-18T12:17:55.973Z</time></trkpt><trkpt lat="42.7396416" lon="12.3630845"><ele>386.0</ele><time>2026-04-18T12:17:56.977Z</time></trkpt><trkpt lat="42.7396529" lon="12.3633001"><ele>388.5</ele><time>2026-04-18T12:17:57.989Z</time></trkpt><trkpt lat="42.7396686" lon="12.3635295"><ele>391.0</ele><time>2026-04-18T12:17:58.984Z</time></trkpt><trkpt lat="42.7396683" lon="12.3637232"><ele>393.5</ele><time>2026-04-18T12:17:59.977Z</time></trkpt><trkpt lat="42.739659" lon="12.363887"><ele>396.0</ele><time>2026-04-18T12:18:00.984Z</time></trkpt><trkpt lat="42.7396346" lon="12.3640475"><ele>397.25</ele><time>2026-04-18T12:18:01.971Z</time></trkpt><trkpt lat="42.739588" lon="12.3642002"><ele>398.5</ele><time>2026-04-18T12:18:02.975Z</time></trkpt><trkpt lat="42.7395469" lon="12.3643532"><ele>399.75</ele><time>2026-04-18T12:18:03.971Z</time></trkpt><trkpt lat="42.7395187" lon="12.3645119"><ele>401.0</ele><time>2026-04-18T12:18:04.969Z</time></trkpt><trkpt lat="42.7395049" lon="12.3646765"><ele>402.25</ele><time>2026-04-18T12:18:05.982Z</time></trkpt><trkpt lat="42.7395024" lon="12.3648527"><ele>403.5</ele><time>2026-04-18T12:18:06.965Z</time></trkpt><trkpt lat="42.7395185" lon="12.365039"><ele>404.75</ele><time>2026-04-18T12:18:07.975Z</time></trkpt><trkpt lat="42.7395386" lon="12.365227"><ele>406.0</ele><time>2026-04-18T12:18:08.978Z</time></trkpt><trkpt lat="42.7395633" lon="12.3654069"><ele>406.75</ele><time>2026-04-18T12:18:09.97Z</time></trkpt><trkpt lat="42.7395897" lon="12.3655653"><ele>407.5</ele><time>2026-04-18T12:18:10.976Z</time></trkpt><trkpt lat="42.7396178" lon="12.3657173"><ele>408.25</ele><time>2026-04-18T12:18:11.969Z</time></trkpt><trkpt lat="42.7396552" lon="12.3658704"><ele>409.0</ele><time>2026-04-18T12:18:12.97Z</time></trkpt><trkpt lat="42.7397372" lon="12.3660383"><ele>409.0</ele><time>2026-04-18T12:18:13.975Z</time></trkpt><trkpt lat="42.7398336" lon="12.3662165"><ele>409.0</ele><time>2026-04-18T12:18:14.97Z</time></trkpt><trkpt lat="42.7399309" lon="12.366382"><ele>409.0</ele><time>2026-04-18T12:18:15.984Z</time></trkpt><trkpt lat="42.7400207" lon="12.3665338"><ele>409.6</ele><time>2026-04-18T12:18:16.973Z</time></trkpt><trkpt lat="42.7401059" lon="12.3666763"><ele>410.2</ele><time>2026-04-18T12:18:17.968Z</time></trkpt><trkpt lat="42.7401747" lon="12.3667962"><ele>410.8</ele><time>2026-04-18T12:18:18.968Z</time></trkpt><trkpt lat="42.7402088" lon="12.3669023"><ele>411.40000000000003</ele><time>2026-04-18T12:18:19.971Z</time></trkpt><trkpt lat="42.7401967" lon="12.3669925"><ele>412.0</ele><time>2026-04-18T12:18:20.984Z</time></trkpt><trkpt lat="42.7401523" lon="12.367077"><ele>412.0</ele><time>2026-04-18T12:18:21.979Z</time></trkpt><trkpt lat="42.7400872" lon="12.3671506"><ele>412.0</ele><time>2026-04-18T12:18:22.983Z</time></trkpt><trkpt lat="42.7400022" lon="12.3672026"><ele>412.0</ele><time>2026-04-18T12:18:23.972Z</time></trkpt><trkpt lat="42.7399206" lon="12.3672499"><ele>412.0</ele><time>2026-04-18T12:18:24.968Z</time></trkpt><trkpt lat="42.7398285" lon="12.3673138"><ele>412.0</ele><time>2026-04-18T12:18:25.974Z</time></trkpt><trkpt lat="42.7397456" lon="12.3673999"><ele>413.20000000000005</ele><time>2026-04-18T12:18:26.984Z</time></trkpt><trkpt lat="42.7396694" lon="12.3675214"><ele>414.4</ele><time>2026-04-18T12:18:27.97Z</time></trkpt><trkpt lat="42.7396044" lon="12.3676388"><ele>415.6</ele><time>2026-04-18T12:18:28.969Z</time></trkpt><trkpt lat="42.7395464" lon="12.3677565"><ele>416.79999999999995</ele><time>2026-04-18T12:18:29.969Z</time></trkpt><trkpt lat="42.739501" lon="12.3678881"><ele>418.0</ele><time>2026-04-18T12:18:30.985Z</time></trkpt><trkpt lat="42.7394746" lon="12.3680471"><ele>418.59999999999997</ele><time>2026-04-18T12:18:31.969Z</time></trkpt><trkpt lat="42.7394668" lon="12.3682271"><ele>419.2</ele><time>2026-04-18T12:18:32.971Z</time></trkpt><trkpt lat="42.73946" lon="12.3683926"><ele>419.8</ele><time>2026-04-18T12:18:33.976Z</time></trkpt><trkpt lat="42.7394574" lon="12.3685364"><ele>420.4</ele><time>2026-04-18T12:18:34.965Z</time></trkpt><trkpt lat="42.7394668" lon="12.3686509"><ele>421.0</ele><time>2026-04-18T12:18:35.999Z</time></trkpt><trkpt lat="42.7394947" lon="12.3687555"><ele>421.0</ele><time>2026-04-18T12:18:36.985Z</time></trkpt><trkpt lat="42.7395461" lon="12.3688529"><ele>421.0</ele><time>2026-04-18T12:18:37.982Z</time></trkpt><trkpt lat="42.739634" lon="12.3689591"><ele>421.0</ele><time>2026-04-18T12:18:38.971Z</time></trkpt><trkpt lat="42.7397379" lon="12.3690873"><ele>421.0</ele><time>2026-04-18T12:18:39.98Z</time></trkpt><trkpt lat="42.7398473" lon="12.3692328"><ele>422.0</ele><time>2026-04-18T12:18:40.986Z</time></trkpt><trkpt lat="42.7399695" lon="12.3693755"><ele>423.0</ele><time>2026-04-18T12:18:41.982Z</time></trkpt><trkpt lat="42.7400827" lon="12.36951"><ele>424.0</ele><time>2026-04-18T12:18:42.983Z</time></trkpt><trkpt lat="42.7401772" lon="12.3696309"><ele>425.0</ele><time>2026-04-18T12:18:43.978Z</time></trkpt><trkpt lat="42.7402534" lon="12.3697343"><ele>427.8</ele><time>2026-04-18T12:18:44.981Z</time></trkpt><trkpt lat="42.7403115" lon="12.3698225"><ele>430.6</ele><time>2026-04-18T12:18:45.983Z</time></trkpt><trkpt lat="42.7403594" lon="12.3698905"><ele>433.4</ele><time>2026-04-18T12:18:46.99Z</time></trkpt><trkpt lat="42.740402" lon="12.3699998"><ele>436.2</ele><time>2026-04-18T12:18:48.987Z</time></trkpt><trkpt lat="42.7403392" lon="12.3700904"><ele>439.0</ele><time>2026-04-18T12:18:50.98Z</time></trkpt><trkpt lat="42.7402214" lon="12.3701605"><ele>437.79999999999995</ele><time>2026-04-18T12:18:52.984Z</time></trkpt><trkpt lat="42.7401414" lon="12.370189"><ele>436.59999999999997</ele><time>2026-04-18T12:18:53.977Z</time></trkpt><trkpt lat="42.7400436" lon="12.3702289"><ele>435.4</ele><time>2026-04-18T12:18:54.994Z</time></trkpt><trkpt lat="42.7399279" lon="12.3702761"><ele>434.2</ele><time>2026-04-18T12:18:55.985Z</time></trkpt><trkpt lat="42.7398147" lon="12.3703165"><ele>433.0</ele><time>2026-04-18T12:18:56.983Z</time></trkpt><trkpt lat="42.7397063" lon="12.3703454"><ele>433.0</ele><time>2026-04-18T12:18:57.986Z</time></trkpt><trkpt lat="42.739591" lon="12.3703704"><ele>433.0</ele><time>2026-04-18T12:18:58.983Z</time></trkpt><trkpt lat="42.7394658" lon="12.3703994"><ele>433.0</ele><time>2026-04-18T12:18:59.992Z</time></trkpt><trkpt lat="42.739343" lon="12.370431"><ele>433.0</ele><time>2026-04-18T12:19:00.992Z</time></trkpt><trkpt lat="42.7392234" lon="12.3704585"><ele>431.75</ele><time>2026-04-18T12:19:01.98Z</time></trkpt><trkpt lat="42.7391037" lon="12.3704822"><ele>430.5</ele><time>2026-04-18T12:19:02.987Z</time></trkpt><trkpt lat="42.7389834" lon="12.3704995"><ele>429.25</ele><time>2026-04-18T12:19:03.996Z</time></trkpt><trkpt lat="42.7388639" lon="12.370517"><ele>428.0</ele><time>2026-04-18T12:19:04.973Z</time></trkpt><trkpt lat="42.7387413" lon="12.3705405"><ele>430.0</ele><time>2026-04-18T12:19:05.985Z</time></trkpt><trkpt lat="42.7386145" lon="12.3705604"><ele>432.0</ele><time>2026-04-18T12:19:06.974Z</time></trkpt><trkpt lat="42.7384797" lon="12.3705815"><ele>434.0</ele><time>2026-04-18T12:19:07.969Z</time></trkpt><trkpt lat="42.7383401" lon="12.3706041"><ele>436.0</ele><time>2026-04-18T12:19:08.982Z</time></trkpt><trkpt lat="42.7382014" lon="12.3706319"><ele>436.0</ele><time>2026-04-18T12:19:09.999Z</time></trkpt><trkpt lat="42.7380564" lon="12.3706547"><ele>436.0</ele><time>2026-04-18T12:19:10.98Z</time></trkpt><trkpt lat="42.7379044" lon="12.3706765"><ele>436.0</ele><time>2026-04-18T12:19:11.98Z</time></trkpt><trkpt lat="42.7377545" lon="12.3707034"><ele>435.5</ele><time>2026-04-18T12:19:12.967Z</time></trkpt><trkpt lat="42.737615" lon="12.3707289"><ele>435.0</ele><time>2026-04-18T12:19:13.976Z</time></trkpt><trkpt lat="42.7374889" lon="12.3707562"><ele>434.5</ele><time>2026-04-18T12:19:14.97Z</time></trkpt><trkpt lat="42.7373654" lon="12.3707791"><ele>434.0</ele><time>2026-04-18T12:19:15.99Z</time></trkpt><trkpt lat="42.737243" lon="12.3707996"><ele>434.0</ele><time>2026-04-18T12:19:16.986Z</time></trkpt><trkpt lat="42.7371163" lon="12.3708234"><ele>434.0</ele><time>2026-04-18T12:19:17.961Z</time></trkpt><trkpt lat="42.7370003" lon="12.3708496"><ele>434.0</ele><time>2026-04-18T12:19:18.977Z</time></trkpt><trkpt lat="42.7368892" lon="12.3708676"><ele>434.0</ele><time>2026-04-18T12:19:19.979Z</time></trkpt><trkpt lat="42.7367748" lon="12.370845"><ele>434.0</ele><time>2026-04-18T12:19:20.986Z</time></trkpt><trkpt lat="42.7366581" lon="12.3707923"><ele>434.0</ele><time>2026-04-18T12:19:21.986Z</time></trkpt><trkpt lat="42.7365444" lon="12.3706955"><ele>434.0</ele><time>2026-04-18T12:19:22.986Z</time></trkpt><trkpt lat="42.7364382" lon="12.3705569"><ele>434.0</ele><time>2026-04-18T12:19:23.968Z</time></trkpt><trkpt lat="42.736339" lon="12.3704098"><ele>433.0</ele><time>2026-04-18T12:19:24.98Z</time></trkpt><trkpt lat="42.7362386" lon="12.3702609"><ele>432.0</ele><time>2026-04-18T12:19:25.994Z</time></trkpt><trkpt lat="42.7361351" lon="12.3701099"><ele>431.0</ele><time>2026-04-18T12:19:26.974Z</time></trkpt><trkpt lat="42.7360309" lon="12.3699574"><ele>431.0</ele><time>2026-04-18T12:19:27.981Z</time></trkpt><trkpt lat="42.7359299" lon="12.3698032"><ele>431.0</ele><time>2026-04-18T12:19:28.982Z</time></trkpt><trkpt lat="42.735831" lon="12.3696564"><ele>431.0</ele><time>2026-04-18T12:19:29.98Z</time></trkpt><trkpt lat="42.7357328" lon="12.3695228"><ele>431.0</ele><time>2026-04-18T12:19:30.985Z</time></trkpt><trkpt lat="42.7356443" lon="12.3693945"><ele>429.0</ele><time>2026-04-18T12:19:31.995Z</time></trkpt><trkpt lat="42.7355554" lon="12.3692611"><ele>427.0</ele><time>2026-04-18T12:19:32.995Z</time></trkpt><trkpt lat="42.7354614" lon="12.3691287"><ele>425.0</ele><time>2026-04-18T12:19:33.995Z</time></trkpt><trkpt lat="42.7353686" lon="12.3689999"><ele>423.0</ele><time>2026-04-18T12:19:34.997Z</time></trkpt><trkpt lat="42.7352746" lon="12.3688743"><ele>423.75</ele><time>2026-04-18T12:19:35.98Z</time></trkpt><trkpt lat="42.7351727" lon="12.368766"><ele>424.5</ele><time>2026-04-18T12:19:36.979Z</time></trkpt><trkpt lat="42.7350564" lon="12.368676"><ele>425.25</ele><time>2026-04-18T12:19:37.991Z</time></trkpt><trkpt lat="42.7349267" lon="12.3686194"><ele>426.0</ele><time>2026-04-18T12:19:38.97Z</time></trkpt><trkpt lat="42.7347795" lon="12.3686002"><ele>426.0</ele><time>2026-04-18T12:19:39.982Z</time></trkpt><trkpt lat="42.7346203" lon="12.3686091"><ele>426.0</ele><time>2026-04-18T12:19:41.018Z</time></trkpt><trkpt lat="42.7344527" lon="12.3686115"><ele>426.0</ele><time>2026-04-18T12:19:41.983Z</time></trkpt><trkpt lat="42.734291" lon="12.3686198"><ele>425.75</ele><time>2026-04-18T12:19:42.979Z</time></trkpt><trkpt lat="42.7341408" lon="12.3686314"><ele>425.5</ele><time>2026-04-18T12:19:43.981Z</time></trkpt><trkpt lat="42.7340057" lon="12.3686425"><ele>425.25</ele><time>2026-04-18T12:19:44.984Z</time></trkpt><trkpt lat="42.7338805" lon="12.3686506"><ele>425.0</ele><time>2026-04-18T12:19:45.99Z</time></trkpt><trkpt lat="42.7337518" lon="12.3686564"><ele>425.0</ele><time>2026-04-18T12:19:46.984Z</time></trkpt><trkpt lat="42.7336302" lon="12.3686611"><ele>425.0</ele><time>2026-04-18T12:19:47.981Z</time></trkpt><trkpt lat="42.7335188" lon="12.3686659"><ele>425.0</ele><time>2026-04-18T12:19:48.982Z</time></trkpt><trkpt lat="42.7334087" lon="12.3686709"><ele>425.0</ele><time>2026-04-18T12:19:49.983Z</time></trkpt><trkpt lat="42.7332929" lon="12.3686708"><ele>424.6</ele><time>2026-04-18T12:19:51.001Z</time></trkpt><trkpt lat="42.7331821" lon="12.3686619"><ele>424.2</ele><time>2026-04-18T12:19:51.978Z</time></trkpt><trkpt lat="42.733085" lon="12.3686443"><ele>423.79999999999995</ele><time>2026-04-18T12:19:52.991Z</time></trkpt><trkpt lat="42.7329923" lon="12.3686074"><ele>423.4</ele><time>2026-04-18T12:19:53.979Z</time></trkpt><trkpt lat="42.7329042" lon="12.3685589"><ele>423.0</ele><time>2026-04-18T12:19:54.996Z</time></trkpt><trkpt lat="42.73282" lon="12.3685071"><ele>423.0</ele><time>2026-04-18T12:19:55.976Z</time></trkpt><trkpt lat="42.7327452" lon="12.3684473"><ele>423.0</ele><time>2026-04-18T12:19:56.979Z</time></trkpt><trkpt lat="42.7326792" lon="12.368388"><ele>423.0</ele><time>2026-04-18T12:19:57.978Z</time></trkpt><trkpt lat="42.7326175" lon="12.3683478"><ele>423.0</ele><time>2026-04-18T12:19:58.994Z</time></trkpt><trkpt lat="42.7325149" lon="12.3683813"><ele>423.0</ele><time>2026-04-18T12:20:00.984Z</time></trkpt><trkpt lat="42.7324558" lon="12.3685105"><ele>423.6666666666667</ele><time>2026-04-18T12:20:02.979Z</time></trkpt><trkpt lat="42.7324381" lon="12.368597"><ele>424.33333333333337</ele><time>2026-04-18T12:20:03.975Z</time></trkpt><trkpt lat="42.7324153" lon="12.3686966"><ele>425.0</ele><time>2026-04-18T12:20:04.99Z</time></trkpt><trkpt lat="42.7323977" lon="12.3688048"><ele>425.6666666666667</ele><time>2026-04-18T12:20:05.993Z</time></trkpt><trkpt lat="42.7323794" lon="12.3689288"><ele>426.33333333333337</ele><time>2026-04-18T12:20:06.982Z</time></trkpt><trkpt lat="42.7323592" lon="12.3690608"><ele>427.0</ele><time>2026-04-18T12:20:07.992Z</time></trkpt><trkpt lat="42.7323486" lon="12.3691996"><ele>428.75</ele><time>2026-04-18T12:20:08.999Z</time></trkpt><trkpt lat="42.7323507" lon="12.3693512"><ele>430.5</ele><time>2026-04-18T12:20:09.969Z</time></trkpt><trkpt lat="42.7323607" lon="12.3695097"><ele>432.25</ele><time>2026-04-18T12:20:10.981Z</time></trkpt><trkpt lat="42.7323736" lon="12.3696605"><ele>434.0</ele><time>2026-04-18T12:20:11.992Z</time></trkpt><trkpt lat="42.7323822" lon="12.3698104"><ele>435.2</ele><time>2026-04-18T12:20:12.989Z</time></trkpt><trkpt lat="42.7323908" lon="12.3699505"><ele>436.4</ele><time>2026-04-18T12:20:13.979Z</time></trkpt><trkpt lat="42.732387" lon="12.3700708"><ele>437.6</ele><time>2026-04-18T12:20:14.984Z</time></trkpt><trkpt lat="42.7323711" lon="12.3702023"><ele>438.8</ele><time>2026-04-18T12:20:16.992Z</time></trkpt><trkpt lat="42.7322664" lon="12.3702265"><ele>440.0</ele><time>2026-04-18T12:20:19.967Z</time></trkpt><trkpt lat="42.7321904" lon="12.3701986"><ele>440.0</ele><time>2026-04-18T12:20:20.975Z</time></trkpt><trkpt lat="42.7320875" lon="12.3701385"><ele>440.0</ele><time>2026-04-18T12:20:21.979Z</time></trkpt><trkpt lat="42.7319644" lon="12.3700751"><ele>440.0</ele><time>2026-04-18T12:20:22.98Z</time></trkpt><trkpt lat="42.7318223" lon="12.3700034"><ele>440.0</ele><time>2026-04-18T12:20:23.992Z</time></trkpt><trkpt lat="42.7316612" lon="12.369925"><ele>442.0</ele><time>2026-04-18T12:20:24.993Z</time></trkpt><trkpt lat="42.7314987" lon="12.3698425"><ele>444.0</ele><time>2026-04-18T12:20:25.983Z</time></trkpt><trkpt lat="42.7313543" lon="12.369764"><ele>446.0</ele><time>2026-04-18T12:20:26.974Z</time></trkpt><trkpt lat="42.7312345" lon="12.3696944"><ele>445.5</ele><time>2026-04-18T12:20:27.983Z</time></trkpt><trkpt lat="42.7311388" lon="12.3696322"><ele>445.0</ele><time>2026-04-18T12:20:28.986Z</time></trkpt><trkpt lat="42.7310425" lon="12.3695758"><ele>444.5</ele><time>2026-04-18T12:20:29.978Z</time></trkpt><trkpt lat="42.7309401" lon="12.3695188"><ele>444.0</ele><time>2026-04-18T12:20:30.977Z</time></trkpt><trkpt lat="42.7308177" lon="12.3694593"><ele>444.0</ele><time>2026-04-18T12:20:31.996Z</time></trkpt><trkpt lat="42.7306972" lon="12.369397"><ele>444.0</ele><time>2026-04-18T12:20:32.988Z</time></trkpt><trkpt lat="42.7305871" lon="12.3693314"><ele>444.0</ele><time>2026-04-18T12:20:33.991Z</time></trkpt><trkpt lat="42.7304842" lon="12.3692689"><ele>444.0</ele><time>2026-04-18T12:20:34.993Z</time></trkpt><trkpt lat="42.7303849" lon="12.369212"><ele>444.0</ele><time>2026-04-18T12:20:35.983Z</time></trkpt><trkpt lat="42.7302738" lon="12.3691639"><ele>444.0</ele><time>2026-04-18T12:20:36.979Z</time></trkpt><trkpt lat="42.7301408" lon="12.3691292"><ele>444.0</ele><time>2026-04-18T12:20:37.991Z</time></trkpt><trkpt lat="42.7300008" lon="12.3690974"><ele>444.0</ele><time>2026-04-18T12:20:38.982Z</time></trkpt><trkpt lat="42.7298572" lon="12.3690713"><ele>444.0</ele><time>2026-04-18T12:20:39.982Z</time></trkpt><trkpt lat="42.7297278" lon="12.3690464"><ele>444.0</ele><time>2026-04-18T12:20:40.979Z</time></trkpt><trkpt lat="42.7296068" lon="12.3690208"><ele>444.0</ele><time>2026-04-18T12:20:41.979Z</time></trkpt><trkpt lat="42.7294836" lon="12.3689983"><ele>444.0</ele><time>2026-04-18T12:20:42.994Z</time></trkpt><trkpt lat="42.7293523" lon="12.3689734"><ele>443.75</ele><time>2026-04-18T12:20:43.978Z</time></trkpt><trkpt lat="42.7292133" lon="12.3689435"><ele>443.5</ele><time>2026-04-18T12:20:44.974Z</time></trkpt><trkpt lat="42.7290631" lon="12.3689027"><ele>443.25</ele><time>2026-04-18T12:20:45.984Z</time></trkpt><trkpt lat="42.7289212" lon="12.3688709"><ele>443.0</ele><time>2026-04-18T12:20:46.977Z</time></trkpt><trkpt lat="42.7287825" lon="12.3688369"><ele>441.25</ele><time>2026-04-18T12:20:47.976Z</time></trkpt><trkpt lat="42.7286467" lon="12.3687971"><ele>439.5</ele><time>2026-04-18T12:20:48.965Z</time></trkpt><trkpt lat="42.7285166" lon="12.3687464"><ele>437.75</ele><time>2026-04-18T12:20:49.973Z</time></trkpt><trkpt lat="42.7283957" lon="12.3686853"><ele>436.0</ele><time>2026-04-18T12:20:50.974Z</time></trkpt><trkpt lat="42.7282825" lon="12.3686259"><ele>436.0</ele><time>2026-04-18T12:20:51.985Z</time></trkpt><trkpt lat="42.7281667" lon="12.368559"><ele>436.0</ele><time>2026-04-18T12:20:52.982Z</time></trkpt><trkpt lat="42.7280493" lon="12.3684749"><ele>436.0</ele><time>2026-04-18T12:20:53.978Z</time></trkpt><trkpt lat="42.7279273" lon="12.3683735"><ele>436.0</ele><time>2026-04-18T12:20:54.978Z</time></trkpt><trkpt lat="42.727804" lon="12.3682701"><ele>435.75</ele><time>2026-04-18T12:20:55.99Z</time></trkpt><trkpt lat="42.7276795" lon="12.3681523"><ele>435.5</ele><time>2026-04-18T12:20:56.984Z</time></trkpt><trkpt lat="42.7275644" lon="12.3680374"><ele>435.25</ele><time>2026-04-18T12:20:58.006Z</time></trkpt><trkpt lat="42.7274642" lon="12.3679294"><ele>435.0</ele><time>2026-04-18T12:20:59.008Z</time></trkpt><trkpt lat="42.7273698" lon="12.3678364"><ele>434.0</ele><time>2026-04-18T12:20:59.982Z</time></trkpt><trkpt lat="42.7272749" lon="12.367755"><ele>433.0</ele><time>2026-04-18T12:21:00.976Z</time></trkpt><trkpt lat="42.7271669" lon="12.3676795"><ele>432.0</ele><time>2026-04-18T12:21:01.987Z</time></trkpt><trkpt lat="42.7270514" lon="12.3676172"><ele>431.0</ele><time>2026-04-18T12:21:02.981Z</time></trkpt><trkpt lat="42.7269329" lon="12.3675652"><ele>431.5</ele><time>2026-04-18T12:21:03.979Z</time></trkpt><trkpt lat="42.7268179" lon="12.3675167"><ele>432.0</ele><time>2026-04-18T12:21:05.006Z</time></trkpt><trkpt lat="42.7267078" lon="12.3674545"><ele>432.5</ele><time>2026-04-18T12:21:05.976Z</time></trkpt><trkpt lat="42.7265918" lon="12.3673578"><ele>433.0</ele><time>2026-04-18T12:21:06.978Z</time></trkpt><trkpt lat="42.7264788" lon="12.3672261"><ele>431.75</ele><time>2026-04-18T12:21:07.982Z</time></trkpt><trkpt lat="42.7263702" lon="12.3671"><ele>430.5</ele><time>2026-04-18T12:21:08.977Z</time></trkpt><trkpt lat="42.7262676" lon="12.367"><ele>429.25</ele><time>2026-04-18T12:21:09.984Z</time></trkpt><trkpt lat="42.7261741" lon="12.3669265"><ele>428.0</ele><time>2026-04-18T12:21:10.982Z</time></trkpt><trkpt lat="42.7260862" lon="12.3668712"><ele>429.2</ele><time>2026-04-18T12:21:11.988Z</time></trkpt><trkpt lat="42.7259971" lon="12.3668305"><ele>430.4</ele><time>2026-04-18T12:21:12.978Z</time></trkpt><trkpt lat="42.7259061" lon="12.3668171"><ele>431.59999999999997</ele><time>2026-04-18T12:21:13.98Z</time></trkpt><trkpt lat="42.7258086" lon="12.3668317"><ele>432.79999999999995</ele><time>2026-04-18T12:21:14.981Z</time></trkpt><trkpt lat="42.7257066" lon="12.3668552"><ele>434.0</ele><time>2026-04-18T12:21:15.993Z</time></trkpt><trkpt lat="42.7255897" lon="12.3668922"><ele>434.0</ele><time>2026-04-18T12:21:16.977Z</time></trkpt><trkpt lat="42.725476" lon="12.3669455"><ele>434.0</ele><time>2026-04-18T12:21:17.993Z</time></trkpt><trkpt lat="42.7253702" lon="12.3669919"><ele>434.0</ele><time>2026-04-18T12:21:18.978Z</time></trkpt><trkpt lat="42.7252684" lon="12.3670241"><ele>434.0</ele><time>2026-04-18T12:21:19.969Z</time></trkpt><trkpt lat="42.7251664" lon="12.3670361"><ele>434.0</ele><time>2026-04-18T12:21:20.983Z</time></trkpt><trkpt lat="42.7250761" lon="12.3670255"><ele>435.5</ele><time>2026-04-18T12:21:21.981Z</time></trkpt><trkpt lat="42.7249833" lon="12.366993"><ele>437.0</ele><time>2026-04-18T12:21:22.987Z</time></trkpt><trkpt lat="42.7248771" lon="12.3669375"><ele>438.5</ele><time>2026-04-18T12:21:23.987Z</time></trkpt><trkpt lat="42.7247601" lon="12.3668748"><ele>440.0</ele><time>2026-04-18T12:21:24.982Z</time></trkpt><trkpt lat="42.7246485" lon="12.3668073"><ele>440.0</ele><time>2026-04-18T12:21:25.98Z</time></trkpt><trkpt lat="42.7245475" lon="12.3667454"><ele>440.0</ele><time>2026-04-18T12:21:26.979Z</time></trkpt><trkpt lat="42.7244551" lon="12.3666809"><ele>440.0</ele><time>2026-04-18T12:21:27.984Z</time></trkpt><trkpt lat="42.7243632" lon="12.3666219"><ele>440.0</ele><time>2026-04-18T12:21:28.982Z</time></trkpt><trkpt lat="42.7242617" lon="12.3665802"><ele>440.0</ele><time>2026-04-18T12:21:29.989Z</time></trkpt><trkpt lat="42.7241417" lon="12.3665744"><ele>439.75</ele><time>2026-04-18T12:21:30.995Z</time></trkpt><trkpt lat="42.7240124" lon="12.3665902"><ele>439.5</ele><time>2026-04-18T12:21:31.995Z</time></trkpt><trkpt lat="42.7238719" lon="12.3666319"><ele>439.25</ele><time>2026-04-18T12:21:32.98Z</time></trkpt><trkpt lat="42.723728" lon="12.3666827"><ele>439.0</ele><time>2026-04-18T12:21:33.977Z</time></trkpt><trkpt lat="42.7235819" lon="12.3667432"><ele>439.75</ele><time>2026-04-18T12:21:34.985Z</time></trkpt><trkpt lat="42.7234579" lon="12.3667922"><ele>440.5</ele><time>2026-04-18T12:21:35.991Z</time></trkpt><trkpt lat="42.7233531" lon="12.3668031"><ele>441.25</ele><time>2026-04-18T12:21:36.981Z</time></trkpt><trkpt lat="42.7232404" lon="12.3667871"><ele>442.0</ele><time>2026-04-18T12:21:37.99Z</time></trkpt><trkpt lat="42.7231172" lon="12.3667654"><ele>442.0</ele><time>2026-04-18T12:21:38.98Z</time></trkpt><trkpt lat="42.7229892" lon="12.3667352"><ele>442.0</ele><time>2026-04-18T12:21:39.979Z</time></trkpt><trkpt lat="42.7228635" lon="12.3666995"><ele>442.0</ele><time>2026-04-18T12:21:40.981Z</time></trkpt><trkpt lat="42.7227499" lon="12.3666749"><ele>442.0</ele><time>2026-04-18T12:21:41.988Z</time></trkpt><trkpt lat="42.7226413" lon="12.3666524"><ele>442.8</ele><time>2026-04-18T12:21:42.979Z</time></trkpt><trkpt lat="42.7225336" lon="12.3666418"><ele>443.6</ele><time>2026-04-18T12:21:43.985Z</time></trkpt><trkpt lat="42.7224342" lon="12.3666477"><ele>444.40000000000003</ele><time>2026-04-18T12:21:44.977Z</time></trkpt><trkpt lat="42.7223353" lon="12.3666659"><ele>445.20000000000005</ele><time>2026-04-18T12:21:45.994Z</time></trkpt><trkpt lat="42.7222293" lon="12.3667112"><ele>446.0</ele><time>2026-04-18T12:21:46.997Z</time></trkpt><trkpt lat="42.7220957" lon="12.3667635"><ele>446.0</ele><time>2026-04-18T12:21:47.976Z</time></trkpt><trkpt lat="42.7219698" lon="12.3668015"><ele>446.0</ele><time>2026-04-18T12:21:48.994Z</time></trkpt><trkpt lat="42.7218589" lon="12.3668383"><ele>446.0</ele><time>2026-04-18T12:21:49.998Z</time></trkpt><trkpt lat="42.7217576" lon="12.3668717"><ele>446.0</ele><time>2026-04-18T12:21:50.994Z</time></trkpt><trkpt lat="42.7216579" lon="12.366915"><ele>446.49999999999994</ele><time>2026-04-18T12:21:51.975Z</time></trkpt><trkpt lat="42.7215629" lon="12.3669806"><ele>447.0</ele><time>2026-04-18T12:21:53.001Z</time></trkpt><trkpt lat="42.7214965" lon="12.3670515"><ele>447.5</ele><time>2026-04-18T12:21:53.99Z</time></trkpt><trkpt lat="42.7214479" lon="12.3671209"><ele>448.0</ele><time>2026-04-18T12:21:54.991Z</time></trkpt><trkpt lat="42.7213799" lon="12.3671903"><ele>448.49999999999994</ele><time>2026-04-18T12:21:57.001Z</time></trkpt><trkpt lat="42.7213144" lon="12.3671379"><ele>449.0</ele><time>2026-04-18T12:22:06.969Z</time></trkpt><trkpt lat="42.72129" lon="12.3670525"><ele>448.99999999999994</ele><time>2026-04-18T12:22:08.978Z</time></trkpt><trkpt lat="42.7212425" lon="12.3669728"><ele>449.0</ele><time>2026-04-18T12:22:10.972Z</time></trkpt><trkpt lat="42.7211901" lon="12.3668997"><ele>449.0</ele><time>2026-04-18T12:22:12.971Z</time></trkpt><trkpt lat="42.7211369" lon="12.3668263"><ele>449.0</ele><time>2026-04-18T12:22:14.974Z</time></trkpt><trkpt lat="42.721054" lon="12.3667582"><ele>448.99999999999994</ele><time>2026-04-18T12:22:16.972Z</time></trkpt><trkpt lat="42.7209698" lon="12.3667187"><ele>449.0</ele><time>2026-04-18T12:22:19.014Z</time></trkpt><trkpt lat="42.7208885" lon="12.3666883"><ele>448.2</ele><time>2026-04-18T12:22:20.993Z</time></trkpt><trkpt lat="42.72082" lon="12.366603"><ele>447.4</ele><time>2026-04-18T12:22:22.974Z</time></trkpt><trkpt lat="42.7207632" lon="12.3664744"><ele>446.6</ele><time>2026-04-18T12:22:24.978Z</time></trkpt><trkpt lat="42.7207091" lon="12.3663277"><ele>445.8</ele><time>2026-04-18T12:22:26.986Z</time></trkpt><trkpt lat="42.7206843" lon="12.3662478"><ele>445.0</ele><time>2026-04-18T12:22:27.976Z</time></trkpt><trkpt lat="42.720661" lon="12.3661645"><ele>443.6666666666667</ele><time>2026-04-18T12:22:28.992Z</time></trkpt><trkpt lat="42.7206333" lon="12.3660848"><ele>442.33333333333337</ele><time>2026-04-18T12:22:29.987Z</time></trkpt><trkpt lat="42.7205789" lon="12.3659402"><ele>441.0</ele><time>2026-04-18T12:22:31.992Z</time></trkpt><trkpt lat="42.7205169" lon="12.3657881"><ele>439.66666666666663</ele><time>2026-04-18T12:22:33.987Z</time></trkpt><trkpt lat="42.720489" lon="12.365703"><ele>438.3333333333333</ele><time>2026-04-18T12:22:34.978Z</time></trkpt><trkpt lat="42.7204676" lon="12.3656147"><ele>437.0</ele><time>2026-04-18T12:22:35.972Z</time></trkpt><trkpt lat="42.7204516" lon="12.3655225"><ele>435.3333333333333</ele><time>2026-04-18T12:22:37.003Z</time></trkpt><trkpt lat="42.7204373" lon="12.3654298"><ele>433.66666666666663</ele><time>2026-04-18T12:22:37.968Z</time></trkpt><trkpt lat="42.7204268" lon="12.3653439"><ele>432.0</ele><time>2026-04-18T12:22:38.985Z</time></trkpt><trkpt lat="42.7204183" lon="12.3652584"><ele>430.33333333333337</ele><time>2026-04-18T12:22:39.989Z</time></trkpt><trkpt lat="42.7204102" lon="12.3650867"><ele>428.6666666666667</ele><time>2026-04-18T12:22:41.975Z</time></trkpt><trkpt lat="42.7204105" lon="12.3649912"><ele>427.0</ele><time>2026-04-18T12:22:42.987Z</time></trkpt><trkpt lat="42.7204074" lon="12.3648801"><ele>427.00000000000006</ele><time>2026-04-18T12:22:43.972Z</time></trkpt><trkpt lat="42.7203911" lon="12.3647662"><ele>427.0</ele><time>2026-04-18T12:22:44.98Z</time></trkpt><trkpt lat="42.7203706" lon="12.364661"><ele>427.0</ele><time>2026-04-18T12:22:45.973Z</time></trkpt><trkpt lat="42.7203502" lon="12.3645628"><ele>427.0</ele><time>2026-04-18T12:22:46.982Z</time></trkpt><trkpt lat="42.720329" lon="12.3644704"><ele>427.00000000000006</ele><time>2026-04-18T12:22:47.978Z</time></trkpt><trkpt lat="42.7202998" lon="12.3643726"><ele>427.0</ele><time>2026-04-18T12:22:48.976Z</time></trkpt><trkpt lat="42.7202747" lon="12.3642736"><ele>425.85714285714283</ele><time>2026-04-18T12:22:49.988Z</time></trkpt><trkpt lat="42.7202575" lon="12.3641751"><ele>424.7142857142857</ele><time>2026-04-18T12:22:50.993Z</time></trkpt><trkpt lat="42.720241" lon="12.3640807"><ele>423.57142857142856</ele><time>2026-04-18T12:22:51.979Z</time></trkpt><trkpt lat="42.7202276" lon="12.3639877"><ele>422.42857142857144</ele><time>2026-04-18T12:22:52.997Z</time></trkpt><trkpt lat="42.7202125" lon="12.363889"><ele>421.2857142857143</ele><time>2026-04-18T12:22:53.974Z</time></trkpt><trkpt lat="42.7202018" lon="12.3637943"><ele>420.1428571428571</ele><time>2026-04-18T12:22:54.987Z</time></trkpt><trkpt lat="42.7201953" lon="12.3636995"><ele>419.0</ele><time>2026-04-18T12:22:55.992Z</time></trkpt><trkpt lat="42.7201835" lon="12.3636095"><ele>417.0</ele><time>2026-04-18T12:22:56.98Z</time></trkpt><trkpt lat="42.7201549" lon="12.3634539"><ele>415.0</ele><time>2026-04-18T12:22:58.989Z</time></trkpt><trkpt lat="42.7201192" lon="12.3633137"><ele>413.0</ele><time>2026-04-18T12:23:00.986Z</time></trkpt><trkpt lat="42.7200875" lon="12.3631723"><ele>411.0</ele><time>2026-04-18T12:23:02.986Z</time></trkpt><trkpt lat="42.7200525" lon="12.3630272"><ele>409.0</ele><time>2026-04-18T12:23:04.986Z</time></trkpt><trkpt lat="42.7200299" lon="12.3629155"><ele>407.1666666666667</ele><time>2026-04-18T12:23:06.97Z</time></trkpt><trkpt lat="42.720016" lon="12.362808"><ele>405.33333333333337</ele><time>2026-04-18T12:23:08.986Z</time></trkpt><trkpt lat="42.7200313" lon="12.3626888"><ele>403.5</ele><time>2026-04-18T12:23:10.978Z</time></trkpt><trkpt lat="42.7200623" lon="12.3625749"><ele>401.66666666666663</ele><time>2026-04-18T12:23:12.984Z</time></trkpt><trkpt lat="42.7200907" lon="12.3624751"><ele>399.8333333333333</ele><time>2026-04-18T12:23:14.976Z</time></trkpt><trkpt lat="42.7201431" lon="12.3623722"><ele>398.0</ele><time>2026-04-18T12:23:16.995Z</time></trkpt><trkpt lat="42.7202132" lon="12.3622255"><ele>396.99999999999994</ele><time>2026-04-18T12:23:18.974Z</time></trkpt><trkpt lat="42.7202484" lon="12.3621486"><ele>396.0</ele><time>2026-04-18T12:23:19.985Z</time></trkpt><trkpt lat="42.7202831" lon="12.3620718"><ele>395.0</ele><time>2026-04-18T12:23:20.981Z</time></trkpt><trkpt lat="42.7203161" lon="12.3619966"><ele>394.0</ele><time>2026-04-18T12:23:21.976Z</time></trkpt><trkpt lat="42.720366" lon="12.361864"><ele>392.99999999999994</ele><time>2026-04-18T12:23:23.984Z</time></trkpt><trkpt lat="42.7204106" lon="12.3617502"><ele>392.0</ele><time>2026-04-18T12:23:25.975Z</time></trkpt><trkpt lat="42.7204603" lon="12.3616454"><ele>392.0</ele><time>2026-04-18T12:23:27.985Z</time></trkpt><trkpt lat="42.7205084" lon="12.3615464"><ele>392.0</ele><time>2026-04-18T12:23:29.982Z</time></trkpt><trkpt lat="42.7205602" lon="12.361452"><ele>392.0</ele><time>2026-04-18T12:23:31.973Z</time></trkpt><trkpt lat="42.7206056" lon="12.361354"><ele>392.0</ele><time>2026-04-18T12:23:33.981Z</time></trkpt><trkpt lat="42.7206641" lon="12.3612446"><ele>392.0</ele><time>2026-04-18T12:23:35.971Z</time></trkpt><trkpt lat="42.7207281" lon="12.3611337"><ele>389.8</ele><time>2026-04-18T12:23:37.974Z</time></trkpt><trkpt lat="42.7207954" lon="12.3610411"><ele>387.6</ele><time>2026-04-18T12:23:39.973Z</time></trkpt><trkpt lat="42.7208496" lon="12.3609689"><ele>385.40000000000003</ele><time>2026-04-18T12:23:41.988Z</time></trkpt><trkpt lat="42.72079" lon="12.3608917"><ele>383.20000000000005</ele><time>2026-04-18T12:23:46.988Z</time></trkpt><trkpt lat="42.720668" lon="12.3609199"><ele>381.0</ele><time>2026-04-18T12:23:48.98Z</time></trkpt><trkpt lat="42.7205864" lon="12.3609099"><ele>381.0</ele><time>2026-04-18T12:23:49.971Z</time></trkpt><trkpt lat="42.7204959" lon="12.3608949"><ele>381.0</ele><time>2026-04-18T12:23:50.985Z</time></trkpt><trkpt lat="42.7204087" lon="12.3608801"><ele>381.0</ele><time>2026-04-18T12:23:51.987Z</time></trkpt><trkpt lat="42.7203184" lon="12.3608519"><ele>381.0</ele><time>2026-04-18T12:23:52.981Z</time></trkpt><trkpt lat="42.7202363" lon="12.3608124"><ele>381.0</ele><time>2026-04-18T12:23:53.976Z</time></trkpt><trkpt lat="42.7201517" lon="12.3607708"><ele>381.0</ele><time>2026-04-18T12:23:54.983Z</time></trkpt><trkpt lat="42.7200574" lon="12.3607193"><ele>380.75</ele><time>2026-04-18T12:23:55.974Z</time></trkpt><trkpt lat="42.719953" lon="12.3606504"><ele>380.5</ele><time>2026-04-18T12:23:56.988Z</time></trkpt><trkpt lat="42.7198403" lon="12.3605713"><ele>380.25</ele><time>2026-04-18T12:23:57.982Z</time></trkpt><trkpt lat="42.719728" lon="12.360486"><ele>380.0</ele><time>2026-04-18T12:23:58.984Z</time></trkpt><trkpt lat="42.7196107" lon="12.3604041"><ele>378.25</ele><time>2026-04-18T12:23:59.977Z</time></trkpt><trkpt lat="42.7194928" lon="12.3603351"><ele>376.5</ele><time>2026-04-18T12:24:00.982Z</time></trkpt><trkpt lat="42.7193829" lon="12.3602678"><ele>374.75</ele><time>2026-04-18T12:24:01.99Z</time></trkpt><trkpt lat="42.7192804" lon="12.3601951"><ele>373.0</ele><time>2026-04-18T12:24:02.984Z</time></trkpt><trkpt lat="42.7191898" lon="12.3601049"><ele>372.25</ele><time>2026-04-18T12:24:03.983Z</time></trkpt><trkpt lat="42.7191155" lon="12.3599885"><ele>371.5</ele><time>2026-04-18T12:24:04.98Z</time></trkpt><trkpt lat="42.7190582" lon="12.3598376"><ele>370.75</ele><time>2026-04-18T12:24:05.984Z</time></trkpt><trkpt lat="42.7190086" lon="12.3596675"><ele>370.0</ele><time>2026-04-18T12:24:06.989Z</time></trkpt><trkpt lat="42.7189674" lon="12.3594948"><ele>369.5</ele><time>2026-04-18T12:24:08.003Z</time></trkpt><trkpt lat="42.7189334" lon="12.359329"><ele>369.0</ele><time>2026-04-18T12:24:08.971Z</time></trkpt><trkpt lat="42.7189022" lon="12.3591756"><ele>368.5</ele><time>2026-04-18T12:24:09.982Z</time></trkpt><trkpt lat="42.7188875" lon="12.3590118"><ele>368.0</ele><time>2026-04-18T12:24:10.986Z</time></trkpt><trkpt lat="42.7188932" lon="12.3588395"><ele>368.0</ele><time>2026-04-18T12:24:11.986Z</time></trkpt><trkpt lat="42.7189275" lon="12.3586481"><ele>368.0</ele><time>2026-04-18T12:24:12.98Z</time></trkpt><trkpt lat="42.7189711" lon="12.3584522"><ele>368.0</ele><time>2026-04-18T12:24:13.985Z</time></trkpt><trkpt lat="42.7190177" lon="12.3582391"><ele>370.6666666666667</ele><time>2026-04-18T12:24:14.986Z</time></trkpt><trkpt lat="42.7190671" lon="12.3580244"><ele>373.3333333333333</ele><time>2026-04-18T12:24:15.979Z</time></trkpt><trkpt lat="42.7191213" lon="12.3578216"><ele>376.0</ele><time>2026-04-18T12:24:16.978Z</time></trkpt><trkpt lat="42.7191812" lon="12.3576466"><ele>376.0</ele><time>2026-04-18T12:24:17.985Z</time></trkpt><trkpt lat="42.719252" lon="12.3575035"><ele>376.0</ele><time>2026-04-18T12:24:18.99Z</time></trkpt><trkpt lat="42.7193465" lon="12.3573897"><ele>376.0</ele><time>2026-04-18T12:24:19.999Z</time></trkpt><trkpt lat="42.7194682" lon="12.3573051"><ele>376.0</ele><time>2026-04-18T12:24:20.967Z</time></trkpt><trkpt lat="42.7195909" lon="12.3572465"><ele>375.25</ele><time>2026-04-18T12:24:21.985Z</time></trkpt><trkpt lat="42.7196941" lon="12.3571769"><ele>374.5</ele><time>2026-04-18T12:24:23.001Z</time></trkpt><trkpt lat="42.7197649" lon="12.3570877"><ele>373.75</ele><time>2026-04-18T12:24:23.982Z</time></trkpt><trkpt lat="42.7198294" lon="12.3569401"><ele>373.0</ele><time>2026-04-18T12:24:24.982Z</time></trkpt><trkpt lat="42.7198444" lon="12.3567737"><ele>373.0</ele><time>2026-04-18T12:24:25.976Z</time></trkpt><trkpt lat="42.7198271" lon="12.3566009"><ele>373.0</ele><time>2026-04-18T12:24:26.971Z</time></trkpt><trkpt lat="42.7197719" lon="12.3564625"><ele>373.0</ele><time>2026-04-18T12:24:27.974Z</time></trkpt><trkpt lat="42.7196761" lon="12.3563563"><ele>373.0</ele><time>2026-04-18T12:24:28.98Z</time></trkpt><trkpt lat="42.7195589" lon="12.3562924"><ele>373.5</ele><time>2026-04-18T12:24:29.971Z</time></trkpt><trkpt lat="42.7194344" lon="12.3562955"><ele>374.0</ele><time>2026-04-18T12:24:30.987Z</time></trkpt><trkpt lat="42.7192996" lon="12.3563537"><ele>374.5</ele><time>2026-04-18T12:24:32.001Z</time></trkpt><trkpt lat="42.7191686" lon="12.3564266"><ele>375.0</ele><time>2026-04-18T12:24:32.986Z</time></trkpt><trkpt lat="42.7190272" lon="12.3564969"><ele>376.75</ele><time>2026-04-18T12:24:33.965Z</time></trkpt><trkpt lat="42.7188875" lon="12.3565633"><ele>378.5</ele><time>2026-04-18T12:24:34.981Z</time></trkpt><trkpt lat="42.7187621" lon="12.3566195"><ele>380.25</ele><time>2026-04-18T12:24:35.976Z</time></trkpt><trkpt lat="42.7186371" lon="12.3566638"><ele>382.0</ele><time>2026-04-18T12:24:36.972Z</time></trkpt><trkpt lat="42.7185144" lon="12.3566832"><ele>383.75</ele><time>2026-04-18T12:24:37.977Z</time></trkpt><trkpt lat="42.7183842" lon="12.3566609"><ele>385.5</ele><time>2026-04-18T12:24:38.985Z</time></trkpt><trkpt lat="42.7182564" lon="12.3566105"><ele>387.25</ele><time>2026-04-18T12:24:39.991Z</time></trkpt><trkpt lat="42.7181338" lon="12.3565269"><ele>389.0</ele><time>2026-04-18T12:24:40.98Z</time></trkpt><trkpt lat="42.7180206" lon="12.3564268"><ele>388.75</ele><time>2026-04-18T12:24:41.969Z</time></trkpt><trkpt lat="42.7179348" lon="12.3563129"><ele>388.5</ele><time>2026-04-18T12:24:42.975Z</time></trkpt><trkpt lat="42.7178806" lon="12.356171"><ele>388.25</ele><time>2026-04-18T12:24:43.987Z</time></trkpt><trkpt lat="42.7178436" lon="12.355993"><ele>388.0</ele><time>2026-04-18T12:24:44.971Z</time></trkpt><trkpt lat="42.7178353" lon="12.3557987"><ele>388.0</ele><time>2026-04-18T12:24:45.984Z</time></trkpt><trkpt lat="42.7178309" lon="12.3555996"><ele>388.0</ele><time>2026-04-18T12:24:46.979Z</time></trkpt><trkpt lat="42.7178052" lon="12.3554091"><ele>388.0</ele><time>2026-04-18T12:24:47.99Z</time></trkpt><trkpt lat="42.7177477" lon="12.3552322"><ele>388.0</ele><time>2026-04-18T12:24:49.002Z</time></trkpt><trkpt lat="42.7176794" lon="12.3550829"><ele>390.25</ele><time>2026-04-18T12:24:49.968Z</time></trkpt><trkpt lat="42.7176218" lon="12.3549437"><ele>392.5</ele><time>2026-04-18T12:24:50.985Z</time></trkpt><trkpt lat="42.7176074" lon="12.3547945"><ele>394.75</ele><time>2026-04-18T12:24:51.969Z</time></trkpt><trkpt lat="42.7176357" lon="12.3546468"><ele>397.0</ele><time>2026-04-18T12:24:52.986Z</time></trkpt><trkpt lat="42.7177133" lon="12.354528"><ele>398.25</ele><time>2026-04-18T12:24:53.983Z</time></trkpt><trkpt lat="42.7178203" lon="12.3544476"><ele>399.5</ele><time>2026-04-18T12:24:54.983Z</time></trkpt><trkpt lat="42.7179446" lon="12.3544282"><ele>400.75</ele><time>2026-04-18T12:24:55.98Z</time></trkpt><trkpt lat="42.718081" lon="12.3544438"><ele>402.0</ele><time>2026-04-18T12:24:56.995Z</time></trkpt><trkpt lat="42.718238" lon="12.3544613"><ele>402.0</ele><time>2026-04-18T12:24:58.001Z</time></trkpt><trkpt lat="42.718404" lon="12.3544669"><ele>402.0</ele><time>2026-04-18T12:24:58.982Z</time></trkpt><trkpt lat="42.7185717" lon="12.3544525"><ele>402.0</ele><time>2026-04-18T12:24:59.978Z</time></trkpt><trkpt lat="42.7187486" lon="12.3544219"><ele>403.33333333333337</ele><time>2026-04-18T12:25:00.973Z</time></trkpt><trkpt lat="42.7189466" lon="12.3543823"><ele>404.6666666666667</ele><time>2026-04-18T12:25:01.983Z</time></trkpt><trkpt lat="42.7191773" lon="12.3543206"><ele>406.0</ele><time>2026-04-18T12:25:02.984Z</time></trkpt><trkpt lat="42.719408" lon="12.3542692"><ele>408.0</ele><time>2026-04-18T12:25:03.979Z</time></trkpt><trkpt lat="42.7196284" lon="12.3542103"><ele>410.0</ele><time>2026-04-18T12:25:04.967Z</time></trkpt><trkpt lat="42.7198333" lon="12.3541593"><ele>412.0</ele><time>2026-04-18T12:25:05.988Z</time></trkpt><trkpt lat="42.720021" lon="12.3541178"><ele>412.0</ele><time>2026-04-18T12:25:06.98Z</time></trkpt><trkpt lat="42.7201979" lon="12.3540826"><ele>412.0</ele><time>2026-04-18T12:25:07.98Z</time></trkpt><trkpt lat="42.7203605" lon="12.3540496"><ele>412.0</ele><time>2026-04-18T12:25:08.98Z</time></trkpt><trkpt lat="42.7205095" lon="12.3540016"><ele>411.25</ele><time>2026-04-18T12:25:09.981Z</time></trkpt><trkpt lat="42.720652" lon="12.353926"><ele>410.5</ele><time>2026-04-18T12:25:10.986Z</time></trkpt><trkpt lat="42.720772" lon="12.3538202"><ele>409.75</ele><time>2026-04-18T12:25:11.976Z</time></trkpt><trkpt lat="42.720878" lon="12.353686"><ele>409.0</ele><time>2026-04-18T12:25:12.978Z</time></trkpt><trkpt lat="42.7209627" lon="12.3535206"><ele>407.25</ele><time>2026-04-18T12:25:13.984Z</time></trkpt><trkpt lat="42.7210207" lon="12.3533397"><ele>405.5</ele><time>2026-04-18T12:25:15.034Z</time></trkpt><trkpt lat="42.721056" lon="12.3531538"><ele>403.75</ele><time>2026-04-18T12:25:15.971Z</time></trkpt><trkpt lat="42.7210688" lon="12.3529538"><ele>402.0</ele><time>2026-04-18T12:25:16.98Z</time></trkpt><trkpt lat="42.7210536" lon="12.3527557"><ele>409.33333333333337</ele><time>2026-04-18T12:25:18.002Z</time></trkpt><trkpt lat="42.7210108" lon="12.3525584"><ele>416.6666666666667</ele><time>2026-04-18T12:25:18.979Z</time></trkpt><trkpt lat="42.7209462" lon="12.3523705"><ele>424.0</ele><time>2026-04-18T12:25:20.004Z</time></trkpt><trkpt lat="42.720853" lon="12.3522102"><ele>425.0</ele><time>2026-04-18T12:25:20.983Z</time></trkpt><trkpt lat="42.720741" lon="12.3520871"><ele>426.0</ele><time>2026-04-18T12:25:21.973Z</time></trkpt><trkpt lat="42.7206072" lon="12.352001"><ele>427.0</ele><time>2026-04-18T12:25:22.979Z</time></trkpt><trkpt lat="42.7204564" lon="12.3519569"><ele>428.0</ele><time>2026-04-18T12:25:23.998Z</time></trkpt><trkpt lat="42.720294" lon="12.351939"><ele>432.0</ele><time>2026-04-18T12:25:25.004Z</time></trkpt><trkpt lat="42.7201258" lon="12.3519333"><ele>436.0</ele><time>2026-04-18T12:25:25.975Z</time></trkpt><trkpt lat="42.7199736" lon="12.3519313"><ele>440.0</ele><time>2026-04-18T12:25:27.001Z</time></trkpt><trkpt lat="42.7198358" lon="12.351921"><ele>440.0</ele><time>2026-04-18T12:25:27.981Z</time></trkpt><trkpt lat="42.7197123" lon="12.3518979"><ele>440.0</ele><time>2026-04-18T12:25:28.992Z</time></trkpt><trkpt lat="42.7196015" lon="12.351841"><ele>440.0</ele><time>2026-04-18T12:25:29.982Z</time></trkpt><trkpt lat="42.7194935" lon="12.3517505"><ele>440.0</ele><time>2026-04-18T12:25:30.993Z</time></trkpt><trkpt lat="42.7193962" lon="12.3516385"><ele>439.0</ele><time>2026-04-18T12:25:32.004Z</time></trkpt><trkpt lat="42.7192921" lon="12.3515116"><ele>438.0</ele><time>2026-04-18T12:25:32.987Z</time></trkpt><trkpt lat="42.7191894" lon="12.3513645"><ele>437.0</ele><time>2026-04-18T12:25:33.993Z</time></trkpt><trkpt lat="42.7190955" lon="12.3511866"><ele>440.3333333333333</ele><time>2026-04-18T12:25:34.987Z</time></trkpt><trkpt lat="42.7190129" lon="12.3509792"><ele>443.66666666666663</ele><time>2026-04-18T12:25:35.974Z</time></trkpt><trkpt lat="42.7189466" lon="12.3507572"><ele>447.0</ele><time>2026-04-18T12:25:36.98Z</time></trkpt><trkpt lat="42.7188894" lon="12.3505218"><ele>449.66666666666663</ele><time>2026-04-18T12:25:37.981Z</time></trkpt><trkpt lat="42.7188322" lon="12.3502775"><ele>452.3333333333333</ele><time>2026-04-18T12:25:38.978Z</time></trkpt><trkpt lat="42.7187785" lon="12.3500406"><ele>455.0</ele><time>2026-04-18T12:25:39.993Z</time></trkpt><trkpt lat="42.7187337" lon="12.3498324"><ele>455.75</ele><time>2026-04-18T12:25:40.972Z</time></trkpt><trkpt lat="42.7186873" lon="12.3496396"><ele>456.5</ele><time>2026-04-18T12:25:41.982Z</time></trkpt><trkpt lat="42.7186212" lon="12.3494692"><ele>457.25</ele><time>2026-04-18T12:25:42.98Z</time></trkpt><trkpt lat="42.7185353" lon="12.3493475"><ele>458.0</ele><time>2026-04-18T12:25:43.986Z</time></trkpt><trkpt lat="42.7184069" lon="12.3492626"><ele>458.0</ele><time>2026-04-18T12:25:44.995Z</time></trkpt><trkpt lat="42.7182695" lon="12.34922"><ele>458.0</ele><time>2026-04-18T12:25:45.983Z</time></trkpt><trkpt lat="42.7181243" lon="12.3492169"><ele>458.0</ele><time>2026-04-18T12:25:46.973Z</time></trkpt><trkpt lat="42.7179705" lon="12.3492458"><ele>458.0</ele><time>2026-04-18T12:25:47.981Z</time></trkpt><trkpt lat="42.7178123" lon="12.3492889"><ele>458.75</ele><time>2026-04-18T12:25:48.98Z</time></trkpt><trkpt lat="42.7176493" lon="12.349333"><ele>459.5</ele><time>2026-04-18T12:25:49.988Z</time></trkpt><trkpt lat="42.7175098" lon="12.3493683"><ele>460.25</ele><time>2026-04-18T12:25:50.98Z</time></trkpt><trkpt lat="42.7173817" lon="12.349388"><ele>461.0</ele><time>2026-04-18T12:25:51.97Z</time></trkpt><trkpt lat="42.717264" lon="12.3494054"><ele>461.0</ele><time>2026-04-18T12:25:52.98Z</time></trkpt><trkpt lat="42.7171514" lon="12.3493981"><ele>461.0</ele><time>2026-04-18T12:25:54.001Z</time></trkpt><trkpt lat="42.7170416" lon="12.3493438"><ele>461.0</ele><time>2026-04-18T12:25:54.98Z</time></trkpt><trkpt lat="42.7169318" lon="12.3492468"><ele>461.0</ele><time>2026-04-18T12:25:55.988Z</time></trkpt><trkpt lat="42.7168189" lon="12.3491032"><ele>460.25</ele><time>2026-04-18T12:25:56.98Z</time></trkpt><trkpt lat="42.716713" lon="12.3489617"><ele>459.5</ele><time>2026-04-18T12:25:57.984Z</time></trkpt><trkpt lat="42.7166289" lon="12.3488284"><ele>458.75</ele><time>2026-04-18T12:25:58.979Z</time></trkpt><trkpt lat="42.7165633" lon="12.3487057"><ele>458.0</ele><time>2026-04-18T12:25:59.974Z</time></trkpt><trkpt lat="42.716529" lon="12.3485721"><ele>459.59999999999997</ele><time>2026-04-18T12:26:00.98Z</time></trkpt><trkpt lat="42.7165415" lon="12.348452"><ele>461.19999999999993</ele><time>2026-04-18T12:26:01.973Z</time></trkpt><trkpt lat="42.7165903" lon="12.3483252"><ele>462.8</ele><time>2026-04-18T12:26:02.985Z</time></trkpt><trkpt lat="42.7166779" lon="12.3482313"><ele>464.4</ele><time>2026-04-18T12:26:03.97Z</time></trkpt><trkpt lat="42.7168043" lon="12.3481574"><ele>466.0</ele><time>2026-04-18T12:26:04.998Z</time></trkpt><trkpt lat="42.7169522" lon="12.3480747"><ele>470.0</ele><time>2026-04-18T12:26:05.983Z</time></trkpt><trkpt lat="42.717108" lon="12.3479799"><ele>474.0</ele><time>2026-04-18T12:26:06.988Z</time></trkpt><trkpt lat="42.7172776" lon="12.3478804"><ele>478.0</ele><time>2026-04-18T12:26:07.999Z</time></trkpt><trkpt lat="42.7174426" lon="12.3477696"><ele>478.0</ele><time>2026-04-18T12:26:08.979Z</time></trkpt><trkpt lat="42.7175947" lon="12.3476739"><ele>478.0</ele><time>2026-04-18T12:26:09.971Z</time></trkpt><trkpt lat="42.7177294" lon="12.3475811"><ele>478.0</ele><time>2026-04-18T12:26:10.978Z</time></trkpt><trkpt lat="42.7178558" lon="12.3474811"><ele>478.6666666666667</ele><time>2026-04-18T12:26:11.992Z</time></trkpt><trkpt lat="42.7179851" lon="12.3473622"><ele>479.33333333333337</ele><time>2026-04-18T12:26:12.993Z</time></trkpt><trkpt lat="42.7180689" lon="12.347188"><ele>480.0</ele><time>2026-04-18T12:26:13.977Z</time></trkpt><trkpt lat="42.7181159" lon="12.3469408"><ele>480.0</ele><time>2026-04-18T12:26:14.976Z</time></trkpt><trkpt lat="42.7181538" lon="12.3466851"><ele>480.0</ele><time>2026-04-18T12:26:15.989Z</time></trkpt><trkpt lat="42.7181926" lon="12.3464595"><ele>480.0</ele><time>2026-04-18T12:26:16.971Z</time></trkpt><trkpt lat="42.7182349" lon="12.3462791"><ele>480.25</ele><time>2026-04-18T12:26:17.983Z</time></trkpt><trkpt lat="42.7182754" lon="12.3461311"><ele>480.5</ele><time>2026-04-18T12:26:18.985Z</time></trkpt><trkpt lat="42.7183209" lon="12.3459914"><ele>480.75</ele><time>2026-04-18T12:26:19.984Z</time></trkpt><trkpt lat="42.7183821" lon="12.345863"><ele>481.0</ele><time>2026-04-18T12:26:20.978Z</time></trkpt><trkpt lat="42.7184715" lon="12.3457267"><ele>479.0</ele><time>2026-04-18T12:26:22.01Z</time></trkpt><trkpt lat="42.7185692" lon="12.3455583"><ele>477.0</ele><time>2026-04-18T12:26:22.997Z</time></trkpt><trkpt lat="42.7186628" lon="12.3453958"><ele>475.0</ele><time>2026-04-18T12:26:23.996Z</time></trkpt><trkpt lat="42.718753" lon="12.3452472"><ele>475.0</ele><time>2026-04-18T12:26:24.998Z</time></trkpt><trkpt lat="42.7188496" lon="12.3451236"><ele>475.0</ele><time>2026-04-18T12:26:25.985Z</time></trkpt><trkpt lat="42.7189466" lon="12.3450309"><ele>475.0</ele><time>2026-04-18T12:26:26.983Z</time></trkpt><trkpt lat="42.7190508" lon="12.3449978"><ele>475.0</ele><time>2026-04-18T12:26:27.98Z</time></trkpt><trkpt lat="42.7191504" lon="12.345033"><ele>475.0</ele><time>2026-04-18T12:26:28.978Z</time></trkpt><trkpt lat="42.7192568" lon="12.3451237"><ele>475.0</ele><time>2026-04-18T12:26:29.968Z</time></trkpt><trkpt lat="42.7193647" lon="12.3452361"><ele>475.0</ele><time>2026-04-18T12:26:30.99Z</time></trkpt><trkpt lat="42.7194929" lon="12.3453143"><ele>475.0</ele><time>2026-04-18T12:26:31.967Z</time></trkpt><trkpt lat="42.7196305" lon="12.3453469"><ele>474.0</ele><time>2026-04-18T12:26:32.979Z</time></trkpt><trkpt lat="42.7197672" lon="12.3453545"><ele>473.0</ele><time>2026-04-18T12:26:33.989Z</time></trkpt><trkpt lat="42.7199002" lon="12.3453539"><ele>472.0</ele><time>2026-04-18T12:26:34.982Z</time></trkpt><trkpt lat="42.720028" lon="12.3453448"><ele>471.0</ele><time>2026-04-18T12:26:35.982Z</time></trkpt><trkpt lat="42.7201553" lon="12.3453088"><ele>470.0</ele><time>2026-04-18T12:26:36.969Z</time></trkpt><trkpt lat="42.7202953" lon="12.3452343"><ele>469.0</ele><time>2026-04-18T12:26:37.967Z</time></trkpt><trkpt lat="42.7204438" lon="12.3451311"><ele>468.0</ele><time>2026-04-18T12:26:38.996Z</time></trkpt><trkpt lat="42.7206017" lon="12.3450382"><ele>468.0</ele><time>2026-04-18T12:26:40Z</time></trkpt><trkpt lat="42.720753" lon="12.3449608"><ele>468.0</ele><time>2026-04-18T12:26:40.981Z</time></trkpt><trkpt lat="42.7208999" lon="12.3449093"><ele>468.0</ele><time>2026-04-18T12:26:41.985Z</time></trkpt><trkpt lat="42.7210363" lon="12.3448927"><ele>467.5</ele><time>2026-04-18T12:26:42.992Z</time></trkpt><trkpt lat="42.7211707" lon="12.3448952"><ele>467.0</ele><time>2026-04-18T12:26:43.992Z</time></trkpt><trkpt lat="42.7213108" lon="12.3449159"><ele>466.5</ele><time>2026-04-18T12:26:44.979Z</time></trkpt><trkpt lat="42.7214717" lon="12.3449683"><ele>466.0</ele><time>2026-04-18T12:26:45.974Z</time></trkpt><trkpt lat="42.7216502" lon="12.3450334"><ele>466.0</ele><time>2026-04-18T12:26:46.998Z</time></trkpt><trkpt lat="42.7218442" lon="12.3451086"><ele>466.0</ele><time>2026-04-18T12:26:47.98Z</time></trkpt><trkpt lat="42.7220381" lon="12.3451908"><ele>466.0</ele><time>2026-04-18T12:26:48.98Z</time></trkpt><trkpt lat="42.7222262" lon="12.345272"><ele>466.33333333333337</ele><time>2026-04-18T12:26:49.999Z</time></trkpt><trkpt lat="42.7223926" lon="12.345341"><ele>466.66666666666663</ele><time>2026-04-18T12:26:50.978Z</time></trkpt><trkpt lat="42.722551" lon="12.3453951"><ele>467.0</ele><time>2026-04-18T12:26:51.983Z</time></trkpt><trkpt lat="42.7227058" lon="12.3454311"><ele>467.0</ele><time>2026-04-18T12:26:52.994Z</time></trkpt><trkpt lat="42.7228499" lon="12.3454468"><ele>467.0</ele><time>2026-04-18T12:26:53.978Z</time></trkpt><trkpt lat="42.722997" lon="12.3454412"><ele>467.0</ele><time>2026-04-18T12:26:54.978Z</time></trkpt><trkpt lat="42.723135" lon="12.3454298"><ele>467.0</ele><time>2026-04-18T12:26:55.985Z</time></trkpt><trkpt lat="42.7232669" lon="12.3454269"><ele>467.0</ele><time>2026-04-18T12:26:56.98Z</time></trkpt><trkpt lat="42.7233866" lon="12.3454539"><ele>467.0</ele><time>2026-04-18T12:26:57.982Z</time></trkpt><trkpt lat="42.7234963" lon="12.3455126"><ele>467.0</ele><time>2026-04-18T12:26:58.993Z</time></trkpt><trkpt lat="42.7235891" lon="12.3456088"><ele>467.0</ele><time>2026-04-18T12:26:59.997Z</time></trkpt><trkpt lat="42.7236825" lon="12.3457388"><ele>465.25</ele><time>2026-04-18T12:27:00.98Z</time></trkpt><trkpt lat="42.7237802" lon="12.345879"><ele>463.5</ele><time>2026-04-18T12:27:01.985Z</time></trkpt><trkpt lat="42.7238829" lon="12.3460235"><ele>461.75</ele><time>2026-04-18T12:27:02.997Z</time></trkpt><trkpt lat="42.7239822" lon="12.3461608"><ele>460.0</ele><time>2026-04-18T12:27:03.98Z</time></trkpt><trkpt lat="42.7240717" lon="12.3462895"><ele>458.2</ele><time>2026-04-18T12:27:05.001Z</time></trkpt><trkpt lat="42.7241624" lon="12.3464018"><ele>456.4</ele><time>2026-04-18T12:27:05.994Z</time></trkpt><trkpt lat="42.7242474" lon="12.3464965"><ele>454.6</ele><time>2026-04-18T12:27:06.992Z</time></trkpt><trkpt lat="42.7243363" lon="12.346556"><ele>452.8</ele><time>2026-04-18T12:27:07.989Z</time></trkpt><trkpt lat="42.7244369" lon="12.3465682"><ele>451.0</ele><time>2026-04-18T12:27:08.98Z</time></trkpt><trkpt lat="42.7245355" lon="12.3465316"><ele>449.75</ele><time>2026-04-18T12:27:09.991Z</time></trkpt><trkpt lat="42.7246242" lon="12.3464345"><ele>448.5</ele><time>2026-04-18T12:27:10.99Z</time></trkpt><trkpt lat="42.7246936" lon="12.3462992"><ele>447.25</ele><time>2026-04-18T12:27:11.981Z</time></trkpt><trkpt lat="42.7247416" lon="12.3461291"><ele>446.0</ele><time>2026-04-18T12:27:12.982Z</time></trkpt><trkpt lat="42.7247684" lon="12.3459498"><ele>446.0</ele><time>2026-04-18T12:27:13.986Z</time></trkpt><trkpt lat="42.7247889" lon="12.3457638"><ele>446.0</ele><time>2026-04-18T12:27:14.982Z</time></trkpt><trkpt lat="42.7248027" lon="12.3455735"><ele>446.0</ele><time>2026-04-18T12:27:15.97Z</time></trkpt><trkpt lat="42.7248007" lon="12.3453786"><ele>446.0</ele><time>2026-04-18T12:27:16.98Z</time></trkpt><trkpt lat="42.7247746" lon="12.3451861"><ele>446.0</ele><time>2026-04-18T12:27:17.981Z</time></trkpt><trkpt lat="42.7247332" lon="12.3449843"><ele>446.0</ele><time>2026-04-18T12:27:18.979Z</time></trkpt><trkpt lat="42.7246944" lon="12.3447879"><ele>446.0</ele><time>2026-04-18T12:27:19.988Z</time></trkpt><trkpt lat="42.7246583" lon="12.3446029"><ele>446.0</ele><time>2026-04-18T12:27:20.979Z</time></trkpt><trkpt lat="42.7246297" lon="12.3444257"><ele>445.25</ele><time>2026-04-18T12:27:22.008Z</time></trkpt><trkpt lat="42.724593" lon="12.3442575"><ele>444.5</ele><time>2026-04-18T12:27:22.982Z</time></trkpt><trkpt lat="42.7245414" lon="12.3440989"><ele>443.75</ele><time>2026-04-18T12:27:23.973Z</time></trkpt><trkpt lat="42.7244878" lon="12.3439409"><ele>443.0</ele><time>2026-04-18T12:27:24.988Z</time></trkpt><trkpt lat="42.7244306" lon="12.3437721"><ele>443.5</ele><time>2026-04-18T12:27:25.989Z</time></trkpt><trkpt lat="42.7243746" lon="12.3435934"><ele>444.0</ele><time>2026-04-18T12:27:26.979Z</time></trkpt><trkpt lat="42.7243222" lon="12.3434236"><ele>444.5</ele><time>2026-04-18T12:27:27.997Z</time></trkpt><trkpt lat="42.7242769" lon="12.3432757"><ele>445.0</ele><time>2026-04-18T12:27:28.975Z</time></trkpt><trkpt lat="42.7242441" lon="12.3431511"><ele>444.2</ele><time>2026-04-18T12:27:29.976Z</time></trkpt><trkpt lat="42.7242143" lon="12.343037"><ele>443.4</ele><time>2026-04-18T12:27:30.981Z</time></trkpt><trkpt lat="42.7241865" lon="12.3429183"><ele>442.6</ele><time>2026-04-18T12:27:31.979Z</time></trkpt><trkpt lat="42.7241568" lon="12.3427962"><ele>441.8</ele><time>2026-04-18T12:27:32.976Z</time></trkpt><trkpt lat="42.7241299" lon="12.3426626"><ele>441.0</ele><time>2026-04-18T12:27:33.97Z</time></trkpt><trkpt lat="42.7241202" lon="12.3425116"><ele>441.0</ele><time>2026-04-18T12:27:34.993Z</time></trkpt><trkpt lat="42.7241159" lon="12.3423541"><ele>441.0</ele><time>2026-04-18T12:27:35.976Z</time></trkpt><trkpt lat="42.7241154" lon="12.3422037"><ele>441.0</ele><time>2026-04-18T12:27:36.988Z</time></trkpt><trkpt lat="42.7241206" lon="12.3420596"><ele>441.0</ele><time>2026-04-18T12:27:37.989Z</time></trkpt><trkpt lat="42.7241291" lon="12.3418977"><ele>441.25</ele><time>2026-04-18T12:27:38.979Z</time></trkpt><trkpt lat="42.7241413" lon="12.3417289"><ele>441.5</ele><time>2026-04-18T12:27:40.002Z</time></trkpt><trkpt lat="42.7241596" lon="12.3415629"><ele>441.75</ele><time>2026-04-18T12:27:40.974Z</time></trkpt><trkpt lat="42.724185" lon="12.3414121"><ele>442.0</ele><time>2026-04-18T12:27:41.975Z</time></trkpt><trkpt lat="42.7242226" lon="12.3412674"><ele>442.0</ele><time>2026-04-18T12:27:42.971Z</time></trkpt><trkpt lat="42.7242713" lon="12.3411306"><ele>442.00000000000006</ele><time>2026-04-18T12:27:43.989Z</time></trkpt><trkpt lat="42.7243218" lon="12.3409902"><ele>442.00000000000006</ele><time>2026-04-18T12:27:44.974Z</time></trkpt><trkpt lat="42.7243733" lon="12.3408524"><ele>442.0</ele><time>2026-04-18T12:27:45.99Z</time></trkpt><trkpt lat="42.7244268" lon="12.3407239"><ele>442.0</ele><time>2026-04-18T12:27:46.989Z</time></trkpt><trkpt lat="42.7244754" lon="12.3405988"><ele>440.0</ele><time>2026-04-18T12:27:47.979Z</time></trkpt><trkpt lat="42.7245229" lon="12.3404791"><ele>438.00000000000006</ele><time>2026-04-18T12:27:48.99Z</time></trkpt><trkpt lat="42.7245693" lon="12.3403663"><ele>436.00000000000006</ele><time>2026-04-18T12:27:49.974Z</time></trkpt><trkpt lat="42.7246135" lon="12.3402525"><ele>434.0</ele><time>2026-04-18T12:27:50.975Z</time></trkpt><trkpt lat="42.7246652" lon="12.3401405"><ele>432.0</ele><time>2026-04-18T12:27:51.988Z</time></trkpt><trkpt lat="42.7247333" lon="12.3400287"><ele>432.0</ele><time>2026-04-18T12:27:53.005Z</time></trkpt><trkpt lat="42.7248077" lon="12.3399133"><ele>432.0</ele><time>2026-04-18T12:27:53.977Z</time></trkpt><trkpt lat="42.7248873" lon="12.3397981"><ele>432.0</ele><time>2026-04-18T12:27:54.974Z</time></trkpt><trkpt lat="42.7249671" lon="12.3396834"><ele>432.0</ele><time>2026-04-18T12:27:55.982Z</time></trkpt><trkpt lat="42.7250448" lon="12.3395737"><ele>432.8</ele><time>2026-04-18T12:27:56.987Z</time></trkpt><trkpt lat="42.7251237" lon="12.3394732"><ele>433.6</ele><time>2026-04-18T12:27:57.984Z</time></trkpt><trkpt lat="42.7252001" lon="12.339374"><ele>434.40000000000003</ele><time>2026-04-18T12:27:58.974Z</time></trkpt><trkpt lat="42.7252741" lon="12.3392684"><ele>435.20000000000005</ele><time>2026-04-18T12:27:59.973Z</time></trkpt><trkpt lat="42.7253511" lon="12.3391613"><ele>436.0</ele><time>2026-04-18T12:28:00.991Z</time></trkpt><trkpt lat="42.7254358" lon="12.3390514"><ele>435.0</ele><time>2026-04-18T12:28:01.991Z</time></trkpt><trkpt lat="42.7255229" lon="12.338929"><ele>434.0</ele><time>2026-04-18T12:28:02.994Z</time></trkpt><trkpt lat="42.7256096" lon="12.3388001"><ele>433.0</ele><time>2026-04-18T12:28:03.977Z</time></trkpt><trkpt lat="42.725699" lon="12.338669"><ele>432.0</ele><time>2026-04-18T12:28:04.978Z</time></trkpt><trkpt lat="42.7257844" lon="12.3385461"><ele>432.0</ele><time>2026-04-18T12:28:05.997Z</time></trkpt><trkpt lat="42.7258626" lon="12.3384377"><ele>432.00000000000006</ele><time>2026-04-18T12:28:06.991Z</time></trkpt><trkpt lat="42.7259391" lon="12.3383291"><ele>432.00000000000006</ele><time>2026-04-18T12:28:07.974Z</time></trkpt><trkpt lat="42.7260093" lon="12.3382219"><ele>432.0</ele><time>2026-04-18T12:28:08.981Z</time></trkpt><trkpt lat="42.7260763" lon="12.3381163"><ele>432.0</ele><time>2026-04-18T12:28:09.988Z</time></trkpt><trkpt lat="42.7261408" lon="12.3380144"><ele>431.0</ele><time>2026-04-18T12:28:10.977Z</time></trkpt><trkpt lat="42.7262129" lon="12.3379212"><ele>430.0</ele><time>2026-04-18T12:28:11.991Z</time></trkpt><trkpt lat="42.726279" lon="12.3378306"><ele>429.0</ele><time>2026-04-18T12:28:12.984Z</time></trkpt><trkpt lat="42.7263418" lon="12.3377435"><ele>428.0</ele><time>2026-04-18T12:28:13.978Z</time></trkpt><trkpt lat="42.7263965" lon="12.3376624"><ele>427.0</ele><time>2026-04-18T12:28:14.984Z</time></trkpt><trkpt lat="42.7264456" lon="12.3375902"><ele>426.0</ele><time>2026-04-18T12:28:15.978Z</time></trkpt><trkpt lat="42.7264759" lon="12.33745"><ele>426.0</ele><time>2026-04-18T12:28:17.985Z</time></trkpt><trkpt lat="42.7264725" lon="12.3372955"><ele>426.0</ele><time>2026-04-18T12:28:19.973Z</time></trkpt><trkpt lat="42.7264897" lon="12.3371321"><ele>426.0</ele><time>2026-04-18T12:28:21.986Z</time></trkpt><trkpt lat="42.7265018" lon="12.3369863"><ele>426.0</ele><time>2026-04-18T12:28:23.991Z</time></trkpt><trkpt lat="42.726469" lon="12.3369063"><ele>426.0</ele><time>2026-04-18T12:28:27.991Z</time></trkpt><trkpt lat="42.7264038" lon="12.3369157"><ele>426.3333333333333</ele><time>2026-04-18T12:28:35.972Z</time></trkpt><trkpt lat="42.7263236" lon="12.3369513"><ele>426.66666666666663</ele><time>2026-04-18T12:28:38.999Z</time></trkpt><trkpt lat="42.7262568" lon="12.3369941"><ele>427.0</ele><time>2026-04-18T12:28:41.991Z</time></trkpt><trkpt lat="42.726201" lon="12.3370472"><ele>427.3333333333333</ele><time>2026-04-18T12:31:00.967Z</time></trkpt><trkpt lat="42.7261372" lon="12.3370843"><ele>427.66666666666663</ele><time>2026-04-18T12:31:02.987Z</time></trkpt><trkpt lat="42.7260403" lon="12.3371026"><ele>428.0</ele><time>2026-04-18T12:31:04.971Z</time></trkpt><trkpt lat="42.7259703" lon="12.3371114"><ele>428.49999999999994</ele><time>2026-04-18T12:31:05.989Z</time></trkpt><trkpt lat="42.7258902" lon="12.337123"><ele>429.0</ele><time>2026-04-18T12:31:06.983Z</time></trkpt><trkpt lat="42.7258054" lon="12.3371417"><ele>429.5</ele><time>2026-04-18T12:31:07.984Z</time></trkpt><trkpt lat="42.7257088" lon="12.3371573"><ele>430.0</ele><time>2026-04-18T12:31:08.982Z</time></trkpt><trkpt lat="42.725614" lon="12.3371706"><ele>430.49999999999994</ele><time>2026-04-18T12:31:09.996Z</time></trkpt><trkpt lat="42.7255286" lon="12.3371718"><ele>431.0</ele><time>2026-04-18T12:31:10.991Z</time></trkpt><trkpt lat="42.7254461" lon="12.3371741"><ele>430.99999999999994</ele><time>2026-04-18T12:31:12Z</time></trkpt><trkpt lat="42.7253673" lon="12.3371753"><ele>431.0</ele><time>2026-04-18T12:31:12.995Z</time></trkpt><trkpt lat="42.7252862" lon="12.3371894"><ele>431.0</ele><time>2026-04-18T12:31:13.991Z</time></trkpt><trkpt lat="42.7252087" lon="12.3372093"><ele>431.0</ele><time>2026-04-18T12:31:14.996Z</time></trkpt><trkpt lat="42.7251225" lon="12.3372347"><ele>430.99999999999994</ele><time>2026-04-18T12:31:15.973Z</time></trkpt><trkpt lat="42.7250222" lon="12.3372641"><ele>431.0</ele><time>2026-04-18T12:31:16.987Z</time></trkpt><trkpt lat="42.7249139" lon="12.3372996"><ele>433.6</ele><time>2026-04-18T12:31:17.992Z</time></trkpt><trkpt lat="42.7248039" lon="12.3373306"><ele>436.20000000000005</ele><time>2026-04-18T12:31:18.99Z</time></trkpt><trkpt lat="42.7246979" lon="12.3373553"><ele>438.79999999999995</ele><time>2026-04-18T12:31:19.99Z</time></trkpt><trkpt lat="42.7246005" lon="12.3373813"><ele>441.4</ele><time>2026-04-18T12:31:20.989Z</time></trkpt><trkpt lat="42.7245061" lon="12.3374039"><ele>444.0</ele><time>2026-04-18T12:31:21.985Z</time></trkpt><trkpt lat="42.7244062" lon="12.3374255"><ele>446.2</ele><time>2026-04-18T12:31:22.981Z</time></trkpt><trkpt lat="42.7243091" lon="12.3374486"><ele>448.4</ele><time>2026-04-18T12:31:23.974Z</time></trkpt><trkpt lat="42.7242155" lon="12.3374783"><ele>450.6</ele><time>2026-04-18T12:31:24.989Z</time></trkpt><trkpt lat="42.7241262" lon="12.3375149"><ele>452.8</ele><time>2026-04-18T12:31:25.986Z</time></trkpt><trkpt lat="42.724041" lon="12.3375436"><ele>455.0</ele><time>2026-04-18T12:31:26.983Z</time></trkpt><trkpt lat="42.7239606" lon="12.3375693"><ele>454.99999999999994</ele><time>2026-04-18T12:31:27.989Z</time></trkpt><trkpt lat="42.7238799" lon="12.3375897"><ele>455.0</ele><time>2026-04-18T12:31:29.007Z</time></trkpt><trkpt lat="42.723801" lon="12.3376135"><ele>455.0</ele><time>2026-04-18T12:31:29.969Z</time></trkpt><trkpt lat="42.7237366" lon="12.3376329"><ele>455.0</ele><time>2026-04-18T12:31:30.986Z</time></trkpt><trkpt lat="42.7236611" lon="12.3376372"><ele>454.99999999999994</ele><time>2026-04-18T12:31:32.983Z</time></trkpt><trkpt lat="42.7235846" lon="12.3375848"><ele>455.0</ele><time>2026-04-18T12:31:44.006Z</time></trkpt><trkpt lat="42.7235268" lon="12.3375233"><ele>456.4</ele><time>2026-04-18T12:31:45.998Z</time></trkpt><trkpt lat="42.723438" lon="12.3374674"><ele>457.8</ele><time>2026-04-18T12:31:47.993Z</time></trkpt><trkpt lat="42.7233547" lon="12.3374232"><ele>459.20000000000005</ele><time>2026-04-18T12:31:49.983Z</time></trkpt><trkpt lat="42.7232621" lon="12.3373889"><ele>460.6</ele><time>2026-04-18T12:31:51.995Z</time></trkpt><trkpt lat="42.7231636" lon="12.3373662"><ele>462.0</ele><time>2026-04-18T12:31:53.987Z</time></trkpt><trkpt lat="42.723034" lon="12.3373706"><ele>462.0</ele><time>2026-04-18T12:31:55.986Z</time></trkpt><trkpt lat="42.7229484" lon="12.33739"><ele>462.0</ele><time>2026-04-18T12:31:56.98Z</time></trkpt><trkpt lat="42.7228523" lon="12.3374146"><ele>462.0</ele><time>2026-04-18T12:31:57.985Z</time></trkpt><trkpt lat="42.7227631" lon="12.3374361"><ele>462.0</ele><time>2026-04-18T12:31:58.978Z</time></trkpt><trkpt lat="42.7226773" lon="12.3374521"><ele>462.0</ele><time>2026-04-18T12:31:59.985Z</time></trkpt><trkpt lat="42.7225927" lon="12.3374653"><ele>462.0</ele><time>2026-04-18T12:32:00.974Z</time></trkpt><trkpt lat="42.7225077" lon="12.3374788"><ele>462.0</ele><time>2026-04-18T12:32:01.983Z</time></trkpt><trkpt lat="42.7224261" lon="12.3374897"><ele>462.0</ele><time>2026-04-18T12:32:02.982Z</time></trkpt><trkpt lat="42.7223453" lon="12.3375096"><ele>462.0</ele><time>2026-04-18T12:32:03.98Z</time></trkpt><trkpt lat="42.7222563" lon="12.3375315"><ele>462.0</ele><time>2026-04-18T12:32:04.995Z</time></trkpt><trkpt lat="42.7221651" lon="12.3375437"><ele>462.0</ele><time>2026-04-18T12:32:05.975Z</time></trkpt><trkpt lat="42.7220737" lon="12.3375444"><ele>462.0</ele><time>2026-04-18T12:32:06.983Z</time></trkpt><trkpt lat="42.7219879" lon="12.3375369"><ele>462.0</ele><time>2026-04-18T12:32:07.978Z</time></trkpt><trkpt lat="42.7219063" lon="12.3375176"><ele>462.00000000000006</ele><time>2026-04-18T12:32:08.985Z</time></trkpt><trkpt lat="42.7218199" lon="12.3375001"><ele>462.00000000000006</ele><time>2026-04-18T12:32:09.986Z</time></trkpt><trkpt lat="42.7217254" lon="12.3374854"><ele>462.0</ele><time>2026-04-18T12:32:10.97Z</time></trkpt><trkpt lat="42.7216337" lon="12.337463"><ele>462.0</ele><time>2026-04-18T12:32:11.984Z</time></trkpt><trkpt lat="42.7215374" lon="12.3374317"><ele>461.6</ele><time>2026-04-18T12:32:12.981Z</time></trkpt><trkpt lat="42.7214387" lon="12.3373924"><ele>461.20000000000005</ele><time>2026-04-18T12:32:13.999Z</time></trkpt><trkpt lat="42.7213409" lon="12.3373565"><ele>460.8</ele><time>2026-04-18T12:32:14.99Z</time></trkpt><trkpt lat="42.7212482" lon="12.3373249"><ele>460.4</ele><time>2026-04-18T12:32:15.982Z</time></trkpt><trkpt lat="42.7211548" lon="12.3372971"><ele>460.0</ele><time>2026-04-18T12:32:16.982Z</time></trkpt><trkpt lat="42.7210645" lon="12.3372781"><ele>459.2</ele><time>2026-04-18T12:32:17.98Z</time></trkpt><trkpt lat="42.7209716" lon="12.3372674"><ele>458.4</ele><time>2026-04-18T12:32:18.991Z</time></trkpt><trkpt lat="42.7208713" lon="12.3372597"><ele>457.6</ele><time>2026-04-18T12:32:19.978Z</time></trkpt><trkpt lat="42.7207686" lon="12.3372471"><ele>456.8</ele><time>2026-04-18T12:32:20.975Z</time></trkpt><trkpt lat="42.7206624" lon="12.3372255"><ele>456.0</ele><time>2026-04-18T12:32:21.986Z</time></trkpt><trkpt lat="42.7205683" lon="12.3372004"><ele>456.0</ele><time>2026-04-18T12:32:23Z</time></trkpt><trkpt lat="42.7204803" lon="12.3371476"><ele>456.0</ele><time>2026-04-18T12:32:23.971Z</time></trkpt><trkpt lat="42.7204034" lon="12.3370714"><ele>456.0</ele><time>2026-04-18T12:32:24.991Z</time></trkpt><trkpt lat="42.7203354" lon="12.3369827"><ele>456.0</ele><time>2026-04-18T12:32:25.98Z</time></trkpt><trkpt lat="42.7202731" lon="12.3368836"><ele>456.0</ele><time>2026-04-18T12:32:26.98Z</time></trkpt><trkpt lat="42.7202208" lon="12.3367904"><ele>458.8333333333333</ele><time>2026-04-18T12:32:27.97Z</time></trkpt><trkpt lat="42.7201623" lon="12.3367044"><ele>461.66666666666663</ele><time>2026-04-18T12:32:28.994Z</time></trkpt><trkpt lat="42.720085" lon="12.3366335"><ele>464.5</ele><time>2026-04-18T12:32:29.985Z</time></trkpt><trkpt lat="42.7200026" lon="12.3365686"><ele>467.3333333333333</ele><time>2026-04-18T12:32:30.975Z</time></trkpt><trkpt lat="42.7199273" lon="12.3365313"><ele>470.16666666666663</ele><time>2026-04-18T12:32:31.98Z</time></trkpt><trkpt lat="42.7198612" lon="12.3365153"><ele>473.0</ele><time>2026-04-18T12:32:32.975Z</time></trkpt><trkpt lat="42.7197464" lon="12.3365364"><ele>472.99999999999994</ele><time>2026-04-18T12:32:34.975Z</time></trkpt><trkpt lat="42.7196943" lon="12.3365868"><ele>473.0</ele><time>2026-04-18T12:32:35.983Z</time></trkpt><trkpt lat="42.719646" lon="12.3366542"><ele>473.0</ele><time>2026-04-18T12:32:36.98Z</time></trkpt><trkpt lat="42.7195778" lon="12.3367252"><ele>473.0</ele><time>2026-04-18T12:32:37.989Z</time></trkpt><trkpt lat="42.7194935" lon="12.3368183"><ele>472.99999999999994</ele><time>2026-04-18T12:32:38.977Z</time></trkpt><trkpt lat="42.7194063" lon="12.3369165"><ele>473.0</ele><time>2026-04-18T12:32:39.983Z</time></trkpt><trkpt lat="42.7193072" lon="12.3370064"><ele>472.79999999999995</ele><time>2026-04-18T12:32:40.985Z</time></trkpt><trkpt lat="42.7192063" lon="12.3370965"><ele>472.59999999999997</ele><time>2026-04-18T12:32:41.981Z</time></trkpt><trkpt lat="42.7191035" lon="12.3371711"><ele>472.40000000000003</ele><time>2026-04-18T12:32:42.985Z</time></trkpt><trkpt lat="42.7190098" lon="12.3372484"><ele>472.20000000000005</ele><time>2026-04-18T12:32:43.984Z</time></trkpt><trkpt lat="42.7189262" lon="12.3373296"><ele>472.0</ele><time>2026-04-18T12:32:44.972Z</time></trkpt><trkpt lat="42.7188528" lon="12.3373996"><ele>473.0</ele><time>2026-04-18T12:32:45.984Z</time></trkpt><trkpt lat="42.7187401" lon="12.3374303"><ele>474.00000000000006</ele><time>2026-04-18T12:32:47.984Z</time></trkpt><trkpt lat="42.7186775" lon="12.3373903"><ele>475.00000000000006</ele><time>2026-04-18T12:32:49Z</time></trkpt><trkpt lat="42.7186088" lon="12.3373106"><ele>476.0</ele><time>2026-04-18T12:32:49.974Z</time></trkpt><trkpt lat="42.7185341" lon="12.3372269"><ele>477.0</ele><time>2026-04-18T12:32:50.995Z</time></trkpt><trkpt lat="42.7184579" lon="12.3371458"><ele>477.0</ele><time>2026-04-18T12:32:51.978Z</time></trkpt><trkpt lat="42.7183872" lon="12.3370704"><ele>477.0</ele><time>2026-04-18T12:32:52.981Z</time></trkpt><trkpt lat="42.7183186" lon="12.3369977"><ele>477.0</ele><time>2026-04-18T12:32:53.996Z</time></trkpt><trkpt lat="42.7182498" lon="12.3369265"><ele>477.0</ele><time>2026-04-18T12:32:54.984Z</time></trkpt><trkpt lat="42.7181809" lon="12.3368513"><ele>477.0</ele><time>2026-04-18T12:32:55.982Z</time></trkpt><trkpt lat="42.7181114" lon="12.3367769"><ele>477.0</ele><time>2026-04-18T12:32:56.983Z</time></trkpt><trkpt lat="42.7180402" lon="12.3367044"><ele>477.0</ele><time>2026-04-18T12:32:57.98Z</time></trkpt><trkpt lat="42.7179629" lon="12.336633"><ele>477.0</ele><time>2026-04-18T12:32:58.979Z</time></trkpt><trkpt lat="42.7178906" lon="12.3365619"><ele>477.0</ele><time>2026-04-18T12:32:59.985Z</time></trkpt><trkpt lat="42.7178254" lon="12.3364946"><ele>477.0</ele><time>2026-04-18T12:33:00.969Z</time></trkpt><trkpt lat="42.7177642" lon="12.3364316"><ele>477.0</ele><time>2026-04-18T12:33:01.992Z</time></trkpt><trkpt lat="42.7177047" lon="12.3363666"><ele>477.0</ele><time>2026-04-18T12:33:02.976Z</time></trkpt><trkpt lat="42.7176508" lon="12.3362969"><ele>478.71428571428567</ele><time>2026-04-18T12:33:03.991Z</time></trkpt><trkpt lat="42.7176208" lon="12.3362146"><ele>480.4285714285714</ele><time>2026-04-18T12:33:05.004Z</time></trkpt><trkpt lat="42.7176131" lon="12.3361253"><ele>482.1428571428571</ele><time>2026-04-18T12:33:05.981Z</time></trkpt><trkpt lat="42.7176143" lon="12.3360208"><ele>483.8571428571429</ele><time>2026-04-18T12:33:06.975Z</time></trkpt><trkpt lat="42.7176144" lon="12.3359161"><ele>485.5714285714286</ele><time>2026-04-18T12:33:07.97Z</time></trkpt><trkpt lat="42.7176099" lon="12.3358201"><ele>487.28571428571433</ele><time>2026-04-18T12:33:08.985Z</time></trkpt><trkpt lat="42.7175802" lon="12.3357424"><ele>489.0</ele><time>2026-04-18T12:33:09.995Z</time></trkpt><trkpt lat="42.7175257" lon="12.335695"><ele>489.0</ele><time>2026-04-18T12:33:10.986Z</time></trkpt><trkpt lat="42.717449" lon="12.3356627"><ele>489.0</ele><time>2026-04-18T12:33:11.985Z</time></trkpt><trkpt lat="42.717351" lon="12.3356393"><ele>489.0</ele><time>2026-04-18T12:33:12.971Z</time></trkpt><trkpt lat="42.7172429" lon="12.335606"><ele>489.0</ele><time>2026-04-18T12:33:13.985Z</time></trkpt><trkpt lat="42.7171411" lon="12.3355785"><ele>489.0</ele><time>2026-04-18T12:33:14.98Z</time></trkpt><trkpt lat="42.7170521" lon="12.3355635"><ele>488.6666666666667</ele><time>2026-04-18T12:33:15.973Z</time></trkpt><trkpt lat="42.7169682" lon="12.3355488"><ele>488.33333333333337</ele><time>2026-04-18T12:33:16.978Z</time></trkpt><trkpt lat="42.7168846" lon="12.3355376"><ele>488.0</ele><time>2026-04-18T12:33:17.986Z</time></trkpt><trkpt lat="42.7167969" lon="12.3355337"><ele>487.6666666666667</ele><time>2026-04-18T12:33:18.974Z</time></trkpt><trkpt lat="42.7167128" lon="12.3355287"><ele>487.33333333333337</ele><time>2026-04-18T12:33:19.979Z</time></trkpt><trkpt lat="42.7166239" lon="12.3355241"><ele>487.0</ele><time>2026-04-18T12:33:20.975Z</time></trkpt><trkpt lat="42.7165299" lon="12.3355167"><ele>487.00000000000006</ele><time>2026-04-18T12:33:21.983Z</time></trkpt><trkpt lat="42.7164247" lon="12.3355097"><ele>487.0</ele><time>2026-04-18T12:33:22.978Z</time></trkpt><trkpt lat="42.7163304" lon="12.3354972"><ele>487.0</ele><time>2026-04-18T12:33:23.975Z</time></trkpt><trkpt lat="42.7162598" lon="12.335467"><ele>487.0</ele><time>2026-04-18T12:33:24.978Z</time></trkpt><trkpt lat="42.7161915" lon="12.3354186"><ele>487.00000000000006</ele><time>2026-04-18T12:33:25.981Z</time></trkpt><trkpt lat="42.7161274" lon="12.3353657"><ele>487.0</ele><time>2026-04-18T12:33:26.985Z</time></trkpt><trkpt lat="42.7160602" lon="12.335326"><ele>489.1666666666667</ele><time>2026-04-18T12:33:27.981Z</time></trkpt><trkpt lat="42.7159837" lon="12.3352996"><ele>491.33333333333337</ele><time>2026-04-18T12:33:28.983Z</time></trkpt><trkpt lat="42.7158936" lon="12.3352805"><ele>493.5</ele><time>2026-04-18T12:33:29.979Z</time></trkpt><trkpt lat="42.7158063" lon="12.3352744"><ele>495.66666666666663</ele><time>2026-04-18T12:33:30.978Z</time></trkpt><trkpt lat="42.715722" lon="12.3352694"><ele>497.8333333333333</ele><time>2026-04-18T12:33:31.991Z</time></trkpt><trkpt lat="42.7156478" lon="12.3352651"><ele>500.0</ele><time>2026-04-18T12:33:32.972Z</time></trkpt><trkpt lat="42.7155701" lon="12.3352535"><ele>500.0</ele><time>2026-04-18T12:33:33.979Z</time></trkpt><trkpt lat="42.7154934" lon="12.335238"><ele>500.0</ele><time>2026-04-18T12:33:34.993Z</time></trkpt><trkpt lat="42.7154109" lon="12.3352187"><ele>500.0</ele><time>2026-04-18T12:33:35.977Z</time></trkpt><trkpt lat="42.7153326" lon="12.3351964"><ele>500.0</ele><time>2026-04-18T12:33:36.996Z</time></trkpt><trkpt lat="42.7152695" lon="12.3351675"><ele>500.0</ele><time>2026-04-18T12:33:37.977Z</time></trkpt><trkpt lat="42.7152064" lon="12.3351171"><ele>500.0</ele><time>2026-04-18T12:33:38.982Z</time></trkpt><trkpt lat="42.7151525" lon="12.3350611"><ele>500.0</ele><time>2026-04-18T12:33:39.982Z</time></trkpt><trkpt lat="42.7151007" lon="12.3350105"><ele>502.2</ele><time>2026-04-18T12:33:40.979Z</time></trkpt><trkpt lat="42.7150008" lon="12.3349245"><ele>504.4</ele><time>2026-04-18T12:33:42.976Z</time></trkpt><trkpt lat="42.7149238" lon="12.334794"><ele>506.6</ele><time>2026-04-18T12:33:44.992Z</time></trkpt><trkpt lat="42.7149009" lon="12.3347102"><ele>508.8</ele><time>2026-04-18T12:33:45.997Z</time></trkpt><trkpt lat="42.7148843" lon="12.3346195"><ele>511.0</ele><time>2026-04-18T12:33:46.984Z</time></trkpt><trkpt lat="42.7148723" lon="12.3345131"><ele>511.0</ele><time>2026-04-18T12:33:47.977Z</time></trkpt><trkpt lat="42.7148624" lon="12.3343756"><ele>511.0</ele><time>2026-04-18T12:33:48.992Z</time></trkpt><trkpt lat="42.7148539" lon="12.3342236"><ele>511.0</ele><time>2026-04-18T12:33:49.998Z</time></trkpt><trkpt lat="42.7148518" lon="12.3340684"><ele>511.0</ele><time>2026-04-18T12:33:50.979Z</time></trkpt><trkpt lat="42.7148417" lon="12.3339222"><ele>511.0</ele><time>2026-04-18T12:33:51.972Z</time></trkpt><trkpt lat="42.7148331" lon="12.3337711"><ele>511.00000000000006</ele><time>2026-04-18T12:33:52.981Z</time></trkpt><trkpt lat="42.7148273" lon="12.3336274"><ele>511.0</ele><time>2026-04-18T12:33:53.985Z</time></trkpt><trkpt lat="42.7148214" lon="12.3334966"><ele>511.0</ele><time>2026-04-18T12:33:54.982Z</time></trkpt><trkpt lat="42.7148152" lon="12.333392"><ele>511.0</ele><time>2026-04-18T12:33:55.989Z</time></trkpt><trkpt lat="42.714808" lon="12.3333056"><ele>511.00000000000006</ele><time>2026-04-18T12:33:56.979Z</time></trkpt><trkpt lat="42.7148001" lon="12.3332153"><ele>511.0</ele><time>2026-04-18T12:33:57.989Z</time></trkpt><trkpt lat="42.7147931" lon="12.3331213"><ele>509.8</ele><time>2026-04-18T12:33:59Z</time></trkpt><trkpt lat="42.7147727" lon="12.3330115"><ele>508.6</ele><time>2026-04-18T12:33:59.994Z</time></trkpt><trkpt lat="42.7147382" lon="12.3328958"><ele>507.4</ele><time>2026-04-18T12:34:00.972Z</time></trkpt><trkpt lat="42.7147005" lon="12.3327882"><ele>506.2</ele><time>2026-04-18T12:34:01.985Z</time></trkpt><trkpt lat="42.7146478" lon="12.3326538"><ele>505.0</ele><time>2026-04-18T12:34:03.981Z</time></trkpt><trkpt lat="42.7145765" lon="12.3325323"><ele>505.00000000000006</ele><time>2026-04-18T12:34:05.986Z</time></trkpt><trkpt lat="42.7145178" lon="12.332477"><ele>505.0</ele><time>2026-04-18T12:34:06.978Z</time></trkpt><trkpt lat="42.7144561" lon="12.332425"><ele>505.0</ele><time>2026-04-18T12:34:07.981Z</time></trkpt><trkpt lat="42.7143995" lon="12.3323769"><ele>505.0</ele><time>2026-04-18T12:34:08.988Z</time></trkpt><trkpt lat="42.7143001" lon="12.3323453"><ele>505.00000000000006</ele><time>2026-04-18T12:34:10.977Z</time></trkpt><trkpt lat="42.7142379" lon="12.3324409"><ele>505.0</ele><time>2026-04-18T12:34:13.981Z</time></trkpt><trkpt lat="42.714238" lon="12.3325771"><ele>509.6666666666667</ele><time>2026-04-18T12:34:15.982Z</time></trkpt><trkpt lat="42.7142293" lon="12.3326878"><ele>514.3333333333334</ele><time>2026-04-18T12:34:17.984Z</time></trkpt><trkpt lat="42.7141709" lon="12.3327276"><ele>519.0</ele><time>2026-04-18T12:34:19.989Z</time></trkpt><trkpt lat="42.7140661" lon="12.3326449"><ele>523.6666666666666</ele><time>2026-04-18T12:34:21.987Z</time></trkpt><trkpt lat="42.7140032" lon="12.3325888"><ele>528.3333333333333</ele><time>2026-04-18T12:34:22.977Z</time></trkpt><trkpt lat="42.7139348" lon="12.332521"><ele>533.0</ele><time>2026-04-18T12:34:23.992Z</time></trkpt><trkpt lat="42.7138689" lon="12.3324467"><ele>533.0</ele><time>2026-04-18T12:34:24.986Z</time></trkpt><trkpt lat="42.7138046" lon="12.3323831"><ele>533.0</ele><time>2026-04-18T12:34:25.978Z</time></trkpt><trkpt lat="42.7137533" lon="12.3323254"><ele>533.0</ele><time>2026-04-18T12:34:26.981Z</time></trkpt><trkpt lat="42.7137037" lon="12.3322692"><ele>533.0</ele><time>2026-04-18T12:34:28.011Z</time></trkpt><trkpt lat="42.7136188" lon="12.3321394"><ele>533.0</ele><time>2026-04-18T12:34:29.982Z</time></trkpt><trkpt lat="42.7135786" lon="12.3320633"><ele>533.0</ele><time>2026-04-18T12:34:31Z</time></trkpt><trkpt lat="42.7135385" lon="12.3319794"><ele>535.3333333333333</ele><time>2026-04-18T12:34:31.978Z</time></trkpt><trkpt lat="42.7134947" lon="12.3319015"><ele>537.6666666666666</ele><time>2026-04-18T12:34:32.985Z</time></trkpt><trkpt lat="42.7134495" lon="12.3318218"><ele>540.0</ele><time>2026-04-18T12:34:33.979Z</time></trkpt><trkpt lat="42.7134026" lon="12.3317388"><ele>542.3333333333334</ele><time>2026-04-18T12:34:34.977Z</time></trkpt><trkpt lat="42.7133625" lon="12.3316433"><ele>544.6666666666667</ele><time>2026-04-18T12:34:35.978Z</time></trkpt><trkpt lat="42.7133231" lon="12.3315493"><ele>547.0</ele><time>2026-04-18T12:34:36.987Z</time></trkpt><trkpt lat="42.7132627" lon="12.3314458"><ele>544.2</ele><time>2026-04-18T12:34:38.978Z</time></trkpt><trkpt lat="42.7131672" lon="12.3313887"><ele>541.4000000000001</ele><time>2026-04-18T12:34:40.973Z</time></trkpt><trkpt lat="42.7130935" lon="12.331377"><ele>538.5999999999999</ele><time>2026-04-18T12:34:41.987Z</time></trkpt><trkpt lat="42.7130008" lon="12.331371"><ele>535.8</ele><time>2026-04-18T12:34:42.987Z</time></trkpt><trkpt lat="42.7129017" lon="12.3313694"><ele>533.0</ele><time>2026-04-18T12:34:43.989Z</time></trkpt><trkpt lat="42.7128055" lon="12.33136"><ele>536.3333333333333</ele><time>2026-04-18T12:34:44.991Z</time></trkpt><trkpt lat="42.7127186" lon="12.3313437"><ele>539.6666666666666</ele><time>2026-04-18T12:34:45.994Z</time></trkpt><trkpt lat="42.7126375" lon="12.3313079"><ele>543.0</ele><time>2026-04-18T12:34:46.983Z</time></trkpt><trkpt lat="42.712561" lon="12.3312579"><ele>546.3333333333334</ele><time>2026-04-18T12:34:47.983Z</time></trkpt><trkpt lat="42.7124881" lon="12.3312015"><ele>549.6666666666667</ele><time>2026-04-18T12:34:48.986Z</time></trkpt><trkpt lat="42.712421" lon="12.3311242"><ele>553.0</ele><time>2026-04-18T12:34:50.01Z</time></trkpt><trkpt lat="42.7123574" lon="12.3310429"><ele>553.0</ele><time>2026-04-18T12:34:50.98Z</time></trkpt><trkpt lat="42.7122923" lon="12.3309601"><ele>553.0</ele><time>2026-04-18T12:34:51.987Z</time></trkpt><trkpt lat="42.7122273" lon="12.3308699"><ele>553.0</ele><time>2026-04-18T12:34:52.981Z</time></trkpt><trkpt lat="42.712174" lon="12.3307763"><ele>553.0</ele><time>2026-04-18T12:34:53.991Z</time></trkpt><trkpt lat="42.7121415" lon="12.3306851"><ele>553.0</ele><time>2026-04-18T12:34:54.993Z</time></trkpt><trkpt lat="42.7121239" lon="12.33058"><ele>553.0</ele><time>2026-04-18T12:34:55.974Z</time></trkpt><trkpt lat="42.712103" lon="12.3304781"><ele>551.6666666666667</ele><time>2026-04-18T12:34:56.979Z</time></trkpt><trkpt lat="42.7120894" lon="12.3303767"><ele>550.3333333333334</ele><time>2026-04-18T12:34:57.978Z</time></trkpt><trkpt lat="42.7120741" lon="12.3302895"><ele>549.0</ele><time>2026-04-18T12:34:58.992Z</time></trkpt><trkpt lat="42.7120639" lon="12.3301525"><ele>547.6666666666666</ele><time>2026-04-18T12:35:00.98Z</time></trkpt><trkpt lat="42.7120622" lon="12.3300378"><ele>546.3333333333333</ele><time>2026-04-18T12:35:02.976Z</time></trkpt><trkpt lat="42.7120705" lon="12.3298941"><ele>545.0</ele><time>2026-04-18T12:35:04.975Z</time></trkpt><trkpt lat="42.7120873" lon="12.3297465"><ele>545.8333333333333</ele><time>2026-04-18T12:35:06.976Z</time></trkpt><trkpt lat="42.7120918" lon="12.3296101"><ele>546.6666666666666</ele><time>2026-04-18T12:35:08.992Z</time></trkpt><trkpt lat="42.7121112" lon="12.3294818"><ele>547.5</ele><time>2026-04-18T12:35:10.988Z</time></trkpt><trkpt lat="42.7121554" lon="12.3293771"><ele>548.3333333333334</ele><time>2026-04-18T12:35:12.996Z</time></trkpt><trkpt lat="42.7121646" lon="12.3292905"><ele>549.1666666666667</ele><time>2026-04-18T12:35:14.984Z</time></trkpt><trkpt lat="42.7120952" lon="12.3292684"><ele>550.0</ele><time>2026-04-18T12:35:18.983Z</time></trkpt><trkpt lat="42.7120265" lon="12.3292745"><ele>550.0</ele><time>2026-04-18T12:35:21.986Z</time></trkpt><trkpt lat="42.711949" lon="12.3292431"><ele>550.0</ele><time>2026-04-18T12:35:24.99Z</time></trkpt><trkpt lat="42.7119631" lon="12.3293375"><ele>550.0</ele><time>2026-04-18T12:35:28.972Z</time></trkpt><trkpt lat="42.7120136" lon="12.3294361"><ele>550.0</ele><time>2026-04-18T12:35:30.991Z</time></trkpt><trkpt lat="42.7120471" lon="12.3295367"><ele>550.0</ele><time>2026-04-18T12:35:32.992Z</time></trkpt><trkpt lat="42.7120493" lon="12.3296779"><ele>550.0</ele><time>2026-04-18T12:35:34.99Z</time></trkpt><trkpt lat="42.7120383" lon="12.3297648"><ele>549.0</ele><time>2026-04-18T12:35:35.987Z</time></trkpt><trkpt lat="42.7120199" lon="12.3298677"><ele>548.0</ele><time>2026-04-18T12:35:36.977Z</time></trkpt><trkpt lat="42.711992" lon="12.3299812"><ele>547.0</ele><time>2026-04-18T12:35:37.986Z</time></trkpt><trkpt lat="42.7119605" lon="12.3301007"><ele>546.0</ele><time>2026-04-18T12:35:38.978Z</time></trkpt><trkpt lat="42.7119241" lon="12.3302213"><ele>545.0</ele><time>2026-04-18T12:35:39.978Z</time></trkpt><trkpt lat="42.7118767" lon="12.3303434"><ele>548.2</ele><time>2026-04-18T12:35:40.988Z</time></trkpt><trkpt lat="42.7118198" lon="12.3304733"><ele>551.4</ele><time>2026-04-18T12:35:41.99Z</time></trkpt><trkpt lat="42.7117678" lon="12.3306125"><ele>554.6</ele><time>2026-04-18T12:35:42.989Z</time></trkpt><trkpt lat="42.7117232" lon="12.3307427"><ele>557.8</ele><time>2026-04-18T12:35:44.006Z</time></trkpt><trkpt lat="42.711686" lon="12.330866"><ele>561.0</ele><time>2026-04-18T12:35:44.98Z</time></trkpt><trkpt lat="42.7116437" lon="12.3309792"><ele>561.8</ele><time>2026-04-18T12:35:45.976Z</time></trkpt><trkpt lat="42.7115966" lon="12.3310824"><ele>562.6</ele><time>2026-04-18T12:35:46.994Z</time></trkpt><trkpt lat="42.7115546" lon="12.3311897"><ele>563.4</ele><time>2026-04-18T12:35:47.986Z</time></trkpt><trkpt lat="42.7115163" lon="12.3313041"><ele>564.2</ele><time>2026-04-18T12:35:48.987Z</time></trkpt><trkpt lat="42.7114719" lon="12.3314208"><ele>565.0</ele><time>2026-04-18T12:35:49.987Z</time></trkpt><trkpt lat="42.7114306" lon="12.3315433"><ele>565.8</ele><time>2026-04-18T12:35:50.994Z</time></trkpt><trkpt lat="42.7113914" lon="12.3316622"><ele>566.6</ele><time>2026-04-18T12:35:51.991Z</time></trkpt><trkpt lat="42.711349" lon="12.3317782"><ele>567.4</ele><time>2026-04-18T12:35:52.982Z</time></trkpt><trkpt lat="42.7113057" lon="12.331901"><ele>568.2</ele><time>2026-04-18T12:35:53.98Z</time></trkpt><trkpt lat="42.7112651" lon="12.3320213"><ele>569.0</ele><time>2026-04-18T12:35:54.98Z</time></trkpt><trkpt lat="42.7112294" lon="12.3321376"><ele>569.0</ele><time>2026-04-18T12:35:55.993Z</time></trkpt><trkpt lat="42.7111975" lon="12.3322537"><ele>569.0</ele><time>2026-04-18T12:35:56.984Z</time></trkpt><trkpt lat="42.7111733" lon="12.3323694"><ele>569.0</ele><time>2026-04-18T12:35:58Z</time></trkpt><trkpt lat="42.7111606" lon="12.3324793"><ele>569.0</ele><time>2026-04-18T12:35:58.98Z</time></trkpt><trkpt lat="42.7111503" lon="12.3325788"><ele>569.0</ele><time>2026-04-18T12:35:59.989Z</time></trkpt><trkpt lat="42.711145" lon="12.3326794"><ele>569.0</ele><time>2026-04-18T12:36:00.989Z</time></trkpt><trkpt lat="42.7111447" lon="12.3327766"><ele>569.0</ele><time>2026-04-18T12:36:01.985Z</time></trkpt><trkpt lat="42.7111488" lon="12.3328626"><ele>569.0</ele><time>2026-04-18T12:36:02.985Z</time></trkpt><trkpt lat="42.7111533" lon="12.3330278"><ele>569.0</ele><time>2026-04-18T12:36:04.976Z</time></trkpt><trkpt lat="42.711147" lon="12.3331417"><ele>569.0</ele><time>2026-04-18T12:36:06.975Z</time></trkpt><trkpt lat="42.7111167" lon="12.3332428"><ele>569.0</ele><time>2026-04-18T12:36:08.987Z</time></trkpt><trkpt lat="42.7110633" lon="12.3333664"><ele>566.7142857142858</ele><time>2026-04-18T12:36:10.976Z</time></trkpt><trkpt lat="42.7110324" lon="12.3334477"><ele>564.4285714285714</ele><time>2026-04-18T12:36:11.977Z</time></trkpt><trkpt lat="42.7110057" lon="12.3335344"><ele>562.1428571428571</ele><time>2026-04-18T12:36:12.988Z</time></trkpt><trkpt lat="42.7109753" lon="12.3336255"><ele>559.8571428571429</ele><time>2026-04-18T12:36:13.97Z</time></trkpt><trkpt lat="42.7109466" lon="12.3337227"><ele>557.5714285714286</ele><time>2026-04-18T12:36:14.977Z</time></trkpt><trkpt lat="42.710923" lon="12.3338229"><ele>555.2857142857143</ele><time>2026-04-18T12:36:16.009Z</time></trkpt><trkpt lat="42.7108968" lon="12.3339295"><ele>553.0</ele><time>2026-04-18T12:36:16.974Z</time></trkpt><trkpt lat="42.7108639" lon="12.334037"><ele>553.0</ele><time>2026-04-18T12:36:17.986Z</time></trkpt><trkpt lat="42.710829" lon="12.3341449"><ele>553.0</ele><time>2026-04-18T12:36:18.989Z</time></trkpt><trkpt lat="42.7107949" lon="12.3342494"><ele>553.0</ele><time>2026-04-18T12:36:19.981Z</time></trkpt><trkpt lat="42.7107571" lon="12.3343659"><ele>553.0</ele><time>2026-04-18T12:36:20.987Z</time></trkpt><trkpt lat="42.7107188" lon="12.3344901"><ele>553.0</ele><time>2026-04-18T12:36:21.986Z</time></trkpt><trkpt lat="42.7106818" lon="12.3346097"><ele>553.0</ele><time>2026-04-18T12:36:23.002Z</time></trkpt><trkpt lat="42.7106508" lon="12.3347241"><ele>553.0</ele><time>2026-04-18T12:36:23.974Z</time></trkpt><trkpt lat="42.7106176" lon="12.3348304"><ele>553.0</ele><time>2026-04-18T12:36:24.99Z</time></trkpt><trkpt lat="42.7105826" lon="12.3349309"><ele>553.0</ele><time>2026-04-18T12:36:25.978Z</time></trkpt><trkpt lat="42.710551" lon="12.3350302"><ele>553.0</ele><time>2026-04-18T12:36:27.008Z</time></trkpt><trkpt lat="42.7104915" lon="12.3351296"><ele>553.0</ele><time>2026-04-18T12:36:28.996Z</time></trkpt><trkpt lat="42.7104161" lon="12.3351466"><ele>553.0</ele><time>2026-04-18T12:36:42.982Z</time></trkpt><trkpt lat="42.7103457" lon="12.3352007"><ele>553.0</ele><time>2026-04-18T12:36:44.978Z</time></trkpt><trkpt lat="42.7102694" lon="12.3352747"><ele>553.0</ele><time>2026-04-18T12:36:46.986Z</time></trkpt><trkpt lat="42.7101747" lon="12.3353709"><ele>553.0</ele><time>2026-04-18T12:36:48.988Z</time></trkpt><trkpt lat="42.7101137" lon="12.3354723"><ele>553.0</ele><time>2026-04-18T12:36:50.976Z</time></trkpt><trkpt lat="42.7100689" lon="12.335579"><ele>550.75</ele><time>2026-04-18T12:36:52.99Z</time></trkpt><trkpt lat="42.7099295" lon="12.3358608"><ele>548.5</ele><time>2026-04-18T12:36:59.005Z</time></trkpt><trkpt lat="42.7098555" lon="12.3358347"><ele>546.25</ele><time>2026-04-18T12:37:01.975Z</time></trkpt><trkpt lat="42.7097683" lon="12.3357908"><ele>544.0</ele><time>2026-04-18T12:37:03.971Z</time></trkpt><trkpt lat="42.7096458" lon="12.3357519"><ele>544.0</ele><time>2026-04-18T12:37:05.973Z</time></trkpt><trkpt lat="42.709577" lon="12.3357256"><ele>544.0</ele><time>2026-04-18T12:37:06.974Z</time></trkpt><trkpt lat="42.7094741" lon="12.335672"><ele>544.0</ele><time>2026-04-18T12:37:08.983Z</time></trkpt><trkpt lat="42.7093667" lon="12.3356606"><ele>544.0</ele><time>2026-04-18T12:37:10.986Z</time></trkpt><trkpt lat="42.7092404" lon="12.3356621"><ele>544.0</ele><time>2026-04-18T12:37:12.981Z</time></trkpt><trkpt lat="42.7091269" lon="12.335663"><ele>543.8333333333334</ele><time>2026-04-18T12:37:14.986Z</time></trkpt><trkpt lat="42.7090175" lon="12.33565"><ele>543.6666666666667</ele><time>2026-04-18T12:37:16.991Z</time></trkpt><trkpt lat="42.708954" lon="12.3356342"><ele>543.5</ele><time>2026-04-18T12:37:17.974Z</time></trkpt><trkpt lat="42.7088796" lon="12.335621"><ele>543.3333333333334</ele><time>2026-04-18T12:37:18.989Z</time></trkpt><trkpt lat="42.7088016" lon="12.3356148"><ele>543.1666666666666</ele><time>2026-04-18T12:37:19.972Z</time></trkpt><trkpt lat="42.7087177" lon="12.3356073"><ele>543.0</ele><time>2026-04-18T12:37:20.99Z</time></trkpt><trkpt lat="42.7086381" lon="12.3355886"><ele>543.1666666666666</ele><time>2026-04-18T12:37:21.988Z</time></trkpt><trkpt lat="42.708563" lon="12.3355592"><ele>543.3333333333334</ele><time>2026-04-18T12:37:22.983Z</time></trkpt><trkpt lat="42.7084999" lon="12.3355409"><ele>543.5</ele><time>2026-04-18T12:37:23.982Z</time></trkpt><trkpt lat="42.7084152" lon="12.3355424"><ele>543.6666666666667</ele><time>2026-04-18T12:37:25.988Z</time></trkpt><trkpt lat="42.7083636" lon="12.3356484"><ele>543.8333333333334</ele><time>2026-04-18T12:37:28.989Z</time></trkpt><trkpt lat="42.7083386" lon="12.3357352"><ele>544.0</ele><time>2026-04-18T12:37:29.983Z</time></trkpt><trkpt lat="42.7083106" lon="12.3358376"><ele>544.6</ele><time>2026-04-18T12:37:30.986Z</time></trkpt><trkpt lat="42.7082751" lon="12.335944"><ele>545.2</ele><time>2026-04-18T12:37:31.985Z</time></trkpt><trkpt lat="42.7082214" lon="12.3360758"><ele>545.8000000000001</ele><time>2026-04-18T12:37:32.982Z</time></trkpt><trkpt lat="42.7081489" lon="12.3362097"><ele>546.4</ele><time>2026-04-18T12:37:33.99Z</time></trkpt><trkpt lat="42.708067" lon="12.3363363"><ele>547.0</ele><time>2026-04-18T12:37:35Z</time></trkpt><trkpt lat="42.7079903" lon="12.3364381"><ele>547.6</ele><time>2026-04-18T12:37:35.989Z</time></trkpt><trkpt lat="42.7079139" lon="12.3365328"><ele>548.2</ele><time>2026-04-18T12:37:36.987Z</time></trkpt><trkpt lat="42.7078433" lon="12.3366168"><ele>548.8</ele><time>2026-04-18T12:37:37.981Z</time></trkpt><trkpt lat="42.7077635" lon="12.3367075"><ele>549.4</ele><time>2026-04-18T12:37:38.988Z</time></trkpt><trkpt lat="42.70769" lon="12.3368196"><ele>550.0</ele><time>2026-04-18T12:37:39.98Z</time></trkpt><trkpt lat="42.7076221" lon="12.3369291"><ele>550.0</ele><time>2026-04-18T12:37:40.99Z</time></trkpt><trkpt lat="42.7075674" lon="12.3370301"><ele>550.0</ele><time>2026-04-18T12:37:41.989Z</time></trkpt><trkpt lat="42.7075204" lon="12.3371182"><ele>550.0</ele><time>2026-04-18T12:37:43.005Z</time></trkpt><trkpt lat="42.707464" lon="12.3372421"><ele>550.0</ele><time>2026-04-18T12:37:44.986Z</time></trkpt><trkpt lat="42.707424" lon="12.3373132"><ele>550.0</ele><time>2026-04-18T12:37:46.996Z</time></trkpt><trkpt lat="42.7073687" lon="12.3373748"><ele>550.0</ele><time>2026-04-18T12:37:48.992Z</time></trkpt><trkpt lat="42.7073131" lon="12.3374615"><ele>550.4</ele><time>2026-04-18T12:37:50.983Z</time></trkpt><trkpt lat="42.7072578" lon="12.3375716"><ele>550.8</ele><time>2026-04-18T12:37:52.986Z</time></trkpt><trkpt lat="42.7072221" lon="12.3376804"><ele>551.2</ele><time>2026-04-18T12:37:54.982Z</time></trkpt><trkpt lat="42.7071911" lon="12.3377919"><ele>551.6</ele><time>2026-04-18T12:37:57Z</time></trkpt><trkpt lat="42.7071358" lon="12.3379023"><ele>552.0</ele><time>2026-04-18T12:37:59Z</time></trkpt><trkpt lat="42.7070544" lon="12.3379989"><ele>551.1666666666666</ele><time>2026-04-18T12:38:00.987Z</time></trkpt><trkpt lat="42.7069607" lon="12.3380701"><ele>550.3333333333334</ele><time>2026-04-18T12:38:02.987Z</time></trkpt><trkpt lat="42.7068837" lon="12.3381203"><ele>549.5</ele><time>2026-04-18T12:38:04.985Z</time></trkpt><trkpt lat="42.7068661" lon="12.3382288"><ele>548.6666666666667</ele><time>2026-04-18T12:38:10.021Z</time></trkpt><trkpt lat="42.7069073" lon="12.3383087"><ele>547.8333333333334</ele><time>2026-04-18T12:38:12Z</time></trkpt><trkpt lat="42.7069767" lon="12.338404"><ele>547.0</ele><time>2026-04-18T12:38:13.989Z</time></trkpt><trkpt lat="42.7070467" lon="12.3385428"><ele>547.0</ele><time>2026-04-18T12:38:15.984Z</time></trkpt><trkpt lat="42.7070913" lon="12.3386272"><ele>547.0</ele><time>2026-04-18T12:38:16.988Z</time></trkpt><trkpt lat="42.7071384" lon="12.3387116"><ele>547.0</ele><time>2026-04-18T12:38:17.998Z</time></trkpt><trkpt lat="42.7071862" lon="12.3387957"><ele>547.0</ele><time>2026-04-18T12:38:18.987Z</time></trkpt><trkpt lat="42.7072287" lon="12.3388744"><ele>547.0</ele><time>2026-04-18T12:38:19.988Z</time></trkpt><trkpt lat="42.7072698" lon="12.3389495"><ele>547.0</ele><time>2026-04-18T12:38:20.995Z</time></trkpt><trkpt lat="42.7073089" lon="12.3390256"><ele>547.0</ele><time>2026-04-18T12:38:22.004Z</time></trkpt><trkpt lat="42.7073471" lon="12.3391049"><ele>545.8333333333334</ele><time>2026-04-18T12:38:22.988Z</time></trkpt><trkpt lat="42.707385" lon="12.3391755"><ele>544.6666666666667</ele><time>2026-04-18T12:38:24.001Z</time></trkpt><trkpt lat="42.7074527" lon="12.3392978"><ele>543.5</ele><time>2026-04-18T12:38:25.98Z</time></trkpt><trkpt lat="42.7074958" lon="12.3393861"><ele>542.3333333333334</ele><time>2026-04-18T12:38:27.982Z</time></trkpt><trkpt lat="42.7074707" lon="12.3394846"><ele>541.1666666666666</ele><time>2026-04-18T12:38:30.991Z</time></trkpt><trkpt lat="42.7073883" lon="12.3395178"><ele>540.0</ele><time>2026-04-18T12:38:32.981Z</time></trkpt><trkpt lat="42.7072646" lon="12.3394856"><ele>540.0</ele><time>2026-04-18T12:38:34.99Z</time></trkpt><trkpt lat="42.7071337" lon="12.3395301"><ele>540.0</ele><time>2026-04-18T12:38:36.985Z</time></trkpt><trkpt lat="42.7070678" lon="12.3395943"><ele>540.0</ele><time>2026-04-18T12:38:37.996Z</time></trkpt><trkpt lat="42.7070042" lon="12.339677"><ele>540.0</ele><time>2026-04-18T12:38:38.986Z</time></trkpt><trkpt lat="42.7069324" lon="12.3397757"><ele>540.0</ele><time>2026-04-18T12:38:39.984Z</time></trkpt><trkpt lat="42.7068582" lon="12.3398724"><ele>538.8</ele><time>2026-04-18T12:38:40.984Z</time></trkpt><trkpt lat="42.7067835" lon="12.3399766"><ele>537.6</ele><time>2026-04-18T12:38:41.986Z</time></trkpt><trkpt lat="42.7067134" lon="12.340085"><ele>536.4</ele><time>2026-04-18T12:38:42.979Z</time></trkpt><trkpt lat="42.7066398" lon="12.3401958"><ele>535.2</ele><time>2026-04-18T12:38:44Z</time></trkpt><trkpt lat="42.7065683" lon="12.3402911"><ele>534.0</ele><time>2026-04-18T12:38:44.983Z</time></trkpt><trkpt lat="42.7064921" lon="12.340379"><ele>534.0</ele><time>2026-04-18T12:38:45.987Z</time></trkpt><trkpt lat="42.7064028" lon="12.3404612"><ele>534.0</ele><time>2026-04-18T12:38:46.997Z</time></trkpt><trkpt lat="42.7063054" lon="12.3405133"><ele>534.0</ele><time>2026-04-18T12:38:47.981Z</time></trkpt><trkpt lat="42.7062" lon="12.3405522"><ele>534.0</ele><time>2026-04-18T12:38:49.003Z</time></trkpt><trkpt lat="42.7060938" lon="12.3405614"><ele>534.0</ele><time>2026-04-18T12:38:49.981Z</time></trkpt><trkpt lat="42.7059967" lon="12.3405413"><ele>534.8</ele><time>2026-04-18T12:38:50.989Z</time></trkpt><trkpt lat="42.7059074" lon="12.3405069"><ele>535.5999999999999</ele><time>2026-04-18T12:38:52.007Z</time></trkpt><trkpt lat="42.7058193" lon="12.3404606"><ele>536.4</ele><time>2026-04-18T12:38:52.991Z</time></trkpt><trkpt lat="42.705729" lon="12.3404116"><ele>537.1999999999999</ele><time>2026-04-18T12:38:53.991Z</time></trkpt><trkpt lat="42.705644" lon="12.3403561"><ele>538.0</ele><time>2026-04-18T12:38:54.982Z</time></trkpt><trkpt lat="42.7055606" lon="12.3402845"><ele>538.0</ele><time>2026-04-18T12:38:56Z</time></trkpt><trkpt lat="42.7054785" lon="12.340203"><ele>538.0</ele><time>2026-04-18T12:38:56.998Z</time></trkpt><trkpt lat="42.7053966" lon="12.3401098"><ele>538.0</ele><time>2026-04-18T12:38:57.986Z</time></trkpt><trkpt lat="42.7053106" lon="12.3400027"><ele>538.0</ele><time>2026-04-18T12:38:59.016Z</time></trkpt><trkpt lat="42.7052212" lon="12.3398867"><ele>538.0</ele><time>2026-04-18T12:39:00.015Z</time></trkpt><trkpt lat="42.7051394" lon="12.3397694"><ele>537.4</ele><time>2026-04-18T12:39:00.977Z</time></trkpt><trkpt lat="42.7050653" lon="12.3396515"><ele>536.8</ele><time>2026-04-18T12:39:02.015Z</time></trkpt><trkpt lat="42.7049997" lon="12.3395492"><ele>536.2</ele><time>2026-04-18T12:39:02.983Z</time></trkpt><trkpt lat="42.7049397" lon="12.339464"><ele>535.6</ele><time>2026-04-18T12:39:03.997Z</time></trkpt><trkpt lat="42.7048829" lon="12.3393858"><ele>535.0</ele><time>2026-04-18T12:39:04.993Z</time></trkpt><trkpt lat="42.7047971" lon="12.3392953"><ele>535.0</ele><time>2026-04-18T12:39:06.981Z</time></trkpt><trkpt lat="42.7047241" lon="12.3392972"><ele>535.0</ele><time>2026-04-18T12:39:08.979Z</time></trkpt><trkpt lat="42.7046439" lon="12.3393411"><ele>535.0</ele><time>2026-04-18T12:39:10.979Z</time></trkpt><trkpt lat="42.7045441" lon="12.3393761"><ele>535.0</ele><time>2026-04-18T12:39:13.015Z</time></trkpt><trkpt lat="42.7044335" lon="12.339403"><ele>535.0</ele><time>2026-04-18T12:39:15.001Z</time></trkpt><trkpt lat="42.7043368" lon="12.3394258"><ele>531.6</ele><time>2026-04-18T12:39:16.978Z</time></trkpt><trkpt lat="42.7042462" lon="12.3394439"><ele>528.2</ele><time>2026-04-18T12:39:18.984Z</time></trkpt><trkpt lat="42.7041448" lon="12.339451"><ele>524.8</ele><time>2026-04-18T12:39:20.987Z</time></trkpt><trkpt lat="42.7040483" lon="12.3395076"><ele>521.4</ele><time>2026-04-18T12:39:23Z</time></trkpt><trkpt lat="42.7039782" lon="12.3396071"><ele>518.0</ele><time>2026-04-18T12:39:25.009Z</time></trkpt><trkpt lat="42.7039519" lon="12.339685"><ele>517.0</ele><time>2026-04-18T12:39:25.97Z</time></trkpt><trkpt lat="42.7039274" lon="12.3397814"><ele>516.0</ele><time>2026-04-18T12:39:26.992Z</time></trkpt><trkpt lat="42.7039087" lon="12.3398812"><ele>515.0</ele><time>2026-04-18T12:39:27.978Z</time></trkpt><trkpt lat="42.7038978" lon="12.3399813"><ele>514.0</ele><time>2026-04-18T12:39:28.989Z</time></trkpt><trkpt lat="42.7038925" lon="12.3400981"><ele>513.0</ele><time>2026-04-18T12:39:29.996Z</time></trkpt><trkpt lat="42.7038877" lon="12.3402258"><ele>512.0</ele><time>2026-04-18T12:39:30.986Z</time></trkpt><trkpt lat="42.7038796" lon="12.3403625"><ele>512.0</ele><time>2026-04-18T12:39:31.981Z</time></trkpt><trkpt lat="42.7038716" lon="12.3405043"><ele>512.0</ele><time>2026-04-18T12:39:32.986Z</time></trkpt><trkpt lat="42.7038646" lon="12.3406539"><ele>512.0</ele><time>2026-04-18T12:39:33.982Z</time></trkpt><trkpt lat="42.7038496" lon="12.3408045"><ele>512.0</ele><time>2026-04-18T12:39:34.998Z</time></trkpt><trkpt lat="42.7038306" lon="12.340945"><ele>512.0</ele><time>2026-04-18T12:39:36.001Z</time></trkpt><trkpt lat="42.7038164" lon="12.341079"><ele>511.40000000000003</ele><time>2026-04-18T12:39:36.977Z</time></trkpt><trkpt lat="42.7038083" lon="12.3412054"><ele>510.80000000000007</ele><time>2026-04-18T12:39:37.982Z</time></trkpt><trkpt lat="42.7038072" lon="12.3413315"><ele>510.2</ele><time>2026-04-18T12:39:39Z</time></trkpt><trkpt lat="42.7038153" lon="12.3414465"><ele>509.6</ele><time>2026-04-18T12:39:39.998Z</time></trkpt><trkpt lat="42.7038331" lon="12.3415522"><ele>509.0</ele><time>2026-04-18T12:39:40.994Z</time></trkpt><trkpt lat="42.7038609" lon="12.341682"><ele>508.4</ele><time>2026-04-18T12:39:41.985Z</time></trkpt><trkpt lat="42.7038857" lon="12.3418175"><ele>507.79999999999995</ele><time>2026-04-18T12:39:42.978Z</time></trkpt><trkpt lat="42.7039066" lon="12.3419524"><ele>507.20000000000005</ele><time>2026-04-18T12:39:43.99Z</time></trkpt><trkpt lat="42.7039202" lon="12.3420798"><ele>506.6</ele><time>2026-04-18T12:39:45.01Z</time></trkpt><trkpt lat="42.7039304" lon="12.3422129"><ele>506.0</ele><time>2026-04-18T12:39:45.991Z</time></trkpt><trkpt lat="42.7039363" lon="12.3423557"><ele>505.8</ele><time>2026-04-18T12:39:46.979Z</time></trkpt><trkpt lat="42.7039467" lon="12.342489"><ele>505.6</ele><time>2026-04-18T12:39:47.991Z</time></trkpt><trkpt lat="42.703963" lon="12.3426344"><ele>505.4</ele><time>2026-04-18T12:39:48.984Z</time></trkpt><trkpt lat="42.7039755" lon="12.3427867"><ele>505.2</ele><time>2026-04-18T12:39:49.981Z</time></trkpt><trkpt lat="42.7039894" lon="12.3429365"><ele>505.0</ele><time>2026-04-18T12:39:50.982Z</time></trkpt><trkpt lat="42.7040018" lon="12.3431006"><ele>505.00000000000006</ele><time>2026-04-18T12:39:51.991Z</time></trkpt><trkpt lat="42.704007" lon="12.3432427"><ele>505.0</ele><time>2026-04-18T12:39:52.98Z</time></trkpt><trkpt lat="42.7040062" lon="12.3433596"><ele>505.0</ele><time>2026-04-18T12:39:53.995Z</time></trkpt><trkpt lat="42.704002" lon="12.3434577"><ele>505.0</ele><time>2026-04-18T12:39:55.007Z</time></trkpt><trkpt lat="42.7040001" lon="12.3435495"><ele>505.00000000000006</ele><time>2026-04-18T12:39:55.986Z</time></trkpt><trkpt lat="42.7039988" lon="12.343639"><ele>505.0</ele><time>2026-04-18T12:39:56.994Z</time></trkpt><trkpt lat="42.7040008" lon="12.3437302"><ele>505.00000000000006</ele><time>2026-04-18T12:39:57.972Z</time></trkpt><trkpt lat="42.7040051" lon="12.3438281"><ele>505.0</ele><time>2026-04-18T12:39:58.999Z</time></trkpt><trkpt lat="42.7040171" lon="12.343941"><ele>505.0</ele><time>2026-04-18T12:39:59.988Z</time></trkpt><trkpt lat="42.7040344" lon="12.3440533"><ele>505.0</ele><time>2026-04-18T12:40:01.006Z</time></trkpt><trkpt lat="42.7040444" lon="12.34416"><ele>505.00000000000006</ele><time>2026-04-18T12:40:01.991Z</time></trkpt><trkpt lat="42.7040421" lon="12.3442618"><ele>505.0</ele><time>2026-04-18T12:40:03.029Z</time></trkpt><trkpt lat="42.7040389" lon="12.3443662"><ele>504.83333333333337</ele><time>2026-04-18T12:40:03.997Z</time></trkpt><trkpt lat="42.7040295" lon="12.3444716"><ele>504.6666666666667</ele><time>2026-04-18T12:40:05.025Z</time></trkpt><trkpt lat="42.7040119" lon="12.3445735"><ele>504.5</ele><time>2026-04-18T12:40:05.984Z</time></trkpt><trkpt lat="42.7039936" lon="12.3446783"><ele>504.33333333333337</ele><time>2026-04-18T12:40:06.996Z</time></trkpt><trkpt lat="42.7039735" lon="12.3447822"><ele>504.1666666666667</ele><time>2026-04-18T12:40:08.001Z</time></trkpt><trkpt lat="42.7039476" lon="12.3448799"><ele>504.0</ele><time>2026-04-18T12:40:08.999Z</time></trkpt><trkpt lat="42.7039121" lon="12.3449713"><ele>503.6666666666667</ele><time>2026-04-18T12:40:09.981Z</time></trkpt><trkpt lat="42.7038726" lon="12.3450643"><ele>503.33333333333337</ele><time>2026-04-18T12:40:10.978Z</time></trkpt><trkpt lat="42.7038298" lon="12.3451485"><ele>503.0</ele><time>2026-04-18T12:40:12.015Z</time></trkpt><trkpt lat="42.7037943" lon="12.3452314"><ele>502.6666666666667</ele><time>2026-04-18T12:40:12.982Z</time></trkpt><trkpt lat="42.703756" lon="12.3453236"><ele>502.33333333333337</ele><time>2026-04-18T12:40:13.983Z</time></trkpt><trkpt lat="42.7037216" lon="12.345422"><ele>502.0</ele><time>2026-04-18T12:40:14.98Z</time></trkpt><trkpt lat="42.7036964" lon="12.345519"><ele>501.50000000000006</ele><time>2026-04-18T12:40:15.99Z</time></trkpt><trkpt lat="42.7036747" lon="12.3456054"><ele>501.0</ele><time>2026-04-18T12:40:16.98Z</time></trkpt><trkpt lat="42.7036383" lon="12.345718"><ele>500.5</ele><time>2026-04-18T12:40:18.976Z</time></trkpt><trkpt lat="42.703602" lon="12.3458072"><ele>500.0</ele><time>2026-04-18T12:40:20.987Z</time></trkpt><trkpt lat="42.7035198" lon="12.3459131"><ele>499.50000000000006</ele><time>2026-04-18T12:40:22.977Z</time></trkpt><trkpt lat="42.7034593" lon="12.3459707"><ele>499.0</ele><time>2026-04-18T12:40:23.978Z</time></trkpt><trkpt lat="42.7034019" lon="12.3460425"><ele>499.0</ele><time>2026-04-18T12:40:24.988Z</time></trkpt><trkpt lat="42.7033581" lon="12.3461504"><ele>499.0</ele><time>2026-04-18T12:40:25.996Z</time></trkpt><trkpt lat="42.7033203" lon="12.3462642"><ele>499.0</ele><time>2026-04-18T12:40:26.993Z</time></trkpt><trkpt lat="42.7032959" lon="12.3463839"><ele>499.0</ele><time>2026-04-18T12:40:27.992Z</time></trkpt><trkpt lat="42.7032796" lon="12.3465075"><ele>499.0</ele><time>2026-04-18T12:40:29.013Z</time></trkpt><trkpt lat="42.7032602" lon="12.346627"><ele>498.6666666666667</ele><time>2026-04-18T12:40:29.995Z</time></trkpt><trkpt lat="42.7032461" lon="12.3467428"><ele>498.33333333333337</ele><time>2026-04-18T12:40:30.989Z</time></trkpt><trkpt lat="42.7032388" lon="12.3468631"><ele>498.0</ele><time>2026-04-18T12:40:31.995Z</time></trkpt><trkpt lat="42.7032257" lon="12.3469795"><ele>497.66666666666663</ele><time>2026-04-18T12:40:32.983Z</time></trkpt><trkpt lat="42.703212" lon="12.3470936"><ele>497.3333333333333</ele><time>2026-04-18T12:40:33.976Z</time></trkpt><trkpt lat="42.7031968" lon="12.3472075"><ele>497.0</ele><time>2026-04-18T12:40:35.003Z</time></trkpt><trkpt lat="42.7031862" lon="12.3473201"><ele>497.66666666666663</ele><time>2026-04-18T12:40:35.981Z</time></trkpt><trkpt lat="42.7031722" lon="12.347428"><ele>498.3333333333333</ele><time>2026-04-18T12:40:36.994Z</time></trkpt><trkpt lat="42.7031624" lon="12.3475415"><ele>499.0</ele><time>2026-04-18T12:40:37.981Z</time></trkpt><trkpt lat="42.7031559" lon="12.3476623"><ele>499.66666666666663</ele><time>2026-04-18T12:40:38.982Z</time></trkpt><trkpt lat="42.7031531" lon="12.3477913"><ele>500.3333333333333</ele><time>2026-04-18T12:40:39.979Z</time></trkpt><trkpt lat="42.7031491" lon="12.3479193"><ele>501.0</ele><time>2026-04-18T12:40:40.99Z</time></trkpt><trkpt lat="42.7031372" lon="12.3480545"><ele>502.0</ele><time>2026-04-18T12:40:42Z</time></trkpt><trkpt lat="42.7031184" lon="12.3482016"><ele>503.0</ele><time>2026-04-18T12:40:42.992Z</time></trkpt><trkpt lat="42.7030985" lon="12.3483586"><ele>504.0</ele><time>2026-04-18T12:40:43.989Z</time></trkpt><trkpt lat="42.7030753" lon="12.3485171"><ele>505.0</ele><time>2026-04-18T12:40:44.994Z</time></trkpt><trkpt lat="42.7030558" lon="12.3486747"><ele>505.0</ele><time>2026-04-18T12:40:45.989Z</time></trkpt><trkpt lat="42.7030326" lon="12.3488209"><ele>505.0</ele><time>2026-04-18T12:40:46.996Z</time></trkpt><trkpt lat="42.7030009" lon="12.3489534"><ele>505.0</ele><time>2026-04-18T12:40:47.984Z</time></trkpt><trkpt lat="42.7029781" lon="12.3490787"><ele>505.0</ele><time>2026-04-18T12:40:48.998Z</time></trkpt><trkpt lat="42.7029566" lon="12.3491901"><ele>505.0</ele><time>2026-04-18T12:40:49.98Z</time></trkpt><trkpt lat="42.7029419" lon="12.34929"><ele>505.6</ele><time>2026-04-18T12:40:50.976Z</time></trkpt><trkpt lat="42.7029523" lon="12.349396"><ele>506.2</ele><time>2026-04-18T12:40:51.979Z</time></trkpt><trkpt lat="42.7029887" lon="12.3495048"><ele>506.79999999999995</ele><time>2026-04-18T12:40:52.975Z</time></trkpt><trkpt lat="42.7030338" lon="12.3496257"><ele>507.4</ele><time>2026-04-18T12:40:53.987Z</time></trkpt><trkpt lat="42.7030939" lon="12.3497398"><ele>508.0</ele><time>2026-04-18T12:40:54.982Z</time></trkpt><trkpt lat="42.7031704" lon="12.3498283"><ele>509.2</ele><time>2026-04-18T12:40:55.989Z</time></trkpt><trkpt lat="42.7032629" lon="12.3498816"><ele>510.4</ele><time>2026-04-18T12:40:56.974Z</time></trkpt><trkpt lat="42.7033646" lon="12.3499087"><ele>511.59999999999997</ele><time>2026-04-18T12:40:57.996Z</time></trkpt><trkpt lat="42.703468" lon="12.3499309"><ele>512.8</ele><time>2026-04-18T12:40:58.996Z</time></trkpt><trkpt lat="42.7035707" lon="12.3499617"><ele>514.0</ele><time>2026-04-18T12:40:59.978Z</time></trkpt><trkpt lat="42.7036734" lon="12.3499956"><ele>514.0</ele><time>2026-04-18T12:41:00.995Z</time></trkpt><trkpt lat="42.7037781" lon="12.3500354"><ele>514.0</ele><time>2026-04-18T12:41:01.99Z</time></trkpt><trkpt lat="42.7038799" lon="12.3500844"><ele>514.0</ele><time>2026-04-18T12:41:02.99Z</time></trkpt><trkpt lat="42.703977" lon="12.3501564"><ele>514.0</ele><time>2026-04-18T12:41:03.994Z</time></trkpt><trkpt lat="42.7040747" lon="12.3502628"><ele>514.0</ele><time>2026-04-18T12:41:04.983Z</time></trkpt><trkpt lat="42.7041811" lon="12.3503871"><ele>514.0</ele><time>2026-04-18T12:41:05.999Z</time></trkpt><trkpt lat="42.7042952" lon="12.3505143"><ele>514.0</ele><time>2026-04-18T12:41:06.979Z</time></trkpt><trkpt lat="42.7044347" lon="12.3506081"><ele>514.0</ele><time>2026-04-18T12:41:07.997Z</time></trkpt><trkpt lat="42.7046025" lon="12.3506743"><ele>515.3333333333334</ele><time>2026-04-18T12:41:08.99Z</time></trkpt><trkpt lat="42.7047493" lon="12.3507471"><ele>516.6666666666666</ele><time>2026-04-18T12:41:09.991Z</time></trkpt><trkpt lat="42.7049568" lon="12.3509307"><ele>518.0</ele><time>2026-04-18T12:41:11.991Z</time></trkpt><trkpt lat="42.7050487" lon="12.3510333"><ele>518.0</ele><time>2026-04-18T12:41:12.988Z</time></trkpt><trkpt lat="42.7051349" lon="12.3511492"><ele>518.0</ele><time>2026-04-18T12:41:13.984Z</time></trkpt><trkpt lat="42.7052093" lon="12.3512885"><ele>518.0</ele><time>2026-04-18T12:41:14.98Z</time></trkpt><trkpt lat="42.7052716" lon="12.3514487"><ele>518.0</ele><time>2026-04-18T12:41:15.978Z</time></trkpt><trkpt lat="42.7053266" lon="12.351601"><ele>515.5</ele><time>2026-04-18T12:41:16.981Z</time></trkpt><trkpt lat="42.7053851" lon="12.3517473"><ele>513.0</ele><time>2026-04-18T12:41:17.989Z</time></trkpt><trkpt lat="42.7054537" lon="12.351878"><ele>510.5</ele><time>2026-04-18T12:41:18.996Z</time></trkpt><trkpt lat="42.7055326" lon="12.3519805"><ele>508.0</ele><time>2026-04-18T12:41:19.995Z</time></trkpt><trkpt lat="42.7056249" lon="12.3520632"><ele>508.0</ele><time>2026-04-18T12:41:20.989Z</time></trkpt><trkpt lat="42.7057345" lon="12.3521183"><ele>508.0</ele><time>2026-04-18T12:41:21.988Z</time></trkpt><trkpt lat="42.7058609" lon="12.3521622"><ele>508.0</ele><time>2026-04-18T12:41:22.997Z</time></trkpt><trkpt lat="42.7059962" lon="12.3522041"><ele>508.0</ele><time>2026-04-18T12:41:23.989Z</time></trkpt><trkpt lat="42.7061188" lon="12.3522531"><ele>507.79999999999995</ele><time>2026-04-18T12:41:24.982Z</time></trkpt><trkpt lat="42.7062323" lon="12.352298"><ele>507.59999999999997</ele><time>2026-04-18T12:41:25.978Z</time></trkpt><trkpt lat="42.7063342" lon="12.3523356"><ele>507.40000000000003</ele><time>2026-04-18T12:41:26.968Z</time></trkpt><trkpt lat="42.7064337" lon="12.3523755"><ele>507.20000000000005</ele><time>2026-04-18T12:41:27.982Z</time></trkpt><trkpt lat="42.7065283" lon="12.3524151"><ele>507.0</ele><time>2026-04-18T12:41:28.975Z</time></trkpt><trkpt lat="42.7066226" lon="12.3524415"><ele>507.0</ele><time>2026-04-18T12:41:29.981Z</time></trkpt><trkpt lat="42.7067181" lon="12.3524407"><ele>507.00000000000006</ele><time>2026-04-18T12:41:30.987Z</time></trkpt><trkpt lat="42.706821" lon="12.3524155"><ele>507.00000000000006</ele><time>2026-04-18T12:41:31.994Z</time></trkpt><trkpt lat="42.7069332" lon="12.3523818"><ele>507.0</ele><time>2026-04-18T12:41:32.987Z</time></trkpt><trkpt lat="42.7070531" lon="12.3523316"><ele>507.0</ele><time>2026-04-18T12:41:33.976Z</time></trkpt><trkpt lat="42.7071776" lon="12.3522683"><ele>505.5</ele><time>2026-04-18T12:41:34.997Z</time></trkpt><trkpt lat="42.707287" lon="12.3522102"><ele>504.0</ele><time>2026-04-18T12:41:35.993Z</time></trkpt><trkpt lat="42.7074033" lon="12.3521529"><ele>502.5</ele><time>2026-04-18T12:41:36.997Z</time></trkpt><trkpt lat="42.7075144" lon="12.3521085"><ele>501.0</ele><time>2026-04-18T12:41:37.979Z</time></trkpt><trkpt lat="42.7076201" lon="12.3520787"><ele>500.20000000000005</ele><time>2026-04-18T12:41:38.984Z</time></trkpt><trkpt lat="42.7077263" lon="12.352053"><ele>499.40000000000003</ele><time>2026-04-18T12:41:39.986Z</time></trkpt><trkpt lat="42.707833" lon="12.3520392"><ele>498.6</ele><time>2026-04-18T12:41:40.979Z</time></trkpt><trkpt lat="42.7079347" lon="12.3520368"><ele>497.8</ele><time>2026-04-18T12:41:41.979Z</time></trkpt><trkpt lat="42.7080376" lon="12.3520458"><ele>497.0</ele><time>2026-04-18T12:41:42.991Z</time></trkpt><trkpt lat="42.7081395" lon="12.3520571"><ele>496.20000000000005</ele><time>2026-04-18T12:41:43.99Z</time></trkpt><trkpt lat="42.7082359" lon="12.352065"><ele>495.40000000000003</ele><time>2026-04-18T12:41:44.988Z</time></trkpt><trkpt lat="42.7083287" lon="12.3520683"><ele>494.59999999999997</ele><time>2026-04-18T12:41:45.98Z</time></trkpt><trkpt lat="42.7084234" lon="12.3520725"><ele>493.79999999999995</ele><time>2026-04-18T12:41:46.989Z</time></trkpt><trkpt lat="42.7085198" lon="12.3520821"><ele>493.0</ele><time>2026-04-18T12:41:47.995Z</time></trkpt><trkpt lat="42.708618" lon="12.3521061"><ele>491.5</ele><time>2026-04-18T12:41:48.993Z</time></trkpt><trkpt lat="42.7087266" lon="12.3521372"><ele>490.0</ele><time>2026-04-18T12:41:49.982Z</time></trkpt><trkpt lat="42.7088444" lon="12.3521838"><ele>488.5</ele><time>2026-04-18T12:41:51.008Z</time></trkpt><trkpt lat="42.7089742" lon="12.3522405"><ele>487.0</ele><time>2026-04-18T12:41:51.973Z</time></trkpt><trkpt lat="42.7091204" lon="12.3522905"><ele>487.0</ele><time>2026-04-18T12:41:53.003Z</time></trkpt><trkpt lat="42.7092754" lon="12.3523314"><ele>487.0</ele><time>2026-04-18T12:41:53.99Z</time></trkpt><trkpt lat="42.7094373" lon="12.3523623"><ele>487.0</ele><time>2026-04-18T12:41:54.986Z</time></trkpt><trkpt lat="42.7095846" lon="12.3523869"><ele>487.0</ele><time>2026-04-18T12:41:55.974Z</time></trkpt><trkpt lat="42.7097227" lon="12.3524075"><ele>487.0</ele><time>2026-04-18T12:41:56.981Z</time></trkpt><trkpt lat="42.7098636" lon="12.3524395"><ele>487.0</ele><time>2026-04-18T12:41:57.991Z</time></trkpt><trkpt lat="42.7100013" lon="12.3524799"><ele>487.0</ele><time>2026-04-18T12:41:58.976Z</time></trkpt><trkpt lat="42.7101275" lon="12.3525224"><ele>486.75</ele><time>2026-04-18T12:41:59.978Z</time></trkpt><trkpt lat="42.7102548" lon="12.3525637"><ele>486.5</ele><time>2026-04-18T12:42:00.993Z</time></trkpt><trkpt lat="42.7103863" lon="12.3526052"><ele>486.25</ele><time>2026-04-18T12:42:01.989Z</time></trkpt><trkpt lat="42.7105223" lon="12.3526456"><ele>486.0</ele><time>2026-04-18T12:42:02.975Z</time></trkpt><trkpt lat="42.7106567" lon="12.3527004"><ele>486.0</ele><time>2026-04-18T12:42:03.996Z</time></trkpt><trkpt lat="42.7107761" lon="12.3527679"><ele>486.0</ele><time>2026-04-18T12:42:05.007Z</time></trkpt><trkpt lat="42.7108925" lon="12.3528349"><ele>486.0</ele><time>2026-04-18T12:42:05.974Z</time></trkpt><trkpt lat="42.7110066" lon="12.3528969"><ele>486.0</ele><time>2026-04-18T12:42:06.971Z</time></trkpt><trkpt lat="42.7111121" lon="12.3529605"><ele>485.4</ele><time>2026-04-18T12:42:08.004Z</time></trkpt><trkpt lat="42.7112171" lon="12.3530234"><ele>484.8</ele><time>2026-04-18T12:42:08.994Z</time></trkpt><trkpt lat="42.7113224" lon="12.3530807"><ele>484.19999999999993</ele><time>2026-04-18T12:42:09.977Z</time></trkpt><trkpt lat="42.7114257" lon="12.3531275"><ele>483.59999999999997</ele><time>2026-04-18T12:42:10.984Z</time></trkpt><trkpt lat="42.7115288" lon="12.3531662"><ele>483.0</ele><time>2026-04-18T12:42:11.976Z</time></trkpt><trkpt lat="42.7116317" lon="12.3532018"><ele>483.0</ele><time>2026-04-18T12:42:12.979Z</time></trkpt><trkpt lat="42.7117408" lon="12.3532383"><ele>483.0</ele><time>2026-04-18T12:42:13.986Z</time></trkpt><trkpt lat="42.7118493" lon="12.3532748"><ele>483.0</ele><time>2026-04-18T12:42:14.971Z</time></trkpt><trkpt lat="42.7119622" lon="12.3532985"><ele>483.0</ele><time>2026-04-18T12:42:15.989Z</time></trkpt><trkpt lat="42.7120778" lon="12.3533097"><ele>482.2</ele><time>2026-04-18T12:42:16.976Z</time></trkpt><trkpt lat="42.7121896" lon="12.3533071"><ele>481.4</ele><time>2026-04-18T12:42:17.997Z</time></trkpt><trkpt lat="42.7122997" lon="12.353301"><ele>480.59999999999997</ele><time>2026-04-18T12:42:18.977Z</time></trkpt><trkpt lat="42.7124049" lon="12.3533024"><ele>479.79999999999995</ele><time>2026-04-18T12:42:19.973Z</time></trkpt><trkpt lat="42.7125051" lon="12.3533133"><ele>479.0</ele><time>2026-04-18T12:42:20.998Z</time></trkpt><trkpt lat="42.7126028" lon="12.3533316"><ele>478.99999999999994</ele><time>2026-04-18T12:42:21.991Z</time></trkpt><trkpt lat="42.7126953" lon="12.3533505"><ele>479.0</ele><time>2026-04-18T12:42:22.977Z</time></trkpt><trkpt lat="42.7127791" lon="12.3533651"><ele>479.0</ele><time>2026-04-18T12:42:23.978Z</time></trkpt><trkpt lat="42.7128488" lon="12.3533926"><ele>479.0</ele><time>2026-04-18T12:42:24.976Z</time></trkpt><trkpt lat="42.7129103" lon="12.3534259"><ele>478.99999999999994</ele><time>2026-04-18T12:42:25.985Z</time></trkpt><trkpt lat="42.7129947" lon="12.3535079"><ele>479.0</ele><time>2026-04-18T12:42:27.99Z</time></trkpt><trkpt lat="42.7130567" lon="12.3535857"><ele>475.0</ele><time>2026-04-18T12:42:29.986Z</time></trkpt><trkpt lat="42.7131026" lon="12.353649"><ele>475.0</ele><time>2026-04-18T12:42:31.978Z</time></trkpt></trkseg></trk></gpx>